[[{"header":{"parameterUnit":"m.s-1","parameterCategory":1,"la1":30.6,"la2":28.766,"lo1":-90.7593,"lo2":-88.6598,"dy":0.0162,"dx":0.0183,"nx":116,"ny":114,"refTime":"2024-07-01T00:00:00:Z","depth":0,"parameterNumber":2,"parameterNumberName":"U-component_of_WINDS"},"data":[0.0,0.0,0.0,0.0,0.0,0.0,0.0,0.0,0.0,0.0,0.0,0.0,0.0,0.0,0.0,0.0,0.0,0.0,0.0,0.0,0.0,0.0,0.0,0.0,0.0,0.0,0.0,0.0,0.0,0.0,0.0,0.0,0.0,0.0,0.0,0.0,0.0,0.0,0.0,0.0,0.0,0.0,0.0,0.0,0.0,0.0,0.0,0.0,0.0,0.0,0.0,0.0,0.0,0.0,0.0,0.0,0.0,0.0,0.0,0.0,0.0,0.0,0.0,0.0,0.0,0.0,0.0,0.0,0.0,0.0,0.0,0.0,0.0,0.0,0.0,0.0,0.0,0.0,0.0,0.0,0.0,0.0,0.0,0.0,0.0,0.0,0.0,0.0,0.0,0.0,0.0,0.0,0.0,0.0,0.0,0.0,0.0,0.0,0.0,0.0,0.0,0.0,0.0,0.0,0.0,0.0,0.0,0.0,0.0,0.0,0.0,0.0,0.0,0.0,0.0,0.0,0.0,0.0,0.0,0.0,0.0,0.0,0.0,0.0,0.0,0.0,0.0,0.0,0.0,0.0,0.0,0.0,0.0,0.0,0.0,0.0,0.0,0.0,0.0,0.0,0.0,0.0,0.0,0.0,0.0,0.0,0.0,0.0,0.0,0.0,0.0,0.0,0.0,0.0,0.0,0.0,0.0,0.0,0.0,0.0,0.0,0.0,0.0,0.0,0.0,0.0,0.0,0.0,0.0,0.0,0.0,0.0,0.0,0.0,0.0,0.0,0.0,0.0,0.0,0.0,0.0,0.0,0.0,0.0,0.0,0.0,0.0,0.0,0.0,0.0,0.0,0.0,0.0,0.0,0.0,0.0,0.0,0.0,0.0,0.0,0.0,0.0,0.0,0.0,0.0,0.0,0.0,0.0,0.0,0.0,0.0,0.0,0.0,0.0,0.0,0.0,0.0,0.0,0.0,0.0,0.0,0.0,0.0,0.0,0.0,0.0,0.0,0.0,0.0,0.0,0.0,0.0,0.0,0.0,0.0,0.0,0.0,0.0,0.0,0.0,0.0,0.0,0.0,0.0,0.0,0.0,0.0,0.0,0.0,0.0,0.0,0.0,0.0,0.0,0.0,0.0,0.0,0.0,0.0,0.0,0.0,0.0,0.0,0.0,0.0,0.0,0.0,0.0,0.0,0.0,0.0,0.0,0.0,0.0,0.0,0.0,0.0,0.0,0.0,0.0,0.0,0.0,0.0,0.0,0.0,0.0,0.0,0.0,0.0,0.0,0.0,0.0,0.0,0.0,0.0,0.0,0.0,0.0,0.0,0.0,0.0,0.0,0.0,0.0,0.0,0.0,0.0,0.0,0.0,0.0,0.0,0.0,0.0,0.0,0.0,0.0,0.0,0.0,0.0,0.0,0.0,0.0,0.0,0.0,0.0,0.0,0.0,0.0,0.0,0.0,0.0,0.0,0.0,0.0,0.0,0.0,0.0,0.0,0.0,0.0,0.0,0.0,0.0,0.0,0.0,0.0,0.0,0.0,0.0,0.0,0.0,0.0,0.0,0.0,0.0,0.0,0.0,0.0,0.0,0.0,0.0,0.0,0.0,0.0,0.0,0.0,0.0,0.0,0.0,0.0,0.0,0.0,0.0,0.0,0.0,0.0,0.0,0.0,0.0,0.0,0.0,0.0,0.0,0.0,0.0,0.0,0.0,0.0,0.0,0.0,0.0,0.0,0.0,0.0,0.0,0.0,0.0,0.0,0.0,0.0,0.0,0.0,0.0,0.0,0.0,0.0,0.0,0.0,0.0,0.0,0.0,0.0,0.0,0.0,0.0,0.0,0.0,0.0,0.0,0.0,0.0,0.0,0.0,0.0,0.0,0.0,0.0,0.0,0.0,0.0,0.0,0.0,0.0,0.0,0.0,0.0,0.0,0.0,0.0,0.0,0.0,0.0,0.0,0.0,0.0,0.0,0.0,0.0,0.0,0.0,0.0,0.0,0.0,0.0,0.0,0.0,0.0,0.0,0.0,0.0,0.0,0.0,0.0,0.0,0.0,0.0,0.0,0.0,0.0,0.0,0.0,0.0,0.0,0.0,0.0,0.0,0.0,0.0,0.0,0.0,0.0,0.0,0.0,0.0,0.0,0.0,0.0,0.0,0.0,0.0,0.0,0.0,0.0,0.0,0.0,0.0,0.0,0.0,0.0,0.0,0.0,0.0,0.0,0.0,0.0,0.0,0.0,0.0,0.0,0.0,0.0,0.0,0.0,0.0,0.0,0.0,0.0,0.0,0.0,0.0,0.0,0.0,0.0,0.0,0.0,0.0,0.0,0.0,0.0,0.0,0.0,0.0,0.0,0.0,0.0,0.0,0.0,0.0,0.0,0.0,0.0,0.0,0.0,0.0,0.0,0.0,0.0,0.0,0.0,0.0,0.0,0.0,0.0,0.0,0.0,0.0,0.0,0.0,0.0,0.0,0.0,0.0,0.0,0.0,0.0,0.0,0.0,0.0,0.0,0.0,0.0,0.0,0.0,0.0,0.0,0.0,0.0,0.0,0.0,0.0,0.0,0.0,0.0,0.0,0.0,0.0,0.0,0.0,0.0,0.0,0.0,0.0,0.0,0.0,0.0,0.0,0.0,0.0,0.0,0.0,0.0,0.0,0.0,0.0,0.0,0.0,0.0,0.0,0.0,0.0,0.0,0.0,0.0,0.0,0.0,0.0,0.0,0.0,0.0,0.0,0.0,0.0,0.0,0.0,0.0,0.0,0.0,0.0,0.0,0.0,0.0,0.0,0.0,0.0,0.0,0.0,0.0,0.0,0.0,0.0,0.0,0.0,0.0,0.0,0.0,0.0,0.0,0.0,0.0,0.0,0.0,0.0,0.0,0.0,0.0,0.0,0.0,0.0,0.0,0.0,0.0,0.0,0.0,0.0,0.0,0.0,0.0,0.0,0.0,0.0,0.0,0.0,0.0,0.0,0.0,0.0,0.0,0.0,0.0,0.0,0.0,0.0,0.0,0.0,0.0,0.0,0.0,0.0,0.0,0.0,0.0,0.0,0.0,0.0,0.0,0.0,0.0,0.0,0.0,0.0,0.0,0.0,0.0,0.0,0.0,0.0,0.0,0.0,0.0,0.0,0.0,0.0,0.0,0.0,0.0,0.0,0.0,0.0,0.0,0.0,0.0,0.0,0.0,0.0,0.0,0.0,0.0,0.0,0.0,0.0,0.0,0.0,0.0,0.0,0.0,0.0,0.0,0.0,0.0,0.0,0.0,0.0,0.0,0.0,0.0,0.0,0.0,0.0,0.0,0.0,0.0,0.0,0.0,0.0,0.0,0.0,0.0,0.0,0.0,0.0,0.0,0.0,0.0,0.0,0.0,0.0,0.0,0.0,0.0,0.0,0.0,0.0,0.0,0.0,0.0,0.0,0.0,0.0,0.0,0.0,0.0,0.0,0.0,0.0,0.0,0.0,0.0,0.0,0.0,0.0,0.0,0.0,0.0,0.0,0.0,0.0,0.0,0.0,0.0,0.0,0.0,0.0,0.0,0.0,0.0,0.0,0.0,0.0,0.0,0.0,0.0,0.0,0.0,0.0,0.0,0.0,0.0,0.0,0.0,0.0,0.0,0.0,0.0,0.0,0.0,0.0,0.0,0.0,0.0,0.0,0.0,0.0,0.0,0.0,0.0,0.0,0.0,0.0,0.0,0.0,0.0,0.0,0.0,0.0,0.0,0.0,0.0,0.0,0.0,0.0,0.0,0.0,0.0,0.0,0.0,0.0,0.0,0.0,0.0,0.0,0.0,0.0,0.0,0.0,0.0,0.0,0.0,0.0,0.0,0.0,0.0,0.0,0.0,0.0,0.0,0.0,0.0,0.0,0.0,0.0,0.0,0.0,0.0,0.0,0.0,0.0,0.0,0.0,0.0,0.0,0.0,0.0,0.0,0.0,0.0,0.0,0.0,0.0,0.0,0.0,0.0,0.0,0.0,0.0,0.0,0.0,0.0,0.0,0.0,0.0,0.0,0.0,0.0,0.0,0.0,0.0,0.0,0.0,0.0,0.0,0.0,0.0,0.0,0.0,0.0,0.0,0.0,0.0,0.0,0.0,0.0,0.0,0.0,0.0,0.0,0.0,0.0,0.0,0.0,0.0,0.0,0.0,0.0,0.0,0.0,0.0,0.0,0.0,0.0,0.0,0.0,0.0,0.0,0.0,0.0,0.0,0.0,0.0,0.0,0.0,0.0,0.0,0.0,0.0,0.0,0.0,0.0,0.0,0.0,0.0,0.0,0.0,0.0,0.0,0.0,0.0,0.0,0.0,0.0,0.0,0.0,0.0,0.0,0.0,0.0,0.0,0.0,0.0,0.0,0.0,0.0,0.0,0.0,0.0,0.0,0.0,0.0,0.0,0.0,0.0,0.0,0.0,0.0,0.0,0.0,0.0,0.0,0.0,0.0,0.0,0.0,0.0,0.0,0.0,0.0,0.0,0.0,0.0,0.0,0.0,0.0,0.0,0.0,0.0,0.0,0.0,0.0,0.0,0.0,0.0,0.0,0.0,0.0,0.0,0.0,0.0,0.0,0.0,0.0,0.0,0.0,0.0,0.0,0.0,0.0,0.0,0.0,0.0,0.0,0.0,0.0,0.0,0.0,0.0,0.0,0.0,0.0,0.0,0.0,0.0,0.0,0.0,0.0,0.0,0.0,0.0,0.0,0.0,0.0,0.0,0.0,0.0,0.0,0.0,0.0,0.0,0.0,0.0,0.0,0.0,0.0,0.0,0.0,0.0,0.0,0.0,0.0,0.0,0.0,0.0,0.0,0.0,0.0,0.0,0.0,0.0,0.0,0.0,0.0,0.0,0.0,0.0,0.0,0.0,0.0,0.0,0.0,0.0,0.0,0.0,0.0,0.0,0.0,0.0,0.0,0.0,0.0,0.0,0.0,0.0,0.0,0.0,0.0,0.0,0.0,0.0,0.0,0.0,0.0,0.0,0.0,0.0,0.0,0.0,0.0,0.0,0.0,0.0,0.0,0.0,0.0,0.0,0.0,0.0,0.0,0.0,0.0,0.0,0.0,0.0,0.0,0.0,0.0,0.0,0.0,0.0,0.0,0.0,0.0,0.0,0.0,0.0,0.0,0.0,0.0,0.0,0.0,0.0,0.0,0.0,0.0,0.0,0.0,0.0,0.0,0.0,0.0,0.0,0.0,0.0,0.0,0.0,0.0,0.0,0.0,0.0,0.0,0.0,0.0,0.0,0.0,0.0,0.0,0.0,0.0,0.0,0.0,0.0,0.0,0.0,0.0,0.0,0.0,0.0,0.0,0.0,0.0,0.0,0.0,0.0,0.0,0.0,0.0,0.0,0.0,0.0,0.0,0.0,0.0,0.0,0.0,0.0,0.0,0.0,0.0,0.0,0.0,0.0,0.0,0.0,0.0,0.0,0.0,0.0,0.0,0.0,0.0,0.0,0.0,0.0,0.0,0.0,0.0,0.0,0.0,0.0,0.0,0.0,0.0,0.0,0.0,0.0,0.0,0.0,0.0,0.0,0.0,0.0,0.0,0.0,0.0,0.0,0.0,0.0,0.0,0.0,0.0,0.0,0.0,0.0,0.0,0.0,0.0,0.0,0.0,0.0,0.0,0.0,0.0,0.0,0.0,0.0,0.0,0.0,0.0,0.0,0.0,0.0,0.0,0.0,0.0,0.0,0.0,0.0,0.0,0.0,0.0,0.0,0.0,0.0,0.0,0.0,0.0,0.0,0.0,0.0,0.0,0.0,0.0,0.0,0.0,0.0,0.0,0.0,0.0,0.0,0.0,0.0,0.0,0.0,0.0,0.0,0.0,0.0,0.0,0.0,0.0,0.0,0.0,0.0,0.0,0.0,0.0,0.0,0.0,0.0,0.0,0.0,0.0,0.0,0.0,0.0,0.0,0.0,0.0,0.0,0.0,0.0,0.0,0.0,0.0,0.0,0.0,0.0,0.0,0.0,0.0,0.0,0.0,0.0,0.0,0.0,0.0,0.0,0.0,0.0,0.0,0.0,0.0,0.0,0.0,0.0,0.0,0.0,0.0,0.0,0.0,0.0,0.0,0.0,1.8397,1.729,0.0,0.0,0.0,0.0,0.0,0.0,0.0,0.0,0.0,0.0,0.0,0.0,0.0,0.0,0.0,0.0,0.0,0.0,0.0,0.0,0.0,0.0,0.0,0.6866,0.7105,0.7918,0.8219,0.8456,0.8675,0.0,0.0,0.0,0.0,0.0,0.8311,0.855,0.8856,0.9226,0.9881,1.0619,1.1448,1.1796,1.1615,1.1001,0.0,0.0,0.0,0.0,0.0,0.0,0.0,0.0,0.0,0.0,0.0,0.0,0.0,0.0,0.0,0.0,0.0,0.0,0.0,0.0,0.0,0.0,0.0,0.0,0.0,0.0,0.0,0.0,0.0,0.0,0.0,0.0,0.0,0.0,0.0,0.0,0.0,0.0,0.0,0.0,0.0,0.0,0.0,0.0,0.0,0.0,0.0,0.0,0.0,0.0,0.0,0.0,0.0,0.0,0.0,0.0,0.0,0.0,0.0,0.0,0.0,0.0,0.0,0.0,0.0,0.0,0.0,0.0,0.0,0.0,2.0919,2.0217,0.0,0.0,0.0,0.0,0.0,0.0,0.0,0.0,0.0,0.0,0.0,0.0,0.0,0.0,0.0,0.0,0.0,0.0,0.0,0.0,0.0,0.6259,0.7064,0.7182,0.7584,0.8549,0.8985,0.9254,0.938,0.0,0.0,0.0,0.0,0.9064,0.8725,0.9144,0.9652,1.0197,1.1137,1.236,1.3824,1.4454,0.0,0.0,1.2636,0.0,0.0,0.0,0.0,0.0,0.0,0.0,0.0,0.0,0.0,0.0,0.0,0.0,0.0,0.0,0.0,0.0,0.0,0.0,0.0,0.0,0.0,0.0,0.0,0.0,0.0,0.0,0.0,0.0,0.0,0.0,0.0,0.0,0.0,0.0,0.0,0.0,0.0,0.0,0.0,0.0,0.0,0.0,0.0,0.0,0.0,0.0,0.0,0.0,0.0,0.0,0.0,0.0,0.0,0.0,0.0,0.0,0.0,0.0,0.0,0.0,0.0,0.0,2.8705,2.663,2.4945,2.5157,2.5075,2.4671,2.3584,2.358,2.4058,2.2066,0.0,0.0,0.0,0.0,0.0,0.0,0.0,0.0,0.0,0.0,0.0,0.0,0.0,0.0,0.0,0.0,0.0,0.0,0.0,0.6454,0.7268,0.7525,0.8257,0.9803,0.9701,0.9816,1.0466,0.0,0.0,0.0,0.9792,0.9981,1.0368,1.0432,1.0743,1.1293,1.2839,1.4381,1.5942,0.0,0.0,0.0,1.4946,1.4178,0.0,0.0,0.0,0.0,0.0,0.0,0.0,0.0,0.0,0.0,0.0,0.0,0.0,0.0,0.0,0.0,0.0,0.0,0.0,0.0,0.0,0.0,0.0,0.0,0.0,0.0,0.0,0.0,0.0,0.0,0.0,0.0,0.0,0.0,0.0,0.0,0.0,0.0,0.0,0.0,0.0,0.0,1.5114,1.6365,0.0,0.0,0.0,0.0,0.0,0.0,0.0,0.0,0.0,0.0,0.0,0.0,0.0,2.4014,2.94,3.078,3.2065,3.3084,3.0918,2.9592,2.8998,2.8075,2.7624,2.7544,2.7384,0.0,2.4006,2.442,0.0,0.0,0.0,0.0,0.0,0.0,0.0,0.0,0.0,0.0,0.0,0.0,0.0,0.0,0.0,0.0,0.0,0.0,0.0,0.0,0.0,0.8572,0.9344,1.0754,1.0705,1.0645,0.0,0.0,0.0,1.0406,1.0138,1.0534,1.1633,1.1369,1.1689,1.2696,1.5025,0.0,0.0,0.0,0.0,0.0,0.0,0.0,0.0,0.0,0.0,0.0,0.0,0.0,0.0,0.0,0.0,0.0,0.0,0.0,0.0,0.0,0.0,0.0,0.0,0.0,0.0,0.0,0.0,0.0,0.0,0.0,0.0,0.0,0.0,0.0,0.0,0.0,0.0,0.0,0.0,0.0,0.0,0.0,0.0,0.0,0.0,0.0,0.0,1.4816,1.7103,1.7502,1.8587,1.8899,0.0,0.0,0.0,0.0,0.0,0.0,0.0,0.0,0.0,2.3999,2.4642,2.7829,3.3709,3.3769,3.4053,3.4607,3.2883,3.1266,2.981,2.93,2.9051,2.9051,2.9051,2.8167,2.6659,2.6105,2.577,2.5554,0.0,0.0,0.0,0.0,2.6243,2.6572,0.0,0.0,0.0,0.0,0.0,0.0,0.0,0.0,0.0,0.0,0.0,0.0,0.8877,0.9393,1.0134,1.1488,0.0,0.0,0.0,0.0,0.0,1.0778,1.034,1.0772,1.2149,1.2226,1.2838,0.0,0.0,0.0,0.0,0.0,0.0,0.0,0.0,0.0,0.0,0.0,0.0,0.0,0.0,0.0,0.0,0.0,0.0,0.0,0.0,0.0,0.0,0.0,0.0,0.0,0.0,0.0,0.0,0.0,0.0,0.0,0.0,0.0,0.0,0.0,0.0,0.0,0.0,0.0,0.0,0.0,0.0,0.0,0.0,0.0,0.0,0.0,0.0,0.0,0.0,1.6597,1.8506,1.8562,1.9901,2.0326,0.0,0.0,0.0,0.0,0.0,0.0,2.3138,2.5537,2.7896,3.0178,2.949,3.115,3.5459,3.5504,3.5504,3.5489,3.4816,3.3485,3.1598,3.1187,3.0868,3.0649,3.0649,3.0175,2.9377,2.7773,2.7682,2.8418,2.7541,2.7802,2.8712,2.9714,2.9879,2.9879,0.0,0.0,0.0,0.0,0.0,0.0,0.0,0.0,0.0,0.0,0.0,0.7548,0.0,0.0,0.0,0.0,0.0,0.0,0.0,0.0,0.0,1.0703,1.0322,1.0598,1.1634,1.325,0.0,0.0,0.0,0.0,0.0,0.0,0.0,0.0,0.0,0.0,0.0,0.0,0.0,0.0,0.0,0.0,0.0,0.0,0.0,0.0,0.0,0.0,0.0,0.0,0.0,0.0,0.0,0.0,0.0,0.0,0.0,0.0,0.0,0.0,0.0,0.0,0.0,0.0,0.0,0.0,0.0,0.0,0.0,0.0,0.0,0.0,0.0,0.0,0.0,0.0,0.0,0.0,0.0,1.9853,2.1681,0.0,0.0,0.0,0.0,2.1806,2.354,2.5274,2.6692,2.7296,2.9578,3.3811,3.3455,3.3933,3.5489,3.5504,3.5504,3.5519,3.6671,3.6977,3.6393,3.5006,3.3832,3.2856,3.2856,3.2225,3.1178,2.9654,2.932,2.9707,2.9822,3.0454,3.1287,3.1347,3.1809,3.2332,0.0,0.0,0.0,0.5108,0.5108,0.5126,0.5162,0.5306,0.5579,0.6022,0.6757,0.0,0.0,0.0,0.0,0.0,0.0,0.0,0.0,0.0,1.1551,1.2172,1.1459,1.1755,1.3192,1.4779,0.0,0.0,0.0,0.0,0.0,0.0,0.0,0.0,0.0,0.0,0.0,0.0,0.0,0.0,0.0,0.0,0.0,0.0,0.0,0.0,0.0,0.0,0.0,0.0,0.0,0.0,0.0,0.0,0.0,0.0,0.0,0.0,0.0,0.0,0.0,0.0,0.0,0.0,0.0,0.0,0.0,0.0,0.0,0.0,0.0,0.0,0.0,0.0,0.0,0.0,0.0,0.0,0.0,2.2413,2.4222,0.0,2.349,2.4249,2.4622,2.4164,2.6724,2.8473,2.8799,2.9709,3.0925,3.2542,3.4025,3.5026,3.5504,3.718,3.8018,3.8018,3.7614,3.7035,3.6374,3.5835,3.4692,3.3027,3.3027,3.2395,3.1323,3.0836,3.1046,3.173,3.2053,3.2809,3.3689,3.3981,3.4233,3.4442,0.4991,0.503,0.0,0.4873,0.4912,0.4992,0.5067,0.5186,0.5533,0.6299,0.6941,0.7794,0.0,0.0,0.0,0.0,0.0,0.0,0.0,0.0,1.175,1.2387,1.2289,1.2949,1.4531,0.0,0.0,0.0,0.0,0.0,0.0,0.0,0.0,0.0,0.0,0.0,0.0,0.0,0.0,0.0,0.0,0.0,1.7102,0.0,0.0,0.0,0.0,0.0,0.0,0.0,0.0,0.0,0.0,0.0,0.0,0.0,0.0,0.0,0.0,0.0,0.0,0.0,0.0,0.0,0.0,0.0,0.0,0.0,0.0,0.0,0.0,0.0,0.0,0.0,0.0,0.0,0.0,0.0,2.3541,2.4124,2.5981,2.6529,2.4957,2.5807,2.6499,2.6427,2.8911,3.0235,2.9844,3.0803,3.1296,3.1084,3.3762,3.5501,3.6148,3.8332,3.9424,3.9409,3.8512,3.7789,3.7317,3.7317,3.6315,3.4603,3.4603,3.382,3.249,3.249,3.2654,3.2956,3.3525,3.4335,3.528,3.5948,3.6148,3.6148,0.4745,0.4893,0.4912,0.4386,0.4507,0.4706,0.4792,0.5135,0.5851,0.7204,0.7273,0.0,0.0,0.0,0.0,0.0,0.0,0.0,0.0,1.1059,1.1255,1.1291,1.2757,1.4145,0.0,0.0,0.0,0.0,0.0,0.0,0.0,0.0,0.0,0.0,0.0,0.0,0.0,0.0,0.0,0.0,0.0,0.0,1.9456,0.0,0.0,0.0,0.0,0.0,0.0,0.0,0.0,0.0,0.0,0.0,0.0,0.0,0.0,0.0,0.0,0.0,0.0,0.0,0.0,0.0,0.0,0.0,0.0,0.0,0.0,0.0,0.0,0.0,0.0,0.0,0.0,0.0,2.1749,2.3502,2.4908,2.4946,2.6854,2.7733,2.6666,2.8034,2.8913,2.8775,2.9917,3.0394,2.9854,3.052,3.0595,2.9867,3.289,3.5449,3.7327,3.8609,3.928,3.9382,3.9382,3.9382,3.9484,3.9484,3.8856,3.7886,3.7886,3.6688,3.469,3.469,3.405,3.3212,3.4065,3.498,3.5971,3.6976,3.7336,3.7404,0.4466,0.4466,0.4466,0.4333,0.4374,0.4497,0.476,0.4902,0.5353,0.6392,0.0,0.0,0.0,0.0,0.0,0.0,0.0,0.0,1.1466,0.0,1.1819,1.3237,1.4372,0.0,0.0,0.0,0.0,0.0,0.0,0.0,0.0,0.0,0.0,0.0,0.0,0.0,0.0,0.0,0.0,0.0,0.0,0.0,2.129,0.0,0.0,0.0,0.0,0.0,0.0,0.0,0.0,0.0,0.0,0.0,0.0,0.0,0.0,0.0,0.0,0.0,0.0,0.0,0.0,0.0,0.0,0.0,0.0,0.0,0.0,0.0,0.0,0.0,0.0,0.0,0.0,2.471,2.4015,2.546,2.6904,2.7708,2.8712,2.9214,2.8913,2.9654,3.0131,3.0093,3.0545,3.0746,3.0595,3.1286,3.1461,3.0972,3.2137,3.3927,3.6471,3.6387,3.7175,3.8828,3.8913,3.965,4.0846,4.0846,4.0258,3.9275,3.9275,3.7802,3.5368,3.5368,3.4484,3.3164,3.3684,3.4018,3.4434,3.5811,3.6752,3.7404,0.4191,0.4232,0.4232,0.4007,0.4171,0.4396,0.4606,0.4737,0.5224,0.6384,0.0,0.0,0.0,0.0,0.0,0.0,0.0,0.0,1.0474,1.0802,1.1822,0.0,0.0,0.0,0.0,0.0,0.0,0.0,0.0,0.0,0.0,0.0,0.0,0.0,0.0,0.0,0.0,0.0,0.0,0.0,0.0,0.0,2.3077,2.0797,2.0267,2.0529,1.9127,1.8118,1.7424,1.7578,0.0,0.0,0.0,0.0,0.0,0.0,0.0,0.0,0.0,0.0,0.0,0.0,0.0,0.0,0.0,0.0,0.0,0.0,0.0,0.0,0.0,0.0,0.0,0.0,2.5738,2.6969,2.6571,2.7369,2.8298,2.9189,2.9792,3.0143,3.0143,3.062,3.0947,3.0947,3.1248,3.1411,3.1348,3.2039,3.2554,3.278,3.3411,3.4765,3.6647,3.6429,3.7234,3.901,3.9068,3.993,4.1384,4.1384,4.105,4.0466,3.9967,3.851,3.6542,3.6048,3.5033,3.3758,0.0,0.0,0.0,0.0,3.7733,3.8257,0.3911,0.4048,0.4068,0.3584,0.397,0.4369,0.4381,0.4621,0.5325,0.6786,0.0,0.0,0.0,0.0,0.0,0.0,0.0,0.0,0.0,0.0,0.0,0.0,0.0,0.0,0.0,0.0,0.0,0.0,0.0,0.0,0.0,0.0,0.0,0.0,0.0,0.0,0.0,0.0,0.0,0.0,0.0,0.0,2.4422,2.2278,2.1758,2.191,2.0382,1.9205,1.8546,1.8865,0.0,0.0,0.0,0.0,0.0,0.0,0.0,0.0,0.0,0.0,0.0,0.0,0.0,0.0,0.0,0.0,0.0,0.0,0.0,0.0,0.0,0.0,0.0,0.0,2.8049,2.9241,2.9114,2.9164,2.9377,2.9829,3.0369,3.0708,3.0708,3.1173,3.1486,3.1486,3.2064,3.2365,3.2227,0.0,0.0,0.0,0.0,3.6452,3.7056,3.7398,3.8173,3.9321,3.9482,4.0191,4.1426,4.1594,4.1594,4.1517,4.0342,3.9215,3.7978,3.6903,3.5696,3.4715,3.4692,3.5316,3.6498,3.8512,3.9327,3.94,0.3584,0.3626,0.3626,0.3527,0.3813,0.4141,0.4355,0.4621,0.5325,0.6786,0.6979,0.0,0.0,0.0,0.0,0.0,0.0,0.0,0.0,0.0,0.0,0.0,0.0,0.0,0.0,0.0,0.0,0.0,0.0,0.0,0.0,0.0,0.0,0.0,0.0,0.0,0.0,0.0,0.0,0.0,0.0,0.0,2.3413,2.1731,2.1187,2.113,2.0041,1.9946,2.0318,2.0045,1.999,1.9826,1.8748,0.0,0.0,0.0,0.0,0.0,0.0,0.0,0.0,0.0,0.0,0.0,0.0,0.0,0.0,0.0,0.0,0.0,0.0,0.0,0.0,2.6936,2.8581,2.9795,3.0218,3.0645,3.0796,3.0495,3.0922,3.1248,3.1248,3.1738,3.2051,3.2051,3.3131,3.3784,3.3746,3.4437,3.4939,3.5152,3.5059,3.5099,3.5251,3.5251,3.6116,3.7765,3.8696,0.0,4.157,4.2515,4.2955,4.2877,4.1747,4.0333,3.8696,3.7591,3.6133,3.47,3.4743,3.5308,3.6463,3.7785,3.8851,3.961,0.3506,0.3506,0.3552,0.3721,0.3995,0.4282,0.4548,0.487,0.5478,0.6653,0.6807,0.0,0.0,0.0,0.0,0.0,0.0,0.0,0.0,0.0,0.0,0.0,0.0,0.0,0.0,0.0,0.0,0.0,0.0,0.0,0.0,0.0,0.0,0.0,0.0,0.0,0.0,0.0,0.0,0.0,0.0,0.0,2.2851,2.2317,2.2184,2.2062,2.1097,2.0688,2.0602,2.0362,2.0064,1.9705,1.9322,1.8627,1.7824,0.0,0.0,0.0,0.0,0.0,0.0,0.0,0.0,0.0,0.0,0.0,0.0,0.0,0.0,2.3885,2.531,0.0,2.772,2.9114,3.0043,3.0683,3.0959,3.1461,3.1599,3.1072,3.1474,3.18,3.18,3.2566,3.3056,3.3056,3.3922,3.4449,3.4449,3.4788,3.5115,3.5391,3.5228,3.5265,3.5542,3.5542,3.6286,3.7672,3.891,4.0181,4.167,4.2805,4.2981,4.2386,4.1253,3.9865,3.8458,3.7338,3.631,3.5542,3.5542,3.5891,3.6392,3.7547,3.8625,3.9672,0.3579,0.3592,0.3687,0.3951,0.4255,0.4542,0.4774,0.509,0.5598,0.6473,0.6587,0.6927,0.7789,0.7882,0.7928,0.0,0.0,0.0,0.0,0.0,0.0,0.0,0.0,0.0,0.0,0.0,0.0,0.0,0.0,0.0,0.0,0.0,0.0,0.0,0.0,0.0,0.0,0.0,0.0,0.0,0.0,0.0,2.266,2.2882,2.2993,2.2776,2.1734,2.0937,2.0314,2.0215,1.9736,1.9108,1.9425,1.9107,1.8548,1.7971,1.7513,0.0,0.0,0.0,0.0,0.0,0.0,0.0,0.0,0.0,2.2455,2.4519,2.5485,2.649,2.826,2.9038,2.9842,3.1173,3.1486,3.1549,3.1549,3.2026,3.2215,3.1763,3.2114,3.2428,3.2528,3.337,3.3935,3.4048,3.4575,3.4876,3.4876,3.4989,3.5253,3.5692,3.5705,3.5918,3.6358,3.6358,3.6896,3.7756,3.9006,4.0045,4.0986,4.2111,4.2126,4.1169,4.0059,3.8827,3.7678,3.6803,3.6358,3.6358,3.6358,3.6335,3.6472,3.756,3.8477,3.9304,0.3891,0.3945,0.3951,0.3985,0.4422,0.4774,0.4801,0.509,0.5598,0.6473,0.6587,0.6927,0.7789,0.7882,0.8094,0.8664,0.0,0.0,0.0,0.0,0.0,0.0,0.0,0.0,0.0,0.0,0.0,0.0,0.0,0.0,0.0,0.0,0.0,0.0,0.0,0.0,0.0,0.0,0.0,0.0,0.0,0.0,2.2969,2.232,2.1808,2.1293,2.0024,1.9727,1.9902,1.9568,1.9586,1.9812,1.9767,1.9347,1.8926,1.9124,0.0,1.7156,1.9433,2.0548,2.1606,2.3665,2.31,2.3088,0.0,0.0,2.6302,2.8021,2.9227,3.0043,3.0281,3.0758,3.1173,3.1361,3.18,3.2127,3.2127,3.2616,3.2955,3.2905,3.2943,3.3169,3.3658,3.3822,3.411,3.4587,3.514,3.5454,3.5454,3.5918,3.6207,3.627,3.627,3.6295,3.6358,3.6358,3.6452,3.6628,3.7756,3.8379,3.8545,3.9711,4.0246,3.9972,3.8827,3.7678,3.6534,3.6452,3.6358,3.6358,3.6358,3.6377,3.6531,3.7664,3.8179,3.8367,0.3938,0.4133,0.4275,0.4442,0.4648,0.4867,0.507,0.5197,0.5471,0.6012,0.6233,0.6586,0.7088,0.7301,0.7596,0.8243,0.8724,0.0,0.0,0.0,0.0,0.0,0.0,0.0,0.0,0.0,0.0,0.0,0.0,0.0,0.0,0.0,0.0,0.0,0.0,0.0,0.0,0.0,0.0,0.0,0.0,0.0,2.295,2.14,2.0838,2.0703,1.9658,1.9051,0.0,0.0,1.8277,1.8447,1.8665,1.838,1.7954,1.825,1.816,0.0,2.2142,0.0,0.0,0.0,2.5931,2.592,2.8775,2.8322,2.7883,2.9924,2.9622,2.9439,3.1228,3.1119,3.1185,0.0,3.2566,3.2717,3.2717,3.2918,3.2955,3.2616,3.2867,3.3294,3.3847,3.4186,3.4613,3.5165,3.5717,3.6019,3.6019,3.6232,3.6358,3.6358,3.6358,3.6358,3.6358,3.6358,3.6521,3.6835,3.7987,3.8714,3.9137,4.0291,4.0486,3.9784,3.8587,3.7769,3.7299,3.6973,3.6835,3.681,3.6483,3.6358,3.6452,3.6883,3.7494,3.8158,0.4039,0.4262,0.4522,0.486,0.4927,0.503,0.5275,0.5309,0.5384,0.5671,0.6008,0.6337,0.6667,0.6894,0.7224,0.7829,0.8397,0.9185,0.0,0.0,0.0,0.0,0.0,0.0,0.0,0.0,0.0,0.0,0.0,0.0,0.0,0.0,0.0,0.0,0.0,0.0,0.0,0.0,0.0,0.0,0.0,0.0,2.1789,2.0095,1.957,1.9707,1.9165,1.8301,0.0,0.0,1.6836,1.6924,1.7328,1.7307,1.7212,1.7997,1.9033,2.0459,2.2822,0.0,0.0,2.6707,2.7252,2.7552,2.8923,2.8666,2.855,3.0241,2.9258,2.8756,3.1247,3.1064,3.0841,3.2142,3.2921,3.3158,3.2636,3.2884,3.2918,3.2503,3.2679,3.3119,3.3834,3.4399,3.4951,3.5504,3.6056,3.6358,3.6358,3.6358,3.6433,3.6584,3.6584,3.6659,3.681,3.681,3.7023,3.7412,3.8216,3.8899,3.9316,4.0201,4.012,3.9219,3.8383,3.8002,3.7977,3.7575,3.7412,3.7362,3.681,3.6584,3.6571,3.642,3.6883,3.7586,0.4275,0.4395,0.4589,0.5164,0.5295,0.5302,0.5309,0.5309,0.5384,0.5671,0.6008,0.6411,0.6947,0.6979,0.7224,0.7829,0.821,0.8884,1.0053,1.0962,0.0,0.0,0.0,0.0,0.0,0.0,0.0,0.0,0.0,0.0,0.0,0.0,0.0,0.0,0.0,0.0,0.0,0.0,0.0,0.0,0.0,0.0,1.9167,1.8346,1.7957,1.7787,1.7992,0.0,0.0,0.0,1.5469,1.5537,1.6017,1.6429,0.0,1.923,2.1144,0.0,0.0,0.0,2.4379,2.5271,2.6157,2.7086,2.7662,2.8165,2.8612,2.8645,2.8746,2.9112,3.0265,3.0536,3.0548,3.0462,3.2425,3.3219,3.1472,3.2326,3.3068,3.3056,3.2566,3.2679,0.0,3.4399,3.4951,3.5504,3.6056,3.6358,3.6358,3.6358,3.6609,3.7149,3.7161,3.7412,3.7952,3.7952,3.7965,3.799,3.7977,3.8088,3.8101,3.8101,3.8101,3.8002,3.8002,3.8002,3.8002,3.799,3.799,3.7927,3.7374,3.7161,3.7098,3.6558,3.6452,3.6452,0.4329,0.4528,0.4787,0.521,0.5309,0.5309,0.5309,0.5309,0.5384,0.5671,0.6139,0.0,0.0,0.0,0.0,0.0,0.8203,0.8791,0.9766,1.0828,0.0,0.0,0.0,0.0,0.0,0.0,0.0,0.0,0.0,0.0,0.0,0.0,0.0,0.0,0.0,0.0,0.0,0.0,0.0,0.0,0.0,0.0,1.8974,1.7375,1.6809,1.6803,0.0,0.0,0.0,0.0,0.0,0.0,1.5166,0.0,0.0,1.7989,0.0,0.0,0.0,0.0,2.4513,2.6915,2.7228,2.7241,2.8521,2.8412,2.8077,2.8656,2.7425,2.6873,2.8593,2.8262,2.8363,3.0217,3.1496,3.2272,3.245,3.342,3.3759,3.2641,3.2993,0.0,0.0,0.0,0.0,3.5386,3.5717,3.6132,3.6872,3.691,3.7161,3.7713,3.7726,3.7814,3.8002,3.8002,3.8203,3.858,3.8944,3.9132,3.9132,3.9132,3.9132,3.9132,3.9132,3.9132,3.9094,3.873,3.858,3.853,3.7952,3.7726,3.7663,3.7111,3.691,3.686,0.4502,0.4681,0.49,0.523,0.5309,0.0,0.0,0.0,0.0,0.0,0.0,0.0,0.0,0.0,0.0,0.0,0.0,0.8544,0.9319,0.0,0.0,0.0,0.0,0.0,0.0,0.0,0.0,0.0,0.0,0.0,0.0,0.0,0.0,0.0,0.0,0.0,0.0,0.0,0.0,0.0,0.0,0.0,1.6815,1.519,1.4697,0.0,0.0,0.0,0.0,0.0,0.0,0.0,0.0,0.0,0.0,0.0,0.0,2.1124,0.0,2.3931,2.4395,2.6759,2.6919,2.6713,2.7657,2.7233,2.6786,2.6971,2.5634,2.4856,2.639,2.612,2.6238,2.8389,2.985,3.0937,3.1305,3.244,3.2883,3.1757,3.2552,3.2941,0.0,0.0,0.0,3.5203,3.5805,3.6445,3.7149,3.7374,3.7726,3.8304,3.8316,3.8404,3.8605,3.8605,3.8793,3.917,3.9521,3.9697,3.9697,3.9697,3.9697,3.9697,3.9697,3.9697,3.9672,3.932,3.917,3.9107,3.8542,3.8316,3.8253,3.7676,3.7349,3.7098,0.4754,0.4821,0.492,0.0,0.0,0.0,0.0,0.0,0.0,0.0,0.0,0.0,0.0,0.0,0.0,0.0,0.0,0.0,0.0,0.0,0.0,0.0,0.0,0.0,0.0,1.1837,0.0,0.0,0.0,0.0,0.0,0.0,0.0,0.0,0.0,0.0,0.0,0.0,0.0,0.0,0.0,0.0,1.3046,1.2178,0.0,0.0,0.0,0.0,0.0,0.0,0.0,0.0,0.0,0.0,0.0,0.0,0.0,2.2021,2.249,2.3223,2.4053,2.4893,2.54,2.5596,2.5166,2.5039,2.4766,2.3896,2.3379,2.3256,0.0,0.0,2.4451,2.5194,2.7708,2.9227,2.838,2.9742,3.0726,0.0,0.0,0.0,0.0,0.0,0.0,3.4566,0.0,3.7174,3.7262,3.7764,3.8316,3.8894,3.8906,3.917,3.9685,3.9697,3.9697,3.9697,3.9697,3.9697,3.9697,3.9697,3.9697,3.9697,3.9697,3.9697,3.9697,3.9697,3.9697,3.9647,3.912,3.8906,3.8843,3.8266,3.7713,3.7186,0.0,0.0,0.0,0.0,0.0,0.0,0.0,0.0,0.0,0.0,0.0,0.0,0.0,0.0,0.0,0.0,0.0,0.0,0.0,0.0,0.0,0.0,0.0,0.0,0.0,0.0,0.0,0.0,0.0,0.0,0.0,0.0,0.0,0.0,0.0,0.0,0.0,0.0,0.0,0.0,0.0,0.0,1.2164,0.0,0.0,0.0,0.0,0.0,0.0,0.0,0.0,0.0,0.0,0.0,2.0019,0.0,0.0,2.2588,2.3643,2.4326,2.4873,2.543,2.54,2.5205,2.5098,2.457,2.3867,2.3018,2.25,2.1948,2.1153,0.0,0.0,2.4367,2.663,0.0,2.9398,3.0896,0.0,0.0,0.0,3.1977,3.1716,3.2659,0.0,0.0,3.5345,3.7123,3.8379,3.858,3.8906,3.9471,3.9484,3.9546,3.9697,3.9697,3.9697,3.9697,3.9697,3.9697,3.9697,3.9697,3.9697,3.9697,3.9697,3.9697,3.9697,3.9697,3.9697,3.9685,3.9534,3.9484,3.9421,3.8856,3.8567,3.8304,0.0,0.0,0.0,0.0,0.0,0.0,0.0,0.0,0.0,0.0,0.0,0.0,0.0,0.0,0.0,0.0,0.0,0.0,0.0,0.0,0.0,0.0,0.0,0.0,0.0,0.0,0.0,0.0,0.0,0.0,0.0,0.0,0.0,0.0,0.0,0.0,0.0,0.0,0.0,0.0,0.0,0.0,0.0,0.0,0.0,0.0,0.0,0.0,0.0,0.0,0.0,1.8672,1.9248,2.0176,2.1221,2.21,0.0,2.3545,2.4453,2.5019,2.543,2.5674,2.54,2.4873,2.4111,2.3428,2.25,2.0869,2.0498,0.0,1.876,0.0,0.0,0.0,0.0,0.0,2.8252,2.9817,3.062,0.0,3.1088,0.0,3.1462,3.2438,3.3578,0.0,3.511,3.6271,3.7841,3.8111,3.8704,3.9685,3.9697,3.9697,3.9697,3.9697,3.9697,3.9697,3.9697,3.9697,3.9697,3.9697,3.9697,3.9697,3.9697,3.9697,3.9697,3.9697,3.9697,3.9697,3.9697,3.9697,3.9647,3.9346,3.9082,3.8781,0.0,0.0,0.0,0.0,0.0,0.0,0.0,0.0,0.0,0.0,0.0,0.0,0.0,0.0,0.0,0.0,0.0,0.0,0.0,0.0,0.0,0.0,0.0,0.0,0.0,0.0,0.0,0.0,0.0,0.0,0.0,0.0,0.0,0.0,0.0,0.0,0.0,0.0,0.0,0.0,0.0,0.0,0.0,0.0,0.0,0.0,0.0,0.0,0.0,0.0,1.6996,1.9686,2.0864,2.1864,2.2852,2.3711,2.4219,2.46,2.5039,2.5439,2.5723,2.5664,2.5312,2.4531,2.2822,2.2012,2.0918,1.8437,0.0,1.7939,1.6714,1.8262,1.9863,2.0469,0.0,2.5264,2.6328,2.7842,2.8857,2.8916,3.0407,3.1459,3.1459,3.2469,3.3955,3.5781,3.4735,3.4843,3.7008,3.7556,3.836,3.9697,3.9697,3.9697,3.9697,3.9697,3.9697,3.9697,3.9697,3.9697,3.9697,3.9697,3.9697,3.9697,3.9697,3.9697,3.9697,3.9697,3.9697,3.9697,3.9697,3.9697,3.9697,3.9697,3.9396,3.8969,0.0,0.0,0.0,0.0,0.0,0.0,0.0,0.6172,0.66,0.0,0.0,0.0,0.0,0.0,0.0,0.0,0.0,0.0,0.0,0.0,0.0,0.0,0.0,0.0,0.0,0.0,0.0,0.0,0.0,0.0,0.0,0.0,0.0,0.0,0.0,0.0,0.0,0.0,0.0,0.0,0.0,0.0,0.0,0.0,0.0,0.0,0.0,0.0,0.0,0.0,1.7456,2.0555,2.1094,2.2325,2.374,2.46,2.4893,2.5049,2.5498,2.5674,2.5644,2.5273,2.4853,2.4082,2.2383,2.1094,0.0,0.0,0.0,1.6338,1.5752,1.7119,0.0,2.0322,0.0,0.0,0.0,0.0,2.8535,0.0,0.0,0.0,0.0,0.0,0.0,0.0,3.1657,3.3738,3.8889,3.9312,3.9465,3.9697,3.9697,3.9697,3.9697,3.9697,3.9697,3.9697,3.9697,3.9697,3.9697,3.9697,3.9697,3.9697,3.9697,3.9697,3.9697,3.9697,3.9697,3.9697,3.9697,3.9697,3.9697,3.9697,3.9634,3.9484,0.0,0.0,0.0,0.0,0.0,0.0,0.0,0.6533,0.6981,0.739,0.745,0.7435,0.7268,0.7114,0.0,0.0,0.0,0.0,0.0,0.0,0.0,0.0,0.0,0.0,0.0,0.0,0.0,0.0,0.0,0.0,0.0,0.0,0.0,0.0,0.0,0.0,0.0,0.0,0.0,0.0,0.0,0.0,0.0,0.0,0.0,0.0,0.0,0.0,0.0,0.0,1.5296,1.8462,2.0129,2.1661,2.2924,2.3044,2.4068,2.5061,2.4692,2.5128,2.5635,2.5176,2.458,2.3525,2.1357,0.0,0.0,0.0,0.0,1.4863,1.4219,0.0,0.0,0.0,0.0,0.0,0.0,0.0,0.0,0.0,0.0,0.0,0.0,0.0,0.0,3.1988,3.2092,3.3304,3.6162,3.7701,3.8582,3.8582,3.9245,3.9697,3.9697,3.9697,3.9697,3.9697,3.9697,3.9697,3.9697,3.9697,3.9697,3.9697,3.9697,3.9697,3.9697,3.9697,3.9697,3.9697,3.9697,3.9697,3.9697,3.9697,3.9697,3.9647,0.0,0.0,0.0,0.0,0.0,0.0,0.0,0.6834,0.7261,0.7936,0.8029,0.7909,0.7595,0.7295,0.7308,0.0,0.0,0.0,0.0,0.0,0.0,0.0,0.0,0.0,0.0,0.0,0.0,0.0,0.0,0.0,0.0,0.0,0.0,0.0,0.0,0.0,0.0,0.0,0.0,0.0,0.0,0.0,0.0,0.0,0.0,0.0,0.0,0.0,0.0,0.0,1.2699,1.5313,1.7763,1.9935,2.1463,2.1465,2.2751,2.4239,2.4073,2.4641,2.5198,2.4964,2.4355,2.3086,2.0391,1.8789,0.0,0.0,1.3941,1.3691,1.3125,0.0,0.0,0.0,0.0,0.0,0.0,0.0,0.0,0.0,0.0,0.0,0.0,0.0,0.0,3.253,3.2644,3.2861,3.3519,3.5825,3.7145,3.7465,3.8582,3.9362,3.9697,3.9697,3.9697,3.9697,3.9697,3.9697,3.9697,3.9697,3.9697,3.9697,3.9697,3.9697,3.9697,3.9697,3.9697,3.9697,3.9697,3.9697,3.9697,3.9697,3.9697,3.9697,0.0,0.0,0.0,0.0,0.0,0.0,0.0,0.6834,0.7335,0.8216,0.8337,0.8216,0.7923,0.7609,0.7493,0.0,0.0,0.0,0.0,0.0,0.0,0.0,0.0,0.0,0.0,0.0,0.0,0.0,0.0,0.0,0.0,0.0,0.0,0.0,0.0,0.0,0.0,0.0,0.0,0.0,0.0,0.0,0.0,0.0,0.0,0.0,0.0,0.0,0.0,0.0,0.0,1.1682,1.3058,1.6438,2.0169,2.1713,0.0,0.0,2.4316,2.4416,2.4012,2.4397,2.4131,2.3008,2.0019,0.0,0.0,1.4535,1.3525,1.3096,1.3389,0.0,0.0,0.0,0.0,0.0,0.0,0.0,0.0,0.0,0.0,0.0,0.0,0.0,0.0,3.1112,3.1112,3.2322,3.4958,3.5398,3.6162,3.7465,3.7571,3.8348,3.9697,3.9697,3.9697,3.9697,3.9697,3.9697,3.9697,3.9697,3.9697,3.9697,3.9697,3.9697,3.9697,3.9697,3.9697,3.9697,3.9697,3.9697,3.9697,3.9697,3.9697,3.9697,0.0,0.0,0.0,0.0,0.0,0.0,0.6486,0.6834,0.7348,0.8257,0.8427,0.8397,0.845,0.8029,0.7531,0.0,0.0,0.0,0.0,0.0,0.0,0.0,0.0,0.0,0.0,0.0,0.0,0.0,0.0,0.0,0.0,0.0,0.0,0.0,0.0,0.0,0.0,0.0,0.0,0.0,0.0,0.0,0.0,0.0,0.0,0.0,0.0,0.0,0.0,0.0,0.0,0.0,1.1069,1.3053,0.0,0.0,1.8875,2.028,2.1273,2.2414,2.3399,2.3222,2.3252,2.2676,1.9912,0.0,1.6445,1.4476,1.3467,1.293,1.3096,1.3477,1.4434,0.0,0.0,0.0,0.0,0.0,0.0,0.0,0.0,0.0,0.0,0.0,3.0889,3.0889,3.0889,3.145,3.255,3.3529,3.4626,3.6162,3.7037,3.8243,3.9697,3.9697,3.9697,3.9697,3.9697,3.9697,3.9697,3.9697,3.9697,3.9697,3.9697,3.9697,3.9697,3.9697,3.9697,3.9697,3.9697,3.9697,3.9697,3.9697,3.9697,3.9697,0.0,0.0,0.0,0.0,0.0,0.5812,0.6486,0.676,0.7221,0.8123,0.8243,0.8323,0.8524,0.8096,0.7378,0.6435,0.6287,0.0,0.0,0.0,0.0,0.0,0.0,0.0,0.0,0.0,0.0,0.0,0.0,0.0,0.0,0.0,0.0,0.0,0.0,0.0,0.0,0.0,0.0,0.0,0.0,0.0,0.0,0.0,0.0,0.0,0.0,0.0,0.0,0.0,0.0,0.0,0.0,0.0,0.0,0.0,1.6468,1.8269,1.955,2.089,2.204,2.2626,2.2475,2.1709,0.0,0.0,1.6074,1.4408,1.3467,1.2881,1.2881,1.3223,1.3984,0.0,1.6184,1.7529,2.0605,0.0,0.0,0.0,0.0,0.0,0.0,0.0,3.0889,3.0889,3.0889,3.0889,3.0889,3.1872,3.3088,3.4626,3.6042,3.7583,3.9025,3.9465,3.9697,3.9697,3.9697,3.9697,3.9697,3.9697,3.9697,3.9697,3.9697,3.9697,3.9697,3.9697,3.9697,3.9697,3.9697,3.9697,3.9697,3.9697,3.9697,3.9697,0.0,0.0,0.0,0.0,0.0,0.0,0.6453,0.6593,0.6914,0.7769,0.7888,0.7888,0.7888,0.7662,0.7006,0.5815,0.5595,0.0,0.0,0.0,0.0,0.0,0.0,0.0,0.0,0.0,0.0,0.0,0.0,0.0,0.0,0.0,0.0,0.0,0.0,0.0,0.0,0.0,0.0,0.0,0.0,0.0,0.0,0.0,0.0,0.0,0.0,0.0,0.0,0.0,0.0,0.0,0.0,0.0,0.0,0.0,1.5018,1.5977,2.0312,2.0135,1.9539,2.296,2.1917,1.988,0.0,1.7617,1.5703,1.4404,1.3467,1.2881,1.2881,1.3223,1.3789,1.4658,1.625,1.8115,2.0273,0.0,0.0,0.0,0.0,0.0,0.0,0.0,3.0889,3.0889,3.0889,0.0,3.0889,3.0889,3.1546,3.3077,3.4515,3.6054,3.7465,3.9025,3.9697,3.9697,3.9697,3.9697,3.9697,3.9697,3.9697,3.9697,3.9697,3.9697,3.9697,3.9697,3.9697,3.9697,3.9697,3.9697,3.9697,3.9697,3.9697,3.9697,0.0,0.0,0.0,0.0,0.0,0.0,0.0,0.5992,0.6306,0.7151,0.7264,0.7424,0.7842,0.7649,0.7006,0.5815,0.559,0.0,0.0,0.0,0.0,0.0,0.0,0.0,0.0,0.0,0.0,0.0,0.0,0.0,0.0,0.0,0.0,0.0,0.0,0.0,0.0,0.0,0.0,0.0,0.0,0.0,0.0,0.0,0.0,0.0,0.0,0.0,0.0,0.0,0.0,0.0,0.0,0.0,0.0,1.1219,0.0,0.0,1.5331,1.6392,1.718,1.8318,1.8628,1.8488,1.7716,1.6543,1.5254,1.3965,1.3271,1.2881,1.2881,1.3223,1.4082,1.583,0.0,0.0,0.0,0.0,0.0,0.0,0.0,0.0,0.0,0.0,3.0889,3.0889,3.0889,3.0889,3.0889,3.0889,3.1546,3.3077,3.3519,3.4947,3.7465,3.7914,3.8687,3.9697,3.9697,3.9697,3.9697,3.9697,3.9697,3.9697,3.9697,3.9697,3.9697,3.9697,3.9697,3.9697,3.9697,3.9697,3.9697,3.9697,3.9697,3.9697,0.0,0.0,0.0,0.0,0.0,0.0,0.0,0.5711,0.5952,0.6607,0.6794,0.7047,0.749,0.7415,0.6982,0.6129,0.5911,0.0,0.0,0.0,0.0,0.0,0.0,0.0,0.0,0.0,0.0,0.0,0.0,0.0,0.0,0.0,0.0,0.0,0.0,0.0,0.0,0.0,0.0,0.0,0.0,0.0,0.8804,0.0,0.0,0.0,0.0,0.0,0.0,0.0,0.0,0.0,0.0,0.0,0.0,0.0,1.0508,1.1606,0.0,1.4365,1.5464,1.6242,1.6755,1.6942,1.6402,1.5542,1.4658,1.3701,1.3174,1.2881,1.2881,1.335,1.4238,1.5752,0.0,0.0,0.0,0.0,0.0,0.0,0.0,0.0,0.0,3.0693,3.0889,3.0889,3.0889,3.0889,3.0889,3.0889,3.1325,3.2197,3.2861,3.3957,3.5813,3.6918,3.7914,3.8908,3.9465,3.9697,3.9697,3.9697,3.9697,3.9697,3.9697,3.9697,0.0,3.9697,3.9697,3.9697,3.9697,3.9697,3.9697,3.9697,3.9697,3.9697,0.0,0.0,0.0,0.0,0.0,0.0,0.0,0.5678,0.5785,0.6122,0.6398,0.6647,0.6954,0.6987,0.6851,0.6603,0.0,0.0,0.0,0.0,0.0,0.0,0.0,0.0,0.0,0.0,0.0,0.0,0.9196,0.9406,0.9653,0.0,0.0,0.0,0.0,0.0,0.0,0.0,0.0,0.0,0.8804,0.8804,0.0,0.0,0.0,0.0,0.0,0.0,0.0,0.0,0.0,0.0,0.0,0.0,0.0,0.0,0.0,0.0,0.0,1.376,1.4171,1.607,1.5869,1.5252,1.5332,1.4694,0.0,1.3545,1.3154,1.292,1.3037,1.3672,1.4394,1.5039,0.0,0.0,0.0,0.0,0.0,0.0,0.0,0.0,2.9629,3.041,3.0889,3.0889,3.0889,3.0889,3.0889,3.0889,3.0889,3.0889,3.2197,3.2964,3.3077,3.5922,3.7358,3.7465,3.9025,3.9697,3.9697,3.9697,3.9697,3.9697,3.9697,3.9697,3.9697,3.9697,3.9697,3.9697,3.9697,3.9697,3.9697,3.9697,3.9697,3.9697,0.0,0.0,0.0,0.0,0.0,0.0,0.0,0.0,0.0,0.0,0.5878,0.6112,0.6633,0.6693,0.6603,0.0,0.0,0.0,0.0,0.0,0.0,0.0,0.0,0.0,0.0,0.0,0.0,0.8911,0.9359,0.9499,0.9352,0.9806,0.0,0.0,0.0,0.0,0.0,0.0,0.0,0.0,0.8804,0.8804,0.0,0.0,0.0,0.0,0.8804,0.8804,0.0,0.0,0.0,0.0,0.0,0.0,0.0,0.0,0.8958,0.9207,1.013,0.0,1.1326,1.246,1.2756,1.296,0.0,1.3777,0.0,0.0,0.0,1.3281,1.458,1.4717,1.5527,0.0,0.0,0.0,0.0,0.0,0.0,0.0,0.0,0.0,3.0566,3.0771,3.0889,3.0889,3.0889,3.0889,3.0889,3.0889,3.0889,3.0889,3.1218,3.1988,3.3077,3.4958,3.6379,3.7465,3.9025,3.9697,3.9697,3.9697,3.9697,3.9697,3.9697,3.9697,3.9697,3.9697,3.9697,3.9697,3.9697,3.9697,3.9697,3.9697,3.9697,3.9697,0.0,0.0,0.0,0.0,0.0,0.0,0.0,0.0,0.0,0.0,0.0,0.0,0.0,0.0,0.0,0.0,0.0,0.0,0.0,0.0,0.0,0.0,0.0,0.0,0.0,0.0,0.0,0.0,0.0,0.9673,0.0,0.0,0.0,0.0,0.0,0.0,0.0,0.0,0.0,0.0,0.8804,0.0,0.0,0.0,0.0,0.0,0.8804,0.8804,0.0,0.8804,0.8804,0.8804,0.0,0.0,0.0,0.0,0.8804,0.8844,0.8998,1.0286,1.1707,1.1956,1.2785,1.3557,1.3756,0.0,0.0,0.0,0.0,0.0,1.4619,0.0,0.0,0.0,0.0,0.0,0.0,0.0,0.0,0.0,0.0,3.0889,0.0,3.0889,3.0889,3.0889,3.0889,3.0889,3.0889,3.0889,3.0889,3.0889,3.0889,3.1334,3.2092,3.3529,3.4736,3.5485,3.769,3.8687,3.8687,3.9362,3.9697,3.9697,3.9697,3.9697,3.9697,3.9697,3.9697,3.9697,3.9697,3.9697,3.9697,3.9697,3.9697,3.9697,0.0,0.0,0.0,0.0,0.0,0.0,0.0,0.0,0.0,0.0,0.0,0.0,0.0,0.0,0.0,0.0,0.0,0.0,0.0,0.0,0.0,0.0,0.0,0.0,0.0,0.0,0.0,0.0,0.0,0.0,0.0,0.0,0.0,0.0,0.0,0.0,0.0,0.0,0.0,0.0,0.8804,0.0,0.0,0.0,0.0,0.0,0.0,0.0,0.0,0.8804,0.8804,0.8804,0.8804,0.0,0.0,0.0,0.0,0.0,0.8971,1.1145,1.3182,1.2406,1.3649,1.4855,0.0,0.0,0.0,0.0,0.0,0.0,0.0,0.0,0.0,0.0,0.0,0.0,0.0,0.0,0.0,0.0,0.0,0.0,3.0889,3.0889,3.0889,3.0889,3.0889,3.0889,3.0889,3.0889,3.0889,3.0889,3.0889,3.0889,3.0889,3.2311,3.3077,3.3077,3.5825,3.7133,3.7252,3.8477,3.9141,3.9362,3.9362,3.9465,3.9697,3.9697,3.9697,3.9697,3.9697,3.9697,3.9697,3.9697,3.9697,3.9697,0.0,0.0,0.0,0.0,0.0,0.0,0.0,0.0,0.0,0.0,0.0,0.0,0.0,0.0,0.0,0.0,0.0,0.0,0.0,0.0,0.0,0.0,0.0,0.0,0.0,0.0,0.0,0.0,0.0,0.0,0.9766,1.0369,1.0309,0.0,0.0,0.0,0.0,0.0,0.0,0.8804,0.8804,0.0,0.0,0.0,0.0,0.0,0.0,0.0,0.0,0.8804,0.8804,0.8804,0.8804,0.0,0.0,0.0,0.0,0.0,0.9713,1.1457,1.2747,1.1065,1.1958,1.3288,0.0,0.0,0.0,0.0,0.0,0.0,0.0,0.0,0.0,0.0,0.0,0.0,0.0,0.0,0.0,0.0,0.0,3.0889,3.0889,3.0889,3.0889,3.0889,3.0889,3.0889,3.0889,3.0889,3.0889,3.0889,3.0889,3.0889,3.0889,3.2311,3.3077,3.3077,3.4847,3.5617,3.5617,3.5836,3.6715,3.7796,3.7796,3.8582,3.9697,3.9697,3.9697,3.9697,3.9697,3.9697,3.9697,3.9697,3.9697,3.9697,0.0,0.0,0.0,0.0,0.0,0.0,0.0,0.0,0.0,0.0,0.0,0.0,0.0,0.0,0.0,0.0,0.0,0.0,0.0,0.0,0.0,0.0,0.0,0.0,0.0,0.0,0.0,0.0,0.0,0.992,0.992,1.0033,0.986,0.9426,0.0,0.0,0.0,0.0,0.0,0.8804,0.0,0.0,0.0,0.0,0.0,0.0,0.0,0.0,0.0,0.0,0.8804,0.8804,0.8804,0.0,0.0,0.0,0.0,0.0,0.9299,1.0525,1.1561,1.065,1.2436,1.464,0.0,0.0,0.0,0.0,0.0,0.0,0.0,0.0,0.0,0.0,0.0,0.0,0.0,0.0,0.0,0.0,0.0,3.0889,3.0889,3.0889,3.0889,3.0889,3.0889,3.0889,3.0889,3.0889,3.0889,3.0889,3.0889,3.0889,3.0889,3.1546,3.1872,3.1872,3.3417,3.4069,3.4181,3.4958,3.5617,3.6271,3.6271,3.7145,3.8465,3.8465,3.9025,3.9697,3.9697,3.9697,3.9697,3.9697,3.9697,3.9697,0.0,0.0,0.0,0.0,0.0,0.0,0.0,0.0,0.0,0.0,0.0,0.0,0.0,0.0,0.0,0.0,0.0,0.0,0.0,0.0,0.0,0.0,0.0,0.0,0.0,0.0,0.0,0.9345,0.986,1.0114,1.0107,0.9746,0.9459,0.0,0.0,0.0,0.0,0.0,0.0,0.8804,0.0,0.0,0.0,0.0,0.0,0.0,0.0,0.0,0.0,0.0,0.0,0.0,0.0,0.0,0.0,0.8804,0.8804,0.8851,0.9058,0.982,1.0672,1.088,0.0,0.0,0.0,0.0,0.0,0.0,0.0,0.0,0.0,0.0,0.0,0.0,0.0,0.0,0.0,2.833,2.9199,2.9531,3.0351,3.0889,3.0889,3.0889,3.0889,3.0889,3.0889,3.0889,3.0889,3.0889,3.0889,3.0889,3.0889,3.0889,3.0889,3.0889,3.0889,3.0889,3.2102,3.253,3.2644,3.3754,3.4414,3.4736,3.4736,3.5606,3.7037,3.7358,3.8137,3.9141,3.9141,3.9141,3.9245,3.9581,3.9697,3.9697,0.0,0.0,0.0,0.0,0.0,0.0,0.0,0.0,0.0,0.0,0.0,0.0,0.0,0.0,0.0,0.0,0.0,0.0,0.0,0.0,0.0,0.0,0.0,0.0,0.0,0.9051,0.9352,0.9653,0.9967,1.0114,1.0107,0.9482,0.9203,0.917,0.0,0.0,0.0,0.0,0.0,0.8804,0.8804,0.0,0.0,0.0,0.0,0.0,0.0,0.0,0.0,0.0,0.0,0.0,0.0,0.0,0.8804,0.8804,0.8804,0.8985,0.98,1.0287,1.0819,1.157,0.0,0.0,0.0,0.0,0.0,0.0,0.0,0.0,0.0,0.0,0.0,0.0,0.0,0.0,2.8076,0.0,2.9531,2.957,3.0351,3.0889,3.0889,3.0889,3.0889,3.0889,3.0889,3.0889,3.0889,3.0889,3.0889,3.0889,3.0889,3.0889,3.0889,3.0889,3.0889,3.0889,3.1005,3.1112,3.1112,3.1228,3.1988,3.3293,3.3293,3.4069,3.5508,3.6918,3.7571,3.769,3.769,3.769,3.7796,3.9245,3.9697,3.9697,0.0,0.0,0.0,0.0,0.0,0.0,0.0,0.0,0.0,0.0,0.0,0.0,0.0,0.0,0.0,0.0,0.0,0.0,0.0,0.0,0.0,0.0,0.0,0.8123,0.853,0.9178,0.9573,0.9686,0.9793,0.9753,0.9508,0.9289,0.0,0.0,0.0,0.0,0.0,0.0,0.0,0.0,0.8804,0.8804,0.0,0.0,0.0,0.0,0.0,0.0,0.0,0.0,0.8223,0.844,0.8504,0.8664,0.8804,0.8804,0.8804,0.8878,0.9212,1.058,1.2106,1.2548,0.0,0.0,0.0,0.0,0.0,0.0,0.0,0.0,0.0,0.0,0.0,0.0,0.0,0.0,2.8174,2.8799,2.917,2.917,2.9932,3.0459,3.0459,3.0723,3.0889,3.0889,3.0889,3.0889,3.0889,3.0889,3.0889,3.0889,3.0889,3.0889,3.0889,3.0889,3.0889,3.0889,3.0889,3.0889,3.0889,3.0889,3.1218,3.1767,3.1767,3.254,3.3957,3.4504,3.5277,3.6162,3.6162,3.6703,3.7571,3.8137,3.8348,3.8348,0.0,0.0,0.0,0.0,0.0,0.0,0.0,0.0,0.0,0.0,0.0,0.0,0.0,0.0,0.0,0.0,0.0,0.0,0.0,0.0,0.0,0.0,0.0,0.8009,0.8504,0.9098,0.9452,0.9546,0.9546,0.9439,0.9183,0.0,0.0,0.0,0.0,0.0,0.0,0.0,0.0,0.0,0.8804,0.8804,0.0,0.0,0.0,0.0,0.0,0.0,0.0,0.0,0.7983,0.825,0.8343,0.8571,0.8857,0.9061,0.9298,0.9498,0.9397,1.1012,1.2703,0.0,0.0,0.0,0.0,0.0,0.0,0.0,0.0,0.0,0.0,0.0,0.0,0.0,2.666,2.7471,2.8193,2.8652,2.8916,2.8916,2.956,3.0,3.0,3.041,3.0674,3.0674,3.081,3.0889,3.0889,3.0889,3.0889,3.0889,3.0889,3.0889,3.0889,3.0889,3.0889,3.0889,3.0889,3.0889,3.0889,3.0889,3.0889,3.0889,3.0889,3.1431,3.2426,3.2861,3.3733,3.4626,3.5068,3.5617,3.6151,3.6595,3.6823,3.6823,0.0,0.0,0.0,0.0,0.0,0.0,0.0,0.0,0.0,0.0,0.0,0.0,0.0,0.0,0.0,0.0,0.0,0.0,0.0,0.0,0.0,0.0,0.0,0.7882,0.8771,0.8791,0.8938,0.9183,0.9183,0.9176,0.9176,0.8938,0.0,0.0,0.0,0.0,0.0,0.0,0.0,0.0,0.0,0.8804,0.8744,0.0,0.0,0.0,0.0,0.0,0.0,0.0,0.7669,0.7976,0.8277,0.8571,0.891,0.9614,1.0385,1.1012,1.0785,1.1525,0.0,0.0,0.0,0.0,0.0,0.0,0.0,0.0,0.0,0.0,0.0,0.0,0.0,2.625,2.7109,2.7812,2.8232,2.8652,2.8916,2.8916,2.9297,2.956,2.956,2.9941,3.0185,3.0185,3.0625,3.0889,3.0889,3.0889,3.0889,3.0889,3.0889,3.0889,3.0889,3.0889,3.0889,3.0889,3.0889,3.0889,3.0889,3.0889,3.0889,3.0889,3.0889,3.0889,3.1005,3.253,3.3077,3.3191,3.4736,3.4403,3.3293,3.4736,3.5288,3.5288,0.0,0.0,0.0,0.0,0.0,0.0,0.0,0.0,0.0,0.0,0.0,0.0,0.0,0.0,0.0,0.0,0.0,0.0,0.0,0.0,0.0,0.0,0.0,0.0,0.0,0.0,0.8317,0.9183,0.8475,0.8381,0.0,0.0,0.0,0.8804,0.0,0.0,0.0,0.0,0.0,0.0,0.0,0.8804,0.8744,0.0,0.0,0.0,0.0,0.0,0.0,0.0,0.0,0.0,0.7969,0.0,0.9173,0.968,0.9966,1.0301,1.1052,1.2279,0.0,0.0,0.0,0.0,0.0,0.0,0.0,0.0,0.0,0.0,0.0,0.0,0.0,2.6738,2.7305,2.7812,2.8232,2.8398,2.8476,2.8476,2.8857,2.9111,2.9111,2.9502,2.9756,2.9756,3.0156,3.04,3.04,3.0713,3.0889,3.0889,3.0889,3.0889,3.0889,3.0889,3.0889,3.0889,3.0889,3.0889,3.0889,3.0889,3.0889,3.0889,3.0889,3.0889,3.0889,3.1325,3.1546,3.1546,3.1998,3.254,3.318,3.3631,3.3744,3.3744,0.0,0.0,0.0,0.0,0.0,0.0,0.0,0.0,0.0,0.0,0.0,0.0,0.0,0.0,0.0,0.0,0.0,0.0,0.0,0.0,0.0,0.0,0.0,0.0,0.0,0.7328,0.7824,0.0,0.0,0.0,0.0,0.0,0.0,0.8804,0.0,0.0,0.0,0.0,0.0,0.0,0.0,0.8704,0.8744,0.0,0.0,0.0,0.0,0.0,0.0,0.0,0.0,0.0,0.7689,0.0,0.0,0.979,1.0297,1.0826,1.1781,0.0,0.0,0.0,0.0,0.0,0.0,0.0,0.0,0.0,0.0,0.0,0.0,0.0,0.0,2.7207,2.7637,2.7998,2.8262,2.8291,2.8291,2.8291,2.8516,2.8672,2.8672,2.9062,2.9307,2.9307,2.9707,2.9941,2.9941,3.0215,3.0371,3.0371,3.0371,3.0371,3.0371,3.0371,3.0371,3.0371,3.0537,3.0615,3.0625,3.0801,3.0889,3.0889,3.0889,3.0889,3.0889,3.0889,3.0889,3.0889,3.0889,3.1441,3.2207,3.2207,3.2207,3.2207,0.0,0.0,0.4012,0.4066,0.0,0.0,0.0,0.0,0.0,0.0,0.0,0.5309,0.0,0.0,0.0,0.5309,0.0,0.0,0.0,0.0,0.0,0.0,0.0,0.0,0.0,0.0,0.0,0.0,0.0,0.0,0.0,0.0,0.853,0.8804,0.0,0.8644,0.0,0.0,0.0,0.0,0.8337,0.849,0.8664,0.8103,0.0,0.0,0.0,0.0,0.0,0.0,0.0,0.0,0.7553,0.797,0.8663,0.9848,1.0992,1.1999,0.0,0.0,0.0,0.0,0.0,0.0,0.0,0.0,0.0,0.0,0.0,0.0,0.0,2.7402,2.7266,2.7656,2.8047,2.8291,2.8291,2.8291,2.8291,2.8291,2.8291,2.8291,2.8291,2.8643,2.8867,2.8867,2.9258,2.9512,2.9512,2.9551,2.957,2.957,2.957,2.957,2.957,2.957,2.957,2.957,2.9961,3.0137,3.0156,3.0664,3.0889,3.0889,3.0889,3.0889,3.0889,3.0889,3.0889,3.0889,3.0889,3.0889,3.0889,3.0889,3.0889,3.0889,0.0,0.0,0.414,0.4542,0.0,0.0,0.0,0.0,0.0,0.5309,0.5309,0.5309,0.5309,0.5309,0.0,0.5309,0.5309,0.0,0.0,0.0,0.0,0.0,0.0,0.0,0.0,0.0,0.0,0.0,0.0,0.0,0.0,0.0,0.0,0.8804,0.0,0.8644,0.0,0.0,0.0,0.0,0.8029,0.8063,0.8076,0.7709,0.7569,0.0,0.0,0.0,0.0,0.0,0.0,0.0,0.7829,0.8237,0.8847,0.943,1.0041,1.089,0.0,0.0,0.0,0.0,0.0,0.0,0.0,0.0,0.0,0.0,0.0,0.0,0.0,2.8076,2.8047,2.8144,2.8232,2.8291,2.8291,2.8291,2.8291,2.8291,2.8291,2.8291,2.8291,2.8369,2.8428,2.8428,2.8818,2.9062,2.9062,2.9385,2.957,2.957,2.957,2.957,2.957,2.957,2.957,2.957,2.9658,2.9707,2.9736,3.0527,3.0889,3.0889,3.0889,3.0889,3.0889,3.0889,3.0889,3.0889,3.0889,3.0889,3.0889,3.0889,3.0889,3.0889,0.0,0.0,0.0,0.0,0.0,0.0,0.0,0.0,0.5522,0.5309,0.5309,0.5309,0.5309,0.5309,0.0,0.0,0.5309,0.5309,0.0,0.0,0.0,0.0,0.0,0.0,0.0,0.0,0.0,0.0,0.0,0.0,0.0,0.0,0.0,0.9005,0.0,0.8517,0.0,0.0,0.0,0.7709,0.7709,0.7796,0.7848,0.7582,0.7513,0.7473,0.7128,0.0,0.0,0.0,0.0,0.0,0.0,0.0,0.8487,0.9106,0.9584,1.0336,0.0,0.0,0.0,0.0,0.0,0.0,0.0,0.0,0.0,0.0,0.0,0.0,2.7091,2.7708,2.8291,2.8291,2.8291,2.8291,2.8291,2.8291,2.8291,2.8291,2.8291,2.8291,2.8291,2.8291,2.8291,2.8291,2.8496,2.8613,2.8613,2.8838,2.8965,2.8965,2.8965,2.8965,2.8965,2.8965,2.8965,2.8965,2.916,2.9365,2.959,3.0254,3.0557,3.0576,3.0791,3.0889,3.0889,3.0889,3.0889,3.0889,3.0889,3.0889,3.0889,3.0889,3.0889,3.0889,0.0,0.0,0.0,0.0,0.0,0.0,0.0,0.0,0.0,0.534,0.5309,0.5309,0.5309,0.5309,0.5309,0.0,0.0,0.0,0.5309,0.0,0.0,0.0,0.0,0.0,0.0,0.0,0.0,0.0,0.0,0.0,0.0,0.0,0.0,0.909,0.0,0.0,0.0,0.0,0.0,0.7432,0.7432,0.7542,0.7696,0.7488,0.7432,0.7361,0.7108,0.7054,0.7141,0.7448,0.0,0.0,0.0,0.0,0.8021,0.8745,0.9259,0.988,0.0,0.0,0.0,0.0,0.0,0.0,0.0,0.0,0.0,0.0,0.0,2.7131,2.5867,2.7043,2.8203,2.8281,2.8291,2.8291,2.8291,2.8291,2.8291,2.8291,2.8291,2.8291,2.8291,2.8291,2.8291,2.8291,2.8291,2.8291,2.8291,2.8291,2.8291,2.8291,2.8291,2.8291,2.8291,2.8291,2.8291,2.8301,2.8643,2.9004,2.9365,2.9785,3.0019,3.0107,3.0576,3.0771,3.0781,3.0859,3.0889,3.0889,3.0889,3.0889,3.0889,3.0889,3.0889,3.0889,0.0,0.0,0.0,0.0,0.0,0.0,0.0,0.0,0.0,0.0,0.0,0.5309,0.5309,0.5309,0.5309,0.5309,0.5309,0.5309,0.0,0.0,0.0,0.0,0.0,0.0,0.0,0.0,0.0,0.0,0.0,0.0,0.0,0.0,0.0,0.0,0.0,0.0,0.0,0.0,0.0,0.7081,0.7081,0.7108,0.7098,0.7094,0.7081,0.7074,0.7034,0.7188,0.75,0.7762,0.8043,0.0,0.0,0.0,0.7902,0.8021,0.849,0.0,0.0,0.0,0.0,0.0,0.0,0.0,0.0,0.0,0.0,0.0,2.3771,2.6785,2.5812,2.6816,2.7871,2.8232,2.8291,2.8291,2.8291,2.8291,2.8291,2.8291,2.8291,2.8291,2.8291,2.8291,2.8291,2.8291,2.8291,2.8291,2.8291,2.8291,2.8291,2.8291,2.8291,2.8291,2.8291,2.8291,2.8291,2.8291,2.835,2.8408,2.8476,2.8896,2.9297,2.9678,3.0107,3.0293,3.0322,3.0723,3.0889,3.0889,3.0889,3.0889,3.0889,3.0889,3.0889,3.0889,0.0,0.0,0.0,0.0,0.0,0.0,0.0,0.0,0.0,0.0,0.0,0.5309,0.5309,0.5309,0.5309,0.5309,0.5309,0.0,0.0,0.0,0.0,0.0,0.0,0.0,0.0,0.0,0.0,0.0,0.0,0.0,0.0,0.8297,0.8844,0.0,0.0,0.0,0.0,0.0,0.0,0.7255,0.7088,0.7328,0.0,0.0,0.7335,0.7715,0.0,0.0,0.7288,0.7769,0.8016,0.8156,0.8323,0.0,0.0,0.0,0.0,0.0,0.0,0.0,0.0,0.0,0.0,0.0,0.0,0.0,0.0,0.0,2.1358,2.4221,2.4814,2.5617,2.6485,2.7435,2.7578,2.7656,2.791,2.7939,2.8027,2.8262,2.8291,2.8291,2.8291,2.8291,2.8291,2.8291,2.8291,2.8291,2.8291,2.8291,2.8291,2.8291,2.8291,2.8291,2.8291,2.8291,2.8291,2.8291,2.8291,2.8291,2.8301,2.8486,2.8799,2.9228,2.9658,2.9844,2.9863,3.0068,3.0283,3.0508,3.0508,3.0664,3.0889,3.0889,3.0889,3.0889,0.0,0.0,0.0,0.0,0.0,0.0,0.0,0.0,0.0,0.0,0.0,0.5309,0.5309,0.0,0.0,0.0,0.5309,0.0,0.0,0.0,0.0,0.0,0.0,0.0,0.0,0.0,0.0,0.0,0.0,0.0,0.8484,0.8557,0.9492,0.0,0.9953,0.0,0.0,0.0,0.0,0.0,0.7455,0.7769,0.8337,0.7949,0.8183,0.8611,0.0,0.0,0.0,0.0,0.0,0.0,0.0,0.0,0.0,0.0,0.0,0.0,0.0,0.0,0.0,0.0,0.0,0.0,0.0,0.0,0.0,0.0,1.937,2.129,2.3506,2.4479,2.517,2.6349,2.6481,2.6586,2.7006,2.6731,2.6778,2.7515,2.7563,2.7611,2.7716,2.8067,2.8291,2.8291,2.8291,2.8291,2.8291,2.8291,2.8291,2.8291,2.8291,2.8291,2.8291,2.8291,2.8291,2.8291,2.8291,2.8291,2.8291,2.8291,2.8467,2.8779,2.9219,2.9404,2.9414,2.9521,2.9814,3.0195,3.0195,3.0478,3.0889,3.0889,3.0889,3.0889,0.0,0.0,0.0,0.0,0.0,0.0,0.0,0.0,0.0,0.0,0.0,0.5309,0.5309,0.5309,0.5309,0.5309,0.5309,0.0,0.0,0.0,0.0,0.0,0.0,0.0,0.0,0.0,0.0,0.0,0.0,0.0,0.8791,0.901,0.992,1.1363,1.0468,0.9619,0.8831,0.0,0.0,0.0,0.836,0.838,0.849,0.9552,0.9813,0.9573,0.0,0.0,0.0,0.0,0.0,0.0,0.0,0.0,0.7623,0.0,0.0,0.0,0.0,0.0,0.0,0.0,0.0,0.0,0.0,0.0,0.0,0.0,1.8833,1.8571,2.2353,2.3782,2.4524,2.5018,2.5072,2.509,2.5109,2.3939,2.3759,2.5326,2.5691,2.5845,2.6227,2.7501,2.8291,2.8291,2.8291,2.8291,2.8291,2.8291,2.8291,2.8291,2.8291,2.8291,2.8291,2.8291,2.8291,2.8291,2.8291,2.8291,2.8291,2.8291,2.8301,2.835,2.8769,2.8955,2.8984,2.9404,2.9814,3.0195,3.0195,3.0478,3.0889,3.0889,3.0889,3.0889,0.0,0.0,0.0,0.0,0.0,0.0,0.0,0.0,0.0,0.0,0.0,0.0,0.0,0.5309,0.5309,0.5309,0.5309,0.0,0.0,0.0,0.0,0.0,0.0,0.0,0.0,0.0,0.0,0.0,0.0,0.6438,0.7949,0.8257,0.8778,0.9486,0.992,1.0047,0.986,0.8818,0.0,0.0,0.0,0.9105,0.0,0.982,1.078,1.1934,0.0,0.0,0.0,0.0,0.0,0.0,0.9549,0.9113,0.8309,0.8497,0.0,0.0,0.0,0.0,0.0,0.0,0.0,0.0,0.0,0.0,1.6615,1.8399,1.7786,1.7846,2.0865,2.1354,2.1583,2.2741,2.286,2.2954,2.3203,2.282,2.285,2.3636,2.3785,2.3952,2.3982,2.5288,2.616,2.616,2.6931,2.7598,2.7881,2.7891,2.8018,2.8281,2.8291,2.8291,2.8291,2.8291,2.8291,2.8291,2.8291,2.8291,2.8291,2.8291,2.8291,2.8301,2.8447,2.8516,2.8525,2.8691,2.8994,2.9404,2.9687,3.0059,3.0478,3.0781,3.0889,3.0889,0.0,0.0,0.0,0.5309,0.0,0.513,0.513,0.513,0.0,0.0,0.0,0.0,0.0,0.0,0.5309,0.5309,0.0,0.0,0.0,0.0,0.0,0.0,0.0,0.0,0.0,0.0,0.0,0.0,0.0,0.0,0.0,0.0,0.7989,0.8404,0.9078,0.0,0.0,0.0,0.0,0.9118,0.0,0.0,1.0658,0.0,1.1963,0.0,0.0,0.0,0.0,0.0,0.0,0.0,0.0,0.9916,0.9096,0.8807,0.0,0.0,0.0,0.0,0.0,0.0,0.0,0.0,0.0,0.0,1.5684,1.7169,1.7376,1.7717,1.9437,1.9521,1.9633,2.0655,2.1366,2.164,2.1378,2.0995,2.1016,2.1884,2.2038,2.2078,2.2199,2.3904,2.4968,2.4968,2.6256,2.7139,2.7432,2.7451,2.7578,2.7861,2.8008,2.8086,2.8086,2.8223,2.8291,2.8291,2.8291,2.8291,2.8291,2.8291,2.8291,2.8291,2.8291,2.8291,2.8291,2.8291,2.8535,2.8945,2.9238,2.9609,3.0039,3.0488,3.0664,3.0684,0.5224,0.5309,0.5309,0.5309,0.5037,0.4821,0.4821,0.4821,0.4821,0.0,0.0,0.0,0.0,0.0,0.0,0.0,0.0,0.0,0.0,0.0,0.0,0.0,0.0,0.0,0.0,0.0,0.0,0.0,0.0,0.0,0.0,0.0,0.7795,0.0,0.8029,0.8333,0.9137,0.0,0.9385,0.9746,0.0,1.0618,1.0828,0.0,0.0,0.0,1.3133,1.2852,0.0,1.2133,0.0,0.0,0.0,1.1164,0.996,0.9054,0.0,0.0,0.0,0.0,0.0,0.0,0.0,0.0,0.0,0.0,1.4597,1.6714,1.7624,1.8015,1.8044,1.832,1.8647,1.9067,2.0482,2.1119,1.9716,1.8387,1.8197,1.9864,2.0212,2.0332,2.0655,2.3237,2.4932,2.4932,2.6228,2.6982,2.6992,2.7012,2.7012,2.7012,2.7422,2.7646,2.7646,2.8057,2.8262,2.8271,2.8271,2.8281,2.8291,2.8291,2.8291,2.8291,2.8291,2.8291,2.8291,2.8291,2.8535,2.8896,2.8916,2.918,2.96,3.0019,3.0176,3.0244,0.5295,0.5309,0.5309,0.5309,0.521,0.5157,0.5157,0.5157,0.523,0.0,0.0,0.0,0.0,0.0,0.0,0.0,0.0,0.0,0.0,0.0,0.5309,0.5309,0.5309,0.0,0.0,0.0,0.0,0.0,0.0,0.0,0.0,0.0,0.0,0.0,0.7214,0.7528,0.7956,0.7956,0.0,0.0,0.9713,1.0494,0.0,0.0,0.0,0.0,0.0,1.4149,1.4343,0.0,1.2459,1.1101,0.0,0.0,0.0,1.0889,1.0464,0.0,0.9827,0.0,0.0,0.0,0.0,0.0,0.0,0.0,0.0,1.5188,1.5346,1.5662,1.7128,1.7908,1.8044,1.7274,1.7633,1.8009,1.7839,1.7571,1.7888,1.9524,1.8941,1.8773,1.9784,2.1536,2.2562,2.2562,2.4737,2.623,2.6543,2.6846,2.7012,2.7012,2.7139,2.7197,2.7197,2.7314,2.7529,2.7842,2.7842,2.7998,2.8291,2.8291,2.8291,2.8291,2.8291,2.8291,2.8291,2.8291,2.8359,2.8496,2.8799,2.8994,2.915,2.958,2.9746,2.9805,0.5251,0.5309,0.5356,0.5509,0.5537,0.5577,0.5665,0.5678,0.5739,0.0,0.0,0.0,0.0,0.0,0.0,0.0,0.0,0.0,0.0,0.5351,0.5309,0.5309,0.5309,0.5337,0.0,0.0,0.0,0.0,0.0,0.0,0.0,0.0,0.0,0.0,0.0,0.6774,0.7268,0.7063,0.0,0.0,0.9993,0.0,0.0,1.2759,1.4007,0.0,0.0,0.0,1.5132,1.4489,1.3404,0.0,0.0,1.1587,1.1715,1.1637,0.0,0.0,0.0,0.0,0.0,0.0,0.0,0.0,1.0681,1.1189,0.0,0.0,1.4517,1.4951,1.5913,1.6808,1.7154,1.6048,1.6052,1.6346,1.6887,1.6967,1.7523,1.8999,1.8023,1.7764,1.9213,2.0623,2.1586,2.1736,2.4196,2.585,2.6103,2.6348,2.6484,2.6484,2.666,2.6758,2.6758,2.6934,2.7148,2.7393,2.7393,2.7617,2.8027,2.8027,2.8125,2.8291,2.8291,2.8291,2.8291,2.8291,2.8291,2.831,2.8564,2.8662,2.8711,2.9141,2.9297,2.9365,0.0,0.5304,0.5411,0.5787,0.593,0.6096,0.6246,0.627,0.6303,0.0,0.0,0.0,0.0,0.0,0.0,0.0,0.0,0.0,0.0,0.5491,0.5342,0.5309,0.5309,0.5397,0.5658,0.0,0.0,0.0,0.0,0.0,0.0,0.0,0.0,0.0,0.5665,0.6132,0.6894,0.6562,0.0,0.9098,1.0541,1.1496,0.0,0.0,1.4476,1.4683,1.5211,1.5251,1.501,1.4676,1.4028,0.0,0.0,1.2166,1.2101,1.1946,1.1891,0.0,0.0,0.0,0.0,0.0,1.0186,0.0,1.133,1.1249,1.1309,0.0,1.4009,1.4822,1.4311,1.5149,1.5791,1.5237,1.5264,1.5745,1.6731,1.6753,1.7251,1.8746,1.7775,1.7596,1.9268,2.0555,2.1477,2.1804,2.4202,2.5684,2.5742,2.5742,2.5742,2.5742,2.6113,2.6318,2.6318,2.6689,2.6894,2.6943,2.6943,2.7168,2.7598,2.7646,2.7871,2.8223,2.8271,2.8291,2.8291,2.8291,2.8291,2.8291,2.8291,2.8291,2.834,2.8711,2.8848,2.8906,0.5271,0.5281,0.5307,0.5399,0.6185,0.6789,0.6845,0.6841,0.6941,0.0,0.0,0.0,0.0,0.0,0.0,0.0,0.0,0.0,0.0,0.5792,0.5524,0.5322,0.5309,0.5336,0.5364,0.5364,0.0,0.0,0.0,0.0,0.0,0.0,0.0,0.0,0.5364,0.5759,0.6422,0.7346,0.0,0.9918,0.9701,0.0,1.2714,1.324,1.4195,1.5237,1.5357,1.5511,1.5578,1.5057,1.4711,1.4435,0.0,1.3894,1.3499,1.3556,1.352,1.3314,1.2718,1.3169,1.3416,1.1715,0.0,0.0,1.0173,1.0214,1.0661,0.0,1.1145,1.182,1.2614,1.3284,1.3736,1.3614,1.4429,1.5718,1.7558,1.7023,1.7685,2.1224,1.9618,1.9063,2.1456,2.2048,2.217,2.2249,2.4117,2.5361,2.5723,2.5742,2.5742,2.5742,2.582,2.5859,2.5859,2.5947,2.6162,2.6514,2.6514,2.6728,2.7148,2.751,2.7715,2.7812,2.8144,2.8291,2.8291,2.8291,2.8291,2.8291,2.8291,2.8291,2.8301,2.8389,2.8418,2.8476,0.5304,0.5289,0.5497,0.6046,0.6605,0.71,0.7408,0.7534,0.7738,0.0,0.0,0.0,0.0,0.0,0.0,0.0,0.0,0.0,0.0,0.0,0.5645,0.5504,0.5357,0.545,0.5746,0.5463,0.0,0.0,0.0,0.0,0.0,0.0,0.0,0.0,0.0,0.0,0.0,0.0,0.8491,0.9446,1.101,0.0,1.3888,1.5235,1.5741,1.5705,1.635,1.6261,1.5691,1.4823,1.4907,0.0,1.5112,1.5202,1.5355,0.0,1.4767,1.4514,1.2924,1.3152,1.3486,1.2058,0.0,0.0,0.0,1.0629,1.094,1.096,1.0762,1.0981,1.2091,1.2432,1.2639,1.2933,1.3848,1.5053,1.6565,1.6955,1.8165,2.1502,1.9665,1.9178,2.1831,2.155,2.1808,2.3261,2.4236,2.4844,2.5068,2.5283,2.54,2.54,2.5625,2.5742,2.5742,2.5742,2.585,2.6064,2.6064,2.6289,2.6709,2.6924,2.7256,2.7676,2.7891,2.8096,2.8291,2.8291,2.8291,2.8291,2.8291,2.8291,2.8291,2.8291,2.8291,2.832,0.5589,0.5443,0.5639,0.6817,0.7176,0.7514,0.8017,0.8194,0.0,0.0,0.0,0.0,0.0,0.0,0.0,0.0,0.0,0.0,0.0,0.0,0.5965,0.5965,0.5726,0.58,0.6182,0.5766,0.5857,0.0,0.0,0.0,0.0,0.0,0.0,0.0,0.0,0.0,0.0,0.0,0.0,0.9496,0.0,1.4119,1.4182,1.6593,1.6632,1.5691,1.6879,1.6662,1.5678,1.4676,1.5247,1.6184,1.5726,1.6362,0.0,0.0,0.0,1.5585,0.0,0.0,1.3606,0.0,0.0,1.257,0.0,0.0,0.0,1.1499,1.0969,0.0,0.0,0.0,0.0,1.2318,0.0,0.0,0.0,1.6277,0.0,2.028,1.8709,1.8509,2.0911,2.0303,2.0867,2.3769,2.3779,2.3779,2.4015,2.4652,2.498,2.5068,2.542,2.5644,2.5742,2.5742,2.5742,2.5742,2.5742,2.5918,2.6269,2.6357,2.6768,2.7422,2.751,2.7783,2.8174,2.8174,2.8223,2.8291,2.8291,2.8291,2.8291,2.8291,2.8291,2.8291,0.6602,0.5986,0.5664,0.6789,0.7887,0.8613,0.8685,0.8719,0.0,0.0,0.0,0.0,0.0,0.0,0.0,0.0,0.0,0.0,0.8898,0.0,0.0,0.6833,0.6824,0.6615,0.6189,0.6304,0.608,0.0,0.0,0.0,0.0,0.0,0.6844,0.6731,0.7123,0.0,0.0,0.0,1.0574,0.0,1.4148,1.3523,0.0,1.3447,1.4318,1.477,1.5731,1.592,1.5772,0.0,1.5973,1.6862,0.0,1.7532,1.7936,1.6494,0.0,0.0,0.0,0.0,0.0,0.0,1.4431,1.4403,1.1047,0.0,1.1155,1.0448,0.0,0.0,0.0,0.0,0.0,0.0,0.0,0.0,1.3477,1.4574,1.5953,1.7547,1.7278,1.742,1.8857,1.865,1.9462,2.2071,2.153,2.154,2.272,2.3887,2.4668,2.5059,2.5117,2.5332,2.5732,2.5742,2.5742,2.5742,2.5742,2.5762,2.582,2.6211,2.6435,2.6553,2.6924,2.7334,2.7734,2.7734,2.7959,2.8291,2.8291,2.8291,2.8291,2.8291,2.8291,2.8291,0.5922,0.5647,0.5677,0.68,0.744,0.7989,0.8693,0.9402,0.0,0.0,0.0,0.0,0.0,0.0,0.0,0.0,0.0,0.9345,0.0,0.0,0.0,0.7288,0.712,0.6892,0.666,0.6665,0.6627,0.6507,0.6324,0.0,0.0,0.0,0.6856,0.7302,0.7747,0.0,0.8991,0.0,1.0352,0.0,0.0,0.0,0.0,1.5026,1.6401,1.6323,1.5973,1.5832,1.5732,1.5097,1.5693,0.0,0.0,0.0,0.0,1.6624,0.0,0.0,0.0,0.0,0.0,0.0,0.0,0.0,1.1662,1.1404,1.1474,1.0947,0.0,0.0,0.0,0.0,0.0,0.0,1.1116,0.0,0.0,0.0,1.3917,1.6759,0.0,1.5886,1.6972,1.7458,1.8351,1.9903,1.9303,1.9694,2.1491,2.2473,2.3388,2.4316,2.4805,2.5156,2.5352,2.5605,2.5742,2.5742,2.5742,2.5742,2.5742,2.5928,2.6152,2.6396,2.6572,2.6894,2.7305,2.7559,2.7773,2.7949,2.8193,2.8291,2.8291,2.8291,2.8291,2.8291,0.5313,0.0,0.0,0.6817,0.7014,0.7386,0.8612,0.9667,1.0179,0.0,0.0,0.0,1.0947,1.0848,0.0,0.0,1.1029,1.0448,0.0,0.0,0.8343,0.8196,0.7732,0.7432,0.7388,0.7321,0.7354,0.7415,0.7132,0.0,0.0,0.0,0.0,0.7885,0.0,0.9141,0.9852,0.0,1.059,1.0701,1.154,1.2177,1.3036,1.6133,1.7466,1.7505,1.6298,1.6015,1.6181,1.5087,1.5588,1.6662,1.6421,1.7235,1.7981,0.0,0.0,0.0,1.4145,0.0,1.4314,1.3625,1.3733,1.3739,1.2472,1.2431,1.2538,1.2215,1.1875,0.0,0.0,0.0,0.0,0.0,0.0,1.0668,0.0,1.0548,0.0,0.0,0.0,0.0,1.5458,1.5614,1.639,1.8179,1.734,1.7951,2.0712,2.1373,2.2342,2.3789,2.4502,2.4951,2.5068,2.5518,2.5742,2.5742,2.5742,2.5742,2.5742,2.5742,2.5908,2.6211,2.6211,2.6455,2.6865,2.7187,2.7451,2.7695,2.7998,2.8193,2.8291,2.8291,2.8291,2.8291,0.5299,0.5284,0.0,0.0,0.0,0.7397,0.8599,0.9316,0.9924,1.0495,0.0,0.0,0.0,0.0,0.0,0.0,0.0,1.1924,1.2184,0.0,0.9746,1.002,0.916,0.8542,0.8373,0.8553,0.8222,0.7402,0.8014,0.833,0.0,0.0,0.0,0.0,0.0,0.9978,1.0181,1.1117,1.2176,1.3178,1.3804,1.527,1.6855,0.0,1.5873,1.7505,1.6298,1.6574,1.7453,1.5835,1.6078,1.6906,1.6676,1.7585,1.8491,1.7014,0.0,0.0,1.5335,1.5124,1.5116,1.4209,1.4187,1.4134,1.3164,1.3907,1.4672,1.4148,1.4277,1.4281,0.0,0.0,0.0,0.0,0.0,0.0,0.0,0.0,0.0,0.0,0.0,0.0,0.0,1.2771,1.3216,1.721,1.5435,1.6089,2.0485,2.0829,2.1826,2.376,2.4209,2.4639,2.5059,2.5518,2.5742,2.5742,2.5742,2.5742,2.5742,2.5742,2.5742,2.5762,2.5762,2.6006,2.6406,2.6426,2.6914,2.7666,2.7685,2.7939,2.8291,2.8291,2.8291,2.8291,0.0,0.0,0.0,0.0,0.0,0.7404,0.8612,0.9644,1.0241,0.0,1.089,0.0,0.0,1.2246,1.2886,0.0,0.0,1.2625,1.2318,1.1202,0.0,1.0695,0.9833,0.92,0.8951,0.932,0.9007,0.7851,0.9067,0.9422,0.0,0.0,0.0,0.0,0.0,1.1255,0.0,0.0,0.0,0.0,0.0,1.5291,1.7482,0.0,1.7033,1.7591,1.7225,1.6756,1.6466,1.6822,1.6465,1.612,1.7044,1.6853,1.6178,1.5924,1.5791,1.5611,1.517,1.5177,1.5201,1.4255,1.3808,1.3341,1.245,1.2608,1.2957,1.2945,1.3189,1.3404,1.345,0.0,0.0,0.0,0.0,0.0,0.0,0.0,0.0,0.0,0.0,0.0,0.0,0.0,1.2054,1.4234,1.3454,1.441,1.7937,1.9171,2.043,2.2128,2.339,2.4209,2.4629,2.5078,2.5439,2.5742,2.5742,2.5742,2.5742,2.5742,2.5742,2.5742,2.5742,2.582,2.5977,2.6269,2.6553,2.6875,2.7441,2.7754,2.791,2.8193,2.8291,2.8291,0.7553,0.0,0.0,0.0,0.0,0.7898,0.8679,0.9821,0.0,0.0,1.1345,0.0,1.2351,0.0,1.3497,0.0,1.3941,1.3487,1.2679,1.2091,0.0,1.1316,1.0661,1.0214,0.996,1.0199,0.9804,0.882,0.9969,1.0289,0.0,0.0,0.0,0.0,0.0,0.0,1.3578,0.0,1.3628,0.0,0.0,1.5595,0.0,1.7692,1.7963,1.8226,1.7311,1.6756,1.6574,1.7412,1.7001,1.6494,1.7887,1.7568,1.6642,1.6846,1.6766,1.6487,1.593,1.6301,1.6469,1.4914,1.4689,1.4554,1.3628,1.3548,1.3688,1.3926,1.3738,1.3675,1.4014,0.0,0.0,0.0,0.0,0.0,0.0,0.9117,0.0,0.0,0.0,0.0,0.0,0.0,1.1138,1.2907,1.2369,1.3431,0.0,1.8238,1.9632,2.1076,2.2923,2.3916,2.4189,2.4775,2.5215,2.5508,2.5664,2.5742,2.5742,2.5742,2.5742,2.5742,2.5742,2.5742,2.5762,2.6045,2.625,2.6455,2.7168,2.7529,2.7715,2.8135,2.8291,2.8291,0.849,0.0,0.0,0.0,0.8019,0.0,0.0,0.0,1.0673,0.0,1.1834,1.2749,1.3497,1.3561,1.3965,1.4917,1.5053,1.4489,1.3373,1.3267,0.0,0.0,1.1663,1.1483,1.147,1.108,1.0646,1.0093,1.0723,1.088,0.0,0.0,0.0,0.0,1.1904,0.0,1.3738,1.3654,1.4602,1.6093,1.5604,1.6302,1.7684,1.7598,1.8319,1.9131,1.6749,1.6669,1.7598,1.7692,1.7692,1.787,1.9131,1.9497,1.9497,1.9497,1.9497,1.9141,1.7719,1.8411,1.8889,1.6199,1.6591,1.7351,1.6413,1.6463,1.6702,1.6737,1.5778,1.5065,1.539,1.3557,0.0,0.0,0.0,0.0,0.0,0.0,0.0,0.0,0.0,0.0,0.0,0.0,1.0398,1.3203,1.2171,0.0,0.0,1.8054,1.9127,2.0697,2.2672,2.367,2.3699,2.46,2.5029,2.5068,2.5508,2.5713,2.5742,2.5742,2.5742,2.5742,2.5742,2.5742,2.5742,2.5742,2.5977,2.6396,2.6816,2.7266,2.7715,2.8135,2.8291,2.8291,0.7567,0.8197,0.8725,0.0,0.8617,0.9102,0.0,0.0,0.0,0.0,1.4757,1.4958,1.5177,1.4838,1.479,1.5143,1.5163,0.0,0.0,0.0,0.0,1.3527,1.2806,1.2305,1.2084,1.1638,1.0966,1.0123,1.1107,0.0,1.0342,0.0,0.0,0.0,0.0,0.0,1.542,1.5207,1.5651,1.6418,1.5686,1.6302,1.7598,1.6669,1.703,1.8048,1.7404,1.685,1.6386,1.7412,1.7692,1.787,1.9131,1.9497,1.9497,1.9497,1.9497,1.9381,1.9018,1.924,1.9315,1.8588,1.8235,1.7755,1.6545,1.6319,1.6229,1.5645,1.5216,1.4951,1.4809,1.3726,0.0,0.0,0.0,0.0,0.0,0.0,0.0,0.9766,0.0,0.0,0.0,0.9593,1.0377,1.1542,1.1276,1.2257,1.4871,1.5801,1.6904,1.8103,2.0641,2.2069,2.2483,2.3539,2.4443,2.5068,2.5185,2.541,2.5742,2.5742,2.5742,2.5742,2.5742,2.5742,2.5742,2.5742,2.5801,2.5947,2.6377,2.7012,2.7715,2.8135,2.8291,2.8291,0.7942,0.0,0.0,0.9486,0.0,0.0,0.9818,1.0281,0.0,1.5327,1.5839,0.0,1.5758,1.5527,1.5344,1.5449,1.5449,0.0,1.4796,0.0,0.0,1.4108,1.3721,1.3387,1.3086,1.2469,0.0,1.0501,0.0,0.0,1.0237,0.0,0.0,0.0,0.0,1.4023,0.0,1.5883,1.617,1.6242,1.5665,1.603,0.0,1.6109,1.6292,1.685,1.685,1.6386,1.6015,1.7225,1.7692,1.787,1.9131,1.9852,2.0305,2.0305,2.0674,2.0953,2.0395,2.0674,2.0863,1.977,1.9123,1.8498,1.7407,1.6406,1.5706,1.569,1.5077,1.4703,1.5042,1.4007,1.2579,0.0,0.0,0.0,0.0,0.0,0.0,0.0,0.9706,0.0,0.8864,0.9372,0.998,1.0568,1.0848,1.1617,1.3039,1.4874,1.6133,1.6793,1.9741,2.141,2.1653,2.3133,2.4033,2.4512,2.4893,2.5205,2.5449,2.5644,2.5742,2.5742,2.5742,2.5742,2.5742,2.5742,2.5742,2.5781,2.6221,2.6914,2.7695,2.793,2.8135,2.8291,0.901,0.0,0.0,0.0,0.0,0.0,0.0,1.0633,0.0,1.4968,0.0,1.5286,1.5729,1.5793,1.5832,1.5832,1.5832,1.5504,1.4743,1.517,1.5097,1.4295,1.4502,1.4482,1.4155,1.3227,1.2264,1.1049,1.1346,1.1059,0.0,0.0,0.0,0.0,0.0,0.0,0.0,1.6037,1.6254,1.5972,1.5568,1.5605,1.5832,1.5832,1.5832,1.5832,1.5832,1.5832,1.6015,1.7037,1.7598,1.787,1.8948,2.0124,2.1025,2.1025,2.1943,2.2677,2.1569,2.2031,2.2403,2.0215,1.9579,1.9241,1.8353,1.6647,1.5514,1.6202,1.5262,1.4603,1.5545,1.4155,1.2493,0.0,0.0,0.0,0.0,0.0,0.0,0.0,0.0,0.0,0.8985,0.9152,0.9512,1.002,1.0494,1.1089,1.183,1.4331,1.5913,1.6252,1.9389,2.106,2.1293,2.2853,2.373,2.3799,2.4541,2.4961,2.5078,2.5469,2.5684,2.5742,2.5742,2.5742,2.5742,2.5742,2.5742,2.5781,2.6221,2.6875,2.7588,2.7646,2.793,2.8291,1.0079,0.0,0.0,0.0,0.0,1.1534,1.4152,1.4756,1.4379,1.3095,1.2095,1.2642,1.5498,1.5846,1.5832,1.5832,1.5832,0.0,0.0,0.0,0.0,1.5184,1.5217,1.499,1.4456,1.3327,1.2291,1.1349,1.1578,1.0983,0.0,0.0,0.0,0.0,0.0,0.0,1.5095,1.5997,0.0,1.6389,1.5961,1.5785,1.5832,1.5832,1.5832,1.5832,1.5832,1.5832,1.5832,1.6015,1.6857,1.7777,1.7963,1.8864,1.9852,1.9852,2.0666,2.1569,2.1382,2.1471,2.148,2.1114,2.0215,1.919,1.808,1.7512,1.6965,1.6133,1.5685,1.5444,1.5164,1.4222,1.324,1.256,0.0,0.0,0.0,0.0,0.0,0.0,0.0,1.0441,0.9613,0.9579,0.9653,0.9753,0.9626,1.0227,1.1784,1.2376,1.3824,1.6207,1.8368,2.0084,2.1293,2.2568,2.3437,2.3789,2.3935,2.4385,2.5068,2.5146,2.5391,2.5742,2.5742,2.5742,2.5742,2.5742,2.5742,2.5781,2.6221,2.6689,2.7178,2.7539,2.793,2.8291,0.0,0.0,0.0,0.0,0.0,0.0,0.0,1.5812,1.5383,1.4268,1.3609,1.3982,1.5588,1.5778,1.5832,1.5832,1.5832,1.5832,1.5832,1.5832,1.5765,1.5625,1.5478,1.5264,1.4977,1.3968,1.2933,1.1877,1.1629,1.1059,0.0,0.0,0.0,0.0,0.0,1.358,0.0,0.0,1.5846,1.622,1.581,1.5698,1.5832,1.5832,1.5832,1.5832,1.5832,1.5832,1.5832,1.5832,1.6204,1.6662,1.6662,1.7584,1.8596,1.8596,1.9405,2.0395,2.0395,2.0395,2.0395,2.0395,1.9497,1.8411,1.787,1.7225,1.6574,1.592,1.5832,1.5651,1.507,1.4369,1.3728,1.3287,1.2585,1.2245,0.0,0.0,1.139,0.0,0.0,0.0,0.0,0.9593,0.9559,0.0,0.0,0.9973,1.1129,1.1764,1.3064,1.5064,1.6919,1.8402,1.9397,2.1221,2.2311,2.2518,2.3393,2.4121,2.4736,2.4971,2.5312,2.5742,2.5742,2.5742,2.5742,2.5742,2.5742,2.5762,2.5967,2.6309,2.6738,2.7168,2.7598,2.7998,0.0,1.2599,0.0,0.0,1.2539,1.3668,1.5486,1.5824,1.5798,1.5803,1.5819,1.5777,1.5835,1.5835,1.5832,1.5832,1.5832,1.5832,1.5832,1.5832,1.5832,1.5832,1.5611,1.5458,1.5398,1.4656,1.3661,1.2398,1.1945,1.1338,1.0724,1.1271,1.1737,1.212,0.0,0.0,1.4032,1.4717,1.5333,1.577,1.5538,1.5625,1.5832,1.5832,1.5832,1.5832,1.5832,1.5832,1.5832,1.5832,1.5832,1.5832,1.5832,1.648,1.7318,1.7318,1.8133,1.9131,1.9131,1.9131,1.9131,1.9131,1.8226,1.7318,1.7318,1.648,1.5832,1.5832,1.5832,1.5651,1.507,1.4683,1.4302,1.3814,1.3146,1.2759,1.3077,0.0,0.0,0.0,0.0,0.0,0.9469,0.9526,0.9399,0.0,0.0,0.984,1.0608,1.1523,1.2777,1.4351,1.5899,1.7039,1.7926,1.9867,2.1025,2.1302,2.2645,2.3635,2.4424,2.4775,2.5225,2.5742,2.5742,2.5742,2.5742,2.5742,2.5742,2.5742,2.5742,2.6006,2.6435,2.6865,2.7295,2.7725,0.0,0.0,0.0,0.0,0.0,1.5589,1.5735,1.5763,1.5805,1.5826,1.5839,1.5846,1.5819,1.5785,1.5832,1.5832,1.5832,1.5832,1.5832,1.5832,1.5832,1.5832,1.5805,1.5665,1.5404,1.5057,1.4168,1.2782,1.2777,1.2138,1.1059,1.2217,1.3064,1.3623,1.3633,1.3824,1.4212,1.4947,1.5368,1.5429,1.5658,1.5805,1.5832,1.5832,1.5832,1.5832,1.5832,1.5832,1.5832,1.5832,1.5832,1.5832,1.5832,1.5927,1.6015,1.6015,1.685,1.787,1.787,1.787,1.787,1.787,1.6943,1.6015,1.6015,1.592,1.5832,1.5832,1.5832,1.5651,1.507,1.5351,1.5311,1.4222,1.3975,1.3928,1.3955,0.0,1.2238,1.2184,0.0,0.0,1.01,0.9579,0.0,0.0,0.9005,0.9492,1.0875,1.1056,1.2459,1.5283,1.5966,1.7079,1.8514,1.9256,2.0215,2.1293,2.1427,2.2497,2.4414,2.4463,2.4941,2.5742,2.5742,2.5742,2.5742,2.5742,2.5742,2.5742,2.5742,2.6006,2.6435,2.6865,2.7295,2.7725,0.0,0.0,1.4801,1.3843,1.4892,1.5789,1.5821,1.5792,1.5832,1.5832,1.5832,1.5832,1.5832,1.5832,1.5832,1.5832,1.5832,1.5832,1.5832,1.5832,1.5832,1.5832,1.5832,1.5772,1.5658,1.5371,1.4763,1.3808,1.3167,1.2621,1.2198,1.229,1.2759,1.3528,1.3863,1.4081,1.4179,1.505,1.5424,1.5424,1.5712,1.5832,1.5832,1.5832,1.5832,1.5832,1.5832,1.5832,1.5832,1.5832,1.5832,1.5832,1.5832,1.5832,1.5832,1.5832,1.6204,1.6574,1.6574,1.6574,1.6574,1.6574,1.6204,1.5832,1.5832,1.5832,1.5832,1.5832,1.5832,1.5758,1.5524,1.5391,1.5217,1.4923,1.4436,1.4148,1.4322,1.348,0.0,1.2592,0.0,1.1022,0.0,0.9846,0.9579,0.9753,0.9172,0.9292,1.0408,1.0802,1.1908,1.3811,1.4754,1.559,1.6426,1.7804,1.868,1.9131,2.0576,2.187,2.3018,2.3919,2.4902,2.5742,2.5742,2.5226,2.4609,2.5333,2.5226,2.4609,2.543,2.584,2.6074,2.6758,2.7129,2.7373,1.4566,1.526,1.5803,1.5814,1.5805,1.5833,1.5839,1.5832,1.5832,1.5832,1.5832,1.5832,1.5832,1.5832,1.5832,1.5832,1.5832,1.5832,1.5832,1.5832,1.5832,1.5832,1.5832,1.5832,1.5832,1.5625,1.5237,1.4649,1.3721,1.3306,1.3259,1.2866,1.3113,1.3903,1.4136,1.4317,1.4516,1.5137,1.5444,1.5538,1.5745,1.5832,1.5832,1.5832,1.5832,1.5832,1.5832,1.5832,1.5832,1.5832,1.5832,1.5832,1.5832,1.5832,1.5832,1.5832,1.5832,1.5832,1.5832,1.5832,1.5832,1.5832,1.5832,1.5832,1.5832,1.5832,1.5832,1.5832,1.5832,1.5832,1.5832,1.5491,1.5204,1.515,1.4689,1.4295,1.4155,1.3601,0.0,1.2665,1.1837,1.1136,1.0728,1.0154,0.0,1.0347,0.98,0.9833,1.0715,1.0909,1.165,1.3171,1.4041,1.4663,1.4963,1.6451,1.7318,1.7692,1.9405,2.0694,2.1472,2.2813,2.4031,2.5118,2.5118,2.4304,2.3276,2.502,2.4707,2.3276,2.4609,2.4913,2.4594,2.5395,2.5629,2.5834,1.5752,1.58,1.579,1.5778,1.5818,1.5818,1.5832,1.5832,1.5832,1.5832,1.5832,1.5832,1.5832,1.5832,1.5832,1.5832,1.5832,1.5832,1.5832,1.5832,1.5832,1.5832,1.5832,1.5832,1.5832,1.5825,1.5538,1.4957,1.4649,1.4371,1.418,1.4173,1.4583,1.5289,1.4699,1.483,1.5384,1.5391,1.5565,1.5825,1.5832,1.5832,1.5832,1.5832,1.5832,1.5832,1.5832,1.5832,1.5832,1.5832,1.5832,1.5832,1.5832,1.5832,1.5832,1.5832,1.5832,1.5832,1.5832,1.5832,1.5832,1.5832,1.5832,1.5832,1.5832,1.5832,1.5832,1.5832,1.5832,1.5832,1.5832,1.5818,1.5538,1.4669,1.477,1.4549,1.3387,1.322,1.2986,1.2378,1.153,1.0995,1.0989,1.0454,0.0,1.0935,1.0969,1.1349,1.2231,1.1456,1.1937,1.4008,1.4362,1.4663,1.4963,1.5538,1.648,1.7692,1.7692,1.859,2.0143,2.0865,2.2197,2.3692,2.3692,2.2968,2.1954,2.4609,2.4097,2.1853,2.3176,2.2868,2.1802,2.2183,2.2548,2.2798,1.5785,1.5799,1.5826,1.5818,1.5832,1.5832,1.5832,1.5832,1.5832,1.5832,1.5832,1.5832,1.5832,1.5832,1.5832,1.5832,1.5832,1.5832,1.5832,1.5832,1.5832,1.5832,1.5832,1.5832,1.5832,1.5832,1.5738,1.5558,1.5064,1.4657,1.4426,1.4426,1.4747,1.5328,1.5161,1.5331,1.5691,1.5691,1.5745,1.5832,1.5832,1.5832,1.5832,1.5832,1.5832,1.5832,1.5832,1.5832,1.5832,1.5832,1.5832,1.5832,1.5832,1.5832,1.5832,1.5832,1.5832,1.5832,1.5832,1.5832,1.5832,1.5832,1.5832,1.5832,1.5832,1.5832,1.5832,1.5832,1.5832,1.5832,1.5832,1.5832,1.5611,1.493,1.4903,1.4623,1.3641,1.334,1.306,1.2652,1.2004,1.159,1.159,1.1236,1.1089,1.1276,1.1102,1.1289,1.1971,1.2325,1.2806,1.3474,1.4549,1.507,1.4963,1.5538,1.6015,1.6386,1.7318,1.8621,2.05,2.0636,2.1368,2.2357,2.2357,2.155,2.0436,2.2265,2.1853,2.0436,2.1752,2.2055,2.1794,2.2175,2.2443,2.2798,1.5838,1.5832,1.5832,1.5832,1.5832,1.5832,1.5832,1.5832,1.5832,1.5832,1.5832,1.5832,1.5832,1.5832,1.5832,1.5832,1.5832,1.5832,1.5832,1.5832,1.5832,1.5832,1.5832,1.5832,1.5832,1.5832,1.5832,1.5832,1.5464,1.519,1.501,1.501,1.5211,1.5558,1.5558,1.5658,1.5832,1.5832,1.5832,1.5832,1.5832,1.5832,1.5832,1.5832,1.5832,1.5832,1.5832,1.5832,1.5832,1.5832,1.5832,1.5832,1.5832,1.5832,1.5832,1.5832,1.5832,1.5832,1.5832,1.5832,1.5832,1.5832,1.5832,1.5832,1.5832,1.5832,1.5832,1.5832,1.5832,1.5832,1.5832,1.5738,1.5511,1.5037,1.487,1.4489,1.3607,1.3327,1.3053,1.2632,1.2251,1.2031,1.2031,1.2071,1.2098,1.2098,1.2231,1.2696,1.3508,1.3199,1.3293,1.3848,1.4863,1.5357,1.5291,1.5651,1.5832,1.5832,1.6574,1.802,1.9902,1.9318,1.9789,2.0947,2.0947,2.0128,1.9013,2.0939,2.0531,1.9013,2.0333,2.0633,2.0151,2.0477,2.0672,2.101,1.5763,1.5838,1.5832,1.5838,1.5838,1.5838,1.5838,1.5838,1.5838,1.5832,1.5832,1.5832,1.5832,1.5832,1.5832,1.5832,1.5832,1.5832,1.5832,1.5832,1.5832,1.5832,1.5832,1.5832,1.5832,1.5832,1.5832,1.5832,1.5832,1.5832,1.5832,1.5832,1.5832,1.5832,1.5832,1.5832,1.5832,1.5832,1.5832,1.5832,1.5832,1.5832,1.5832,1.5832,1.5832,1.5832,1.5832,1.5832,1.5832,1.5832,1.5832,1.5832,1.5832,1.5832,1.5832,1.5832,1.5832,1.5832,1.5832,1.5832,1.5832,1.5832,1.5832,1.5832,1.5832,1.5832,1.5832,1.5832,1.5832,1.5832,1.5832,1.5591,1.5304,1.501,1.4696,1.4188,1.3333,1.3213,1.2993,1.2405,1.2371,1.2398,1.2398,1.2926,1.326,1.324,1.4015,1.4988,1.6067,1.4097,1.3622,1.5122,1.5362,1.5558,1.5825,1.5832,1.5832,1.5832,1.5852,1.6814,1.855,1.7313,1.774,1.942,1.942,1.8708,1.7786,2.0326,1.9922,1.7681,1.9013,1.8708,1.7582,1.7582,1.7776,1.809,1.5767,1.579,1.5757,1.5843,1.5761,1.5761,1.5761,1.5761,1.583,1.5838,1.5832,1.5832,1.5832,1.5832,1.5832,1.5832,1.5832,1.5832,1.5832,1.5832,1.5832,1.5832,1.5832,1.5832,1.5832,1.5832,1.5832,1.5832,1.5832,1.5832,1.5832,1.5832,1.5832,1.5832,1.5832,1.5832,1.5832,1.5832,1.5832,1.5832,1.5832,1.5832,1.5832,1.5832,1.5832,1.5832,1.5832,1.5832,1.5832,1.5832,1.5832,1.5832,1.5832,1.5832,1.5832,1.5832,1.5832,1.5832,1.5832,1.5832,1.5832,1.5832,1.5832,1.5832,1.5832,1.5832,1.5832,1.5832,1.5832,1.5832,1.5832,1.5591,1.5304,1.501,1.4529,1.3961,1.33,1.3213,1.3073,1.2685,1.3046,1.3327,1.3327,1.3661,1.3788,1.3554,1.3941,1.4352,1.4599,1.4514,1.5122,1.6674,1.6023,1.5758,1.5832,1.5832,1.5832,1.5832,1.6059,1.6549,1.72,1.7137,1.7441,1.8094,1.8094,1.7891,1.7687,1.8297,1.8199,1.7582,1.7996,1.7891,1.7582,1.7582,1.7776,1.809,1.5287,1.5843,1.583,1.5787,1.3771,1.2219,1.2271,1.4232,1.5774,1.5817,1.5763,1.5832,1.5832,1.5832,1.5832,1.5832,1.5832,1.5832,1.5832,1.5832,1.5832,1.5832,1.5832,1.5832,1.5832,1.5832,1.5832,1.5832,1.5832,1.5832,1.5832,1.5832,1.5832,1.5832,1.5832,1.5832,1.5832,1.5832,1.5832,1.5832,1.5832,1.5832,1.5832,1.5832,1.5832,1.5832,1.5832,1.5832,1.5832,1.5832,1.5832,1.5832,1.5832,1.5832,1.5832,1.5832,1.5832,1.5832,1.5832,1.5832,1.5832,1.5832,1.5832,1.5832,1.5832,1.5832,1.5832,1.5832,1.5832,1.5832,1.5832,1.5484,1.5104,1.481,1.4382,1.3881,1.3293,1.3327,1.3394,1.336,1.3647,1.3955,1.4222,1.4516,1.4563,1.4269,1.4643,1.5082,1.5451,1.5458,1.5633,1.6366,1.604,1.5832,1.5832,1.5832,1.5832,1.5832,1.5992,1.6293,1.6707,1.6874,1.7181,1.7582,1.7582,1.7582,1.7582,1.7582,1.7582,1.7582,1.7582,1.7582,1.7582,1.7582,1.7689,1.7883,1.375,1.53,1.5833,1.575,1.1428,0.8007,0.7969,1.1778,1.4954,1.5691,1.5803,1.5832,1.5832,1.5832,1.5832,1.5832,1.5832,1.5832,1.5832,1.5832,1.5832,1.5832,1.5832,1.5832,1.5832,1.5832,1.5832,1.5832,1.5832,1.5832,1.5832,1.5832,1.5832,1.5832,1.5832,1.5832,1.5832,1.5832,1.5832,1.5832,1.5832,1.5832,1.5832,1.5832,1.5832,1.5832,1.5832,1.5832,1.5832,1.5832,1.5832,1.5832,1.5832,1.5832,1.5832,1.5832,1.5832,1.5832,1.5832,1.5832,1.5832,1.5832,1.5832,1.5832,1.5832,1.5832,1.5832,1.5832,1.5832,1.5832,1.5832,1.5351,1.487,1.4569,1.4235,1.3828,1.3287,1.35,1.3801,1.4055,1.4202,1.4482,1.4983,1.5251,1.5311,1.511,1.5511,1.6126,1.6978,1.6234,1.5718,1.5471,1.5698,1.5832,1.5832,1.5832,1.5832,1.5832,1.5872,1.6179,1.6707,1.6754,1.7068,1.7582,1.7582,1.7582,1.7582,1.7582,1.7582,1.7582,1.7582,1.7582,1.7582,1.7582,1.7582,1.7622,0.9045,1.2813,1.5797,1.5784,1.1511,0.8028,0.8038,0.8694,1.0761,1.5268,1.5803,1.5832,1.5832,1.5832,1.5832,1.5832,1.5832,1.5832,1.5832,1.5832,1.5832,1.5832,1.5832,1.5832,1.5832,1.5832,1.5832,1.5832,1.5832,1.5832,1.5832,1.5832,1.5832,1.5832,1.5832,1.5832,1.5832,1.5832,1.5832,1.5832,1.5832,1.5832,1.5832,1.5832,1.5832,1.5832,1.5832,1.5832,1.5832,1.5832,1.5832,1.5832,1.5832,1.5832,1.5832,1.5832,1.5832,1.5832,1.5832,1.5832,1.5832,1.5832,1.5832,1.5832,1.5832,1.5832,1.5832,1.5832,1.5832,1.5832,1.5832,1.5351,1.487,1.4569,1.4062,1.3594,1.326,1.3674,1.4035,1.4082,1.4743,1.5231,1.5317,1.5371,1.5478,1.5678,1.5551,1.5638,1.6021,1.5893,1.5805,1.5765,1.5805,1.5832,1.5832,1.5832,1.5832,1.5832,1.6086,1.638,1.6714,1.6967,1.7261,1.7582,1.7582,1.7582,1.7582,1.7582,1.7582,1.7582,1.7582,1.7582,1.7582,1.7582,1.7582,1.7622,0.796,0.996,1.1595,1.155,0.9575,0.8048,0.7994,0.8048,0.9917,1.5164,1.58,1.5797,1.5838,1.5832,1.5832,1.5832,1.5832,1.5832,1.5832,1.5832,1.5832,1.5832,1.5832,1.5832,1.5832,1.5832,1.5832,1.5832,1.5832,1.5832,1.5832,1.5832,1.5832,1.5832,1.5832,1.5832,1.5832,1.5832,1.5832,1.5832,1.5832,1.5832,1.5832,1.5832,1.5832,1.5832,1.5832,1.5832,1.5832,1.5832,1.5832,1.5832,1.5832,1.5832,1.5832,1.5832,1.5832,1.5832,1.5832,1.5832,1.5832,1.5832,1.5832,1.5832,1.5832,1.5832,1.5832,1.5832,1.5832,1.5832,1.5832,1.5484,1.5097,1.481,1.4396,1.4068,1.3935,1.4148,1.4436,1.4756,1.515,1.5458,1.5611,1.5631,1.5685,1.5818,1.5705,1.5691,1.5818,1.5832,1.5832,1.5832,1.5832,1.5832,1.5832,1.5832,1.5832,1.5832,1.5972,1.6273,1.6707,1.6847,1.7154,1.7582,1.7582,1.7582,1.7582,1.7582,1.7582,1.7582,1.7582,1.7582,1.7582,1.7582,1.7582,1.7602,0.7984,0.796,0.7953,0.797,0.796,0.7967,0.8028,0.7991,0.9465,1.347,1.5061,1.5813,1.5823,1.5817,1.5803,1.577,1.577,1.5757,1.5832,1.5832,1.5832,1.5832,1.5832,1.5832,1.5832,1.5832,1.5832,1.5832,1.5832,1.5832,1.5832,1.5832,1.5832,1.5832,1.5832,1.5832,1.5832,1.5832,1.5832,1.5832,1.5832,1.5832,1.5832,1.5832,1.5832,1.5832,1.5832,1.5832,1.5832,1.5832,1.5832,1.5832,1.5832,1.5832,1.5832,1.5832,1.5832,1.5832,1.5832,1.5832,1.5832,1.5832,1.5832,1.5832,1.5832,1.5832,1.5832,1.5832,1.5832,1.5832,1.5832,1.5591,1.5304,1.501,1.477,1.4596,1.4529,1.4636,1.489,1.5344,1.5458,1.5585,1.5805,1.5832,1.5832,1.5832,1.5832,1.5832,1.5832,1.5832,1.5832,1.5832,1.5832,1.5832,1.5832,1.5832,1.5832,1.5832,1.5832,1.6139,1.6707,1.6707,1.7027,1.7582,1.7582,1.7582,1.7582,1.7582,1.7582,1.7582,1.7582,1.7582,1.7582,1.7582,1.7582,1.7582,0.8035,0.8031,0.8031,0.8031,0.8031,0.8031,0.8038,0.7991,0.8153,0.8554,1.2834,1.5778,1.5771,1.5771,1.5816,1.58,1.5787,1.5836,1.5838,1.5832,1.5832,1.5832,1.5832,1.5832,1.5832,1.5832,1.5832,1.5832,1.5832,1.5832,1.5832,1.5832,1.5832,1.5832,1.5832,1.5832,1.5832,1.5832,1.5832,1.5832,1.5832,1.5832,1.5832,1.5832,1.5832,1.5832,1.5832,1.5832,1.5832,1.5832,1.5832,1.5832,1.5832,1.5832,1.5832,1.5832,1.5832,1.5832,1.5832,1.5832,1.5832,1.5832,1.5832,1.5832,1.5832,1.5832,1.5832,1.5832,1.5832,1.5832,1.5832,1.5591,1.5304,1.501,1.4943,1.4836,1.4556,1.499,1.5351,1.5391,1.5631,1.5805,1.5825,1.5832,1.5832,1.5832,1.5832,1.5832,1.5832,1.5832,1.5832,1.5832,1.5832,1.5832,1.5832,1.5832,1.5832,1.5832,1.5832,1.6139,1.6707,1.6707,1.7027,1.7582,1.7582,1.7582,1.7582,1.7582,1.7582,1.7582,1.7582,1.7582,1.7582,1.7582,1.7582,1.7582,0.8038,0.8038,0.8038,0.8038,0.8038,0.8038,0.8038,0.8021,0.7994,0.796,0.9768,1.097,1.0919,1.0914,1.0997,1.0964,1.3919,1.578,1.5836,1.577,1.5832,1.5832,1.5832,1.5832,1.5832,1.5832,1.5832,1.5832,1.5832,1.5832,1.5832,1.5832,1.5832,1.5832,1.5832,1.5832,1.5832,1.5832,1.5832,1.5832,1.5832,1.5832,1.5832,1.5832,1.5832,1.5832,1.5832,1.5832,1.5832,1.5832,1.5832,1.5832,1.5832,1.5832,1.5832,1.5832,1.5832,1.5832,1.5832,1.5832,1.5832,1.5832,1.5832,1.5832,1.5832,1.5832,1.5832,1.5832,1.5832,1.5832,1.5832,1.5738,1.5625,1.5518,1.5351,1.5257,1.5324,1.5371,1.5464,1.5645,1.5758,1.5832,1.5832,1.5832,1.5832,1.5832,1.5832,1.5832,1.5832,1.5832,1.5832,1.5832,1.5832,1.5832,1.5832,1.5832,1.5832,1.5832,1.5832,1.6039,1.644,1.662,1.6927,1.7321,1.7502,1.7582,1.7582,1.7582,1.7582,1.7582,1.7582,1.7582,1.7582,1.7582,1.7582,1.7582,0.8038,0.8038,0.8038,0.8038,0.8038,0.8038,0.8038,0.8038,0.8024,0.7987,0.798,0.7967,0.8024,0.8021,0.8014,0.7997,1.1298,1.4057,1.5698,1.5797,1.5832,1.5832,1.5832,1.5832,1.5832,1.5832,1.5832,1.5832,1.5832,1.5832,1.5832,1.5832,1.5832,1.5832,1.5832,1.5832,1.5832,1.5832,1.5832,1.5832,1.5832,1.5832,1.5832,1.5832,1.5832,1.5838,1.5939,1.5972,1.5985,1.6072,1.6106,1.6086,1.5999,1.5905,1.5832,1.5832,1.5832,1.5832,1.5832,1.5832,1.5832,1.5832,1.5832,1.5832,1.5832,1.5832,1.5832,1.5832,1.5832,1.5832,1.5832,1.5832,1.5832,1.5832,1.5665,1.5605,1.5798,1.5658,1.5605,1.5805,1.5832,1.5832,1.5832,1.5832,1.5832,1.5832,1.5832,1.5832,1.5832,1.5832,1.5832,1.5832,1.5832,1.5832,1.5832,1.5832,1.5832,1.5832,1.5832,1.5985,1.6286,1.6573,1.6867,1.7161,1.7455,1.7582,1.7582,1.7582,1.7582,1.7582,1.7582,1.7582,1.7582,1.7582,1.7582,1.7582,0.8038,0.8038,0.8038,0.8038,0.8038,0.8038,0.8038,0.8038,0.8038,0.8038,0.8038,0.8038,0.8038,0.8038,0.8018,0.796,0.7953,1.0236,1.5486,1.579,1.5832,1.5832,1.5832,1.5832,1.5832,1.5832,1.5832,1.5832,1.5832,1.5832,1.5832,1.5832,1.5832,1.5832,1.5832,1.5832,1.5832,1.5832,1.5832,1.5832,1.5832,1.5832,1.5832,1.5832,1.5832,1.5872,1.6166,1.6273,1.6319,1.6607,1.6707,1.6653,1.6366,1.6072,1.5838,1.5832,1.5832,1.5832,1.5832,1.5832,1.5832,1.5832,1.5832,1.5832,1.5832,1.5832,1.5832,1.5832,1.5832,1.5832,1.5832,1.5832,1.5832,1.5832,1.5832,1.5832,1.5832,1.5832,1.5832,1.5832,1.5832,1.5832,1.5832,1.5832,1.5832,1.5832,1.5832,1.5832,1.5832,1.5832,1.5832,1.5832,1.5832,1.5832,1.5832,1.5832,1.5832,1.5832,1.5832,1.5985,1.6279,1.6573,1.6867,1.7161,1.7455,1.7582,1.7582,1.7582,1.7582,1.7582,1.7582,1.7582,1.7582,1.7582,1.7582,1.7582,0.8038,0.8038,0.8038,0.8038,0.8038,0.8038,0.8038,0.8038,0.8038,0.8038,0.8038,0.8038,0.8038,0.8038,0.8031,0.8014,0.8038,1.0259,1.5471,1.575,1.5832,1.5832,1.5832,1.5832,1.5832,1.5832,1.5832,1.5832,1.5832,1.5832,1.5832,1.5832,1.5832,1.5832,1.5832,1.5832,1.5832,1.5832,1.5832,1.5832,1.5832,1.5832,1.5832,1.5832,1.5959,1.6152,1.6239,1.64,1.6587,1.6673,1.6707,1.6693,1.6607,1.6513,1.64,1.6199,1.6139,1.6092,1.5885,1.5832,1.5832,1.5832,1.5832,1.5832,1.5832,1.5832,1.5832,1.5832,1.5832,1.5832,1.5832,1.5832,1.5832,1.5832,1.5832,1.5832,1.5832,1.5832,1.5832,1.5832,1.5832,1.5832,1.5832,1.5832,1.5832,1.5832,1.5832,1.5832,1.5832,1.5832,1.5832,1.5832,1.5832,1.5832,1.5832,1.5832,1.5832,1.5832,1.5832,1.5879,1.5979,1.648,1.6754,1.6867,1.7368,1.7582,1.7582,1.7582,1.7582,1.7582,1.7582,1.7582,1.7582,1.7582,1.7582,1.7582,0.8038,0.8038,0.8038,0.8038,0.8038,0.8038,0.8038,0.8038,0.8038,0.8038,0.8038,0.8038,0.8038,0.8038,0.8038,0.8038,0.987,1.1502,1.2657,1.3718,1.4746,1.5767,1.449,1.4339,1.5737,1.5832,1.5832,1.5832,1.5832,1.5832,1.5832,1.5832,1.5832,1.5832,1.5832,1.5832,1.5832,1.5832,1.5832,1.5832,1.5832,1.5832,1.5832,1.5832,1.5939,1.6126,1.6359,1.656,1.674,1.6974,1.6974,1.6881,1.6881,1.68,1.6667,1.65,1.6359,1.6233,1.6052,1.5919,1.5832,1.5832,1.5832,1.5832,1.5832,1.5832,1.5832,1.5832,1.5832,1.5832,1.5832,1.5832,1.5832,1.5832,1.5832,1.5832,1.5832,1.5832,1.5832,1.5832,1.5832,1.5832,1.5832,1.5832,1.5832,1.5832,1.5832,1.5832,1.5832,1.5832,1.5832,1.5832,1.5832,1.5832,1.5832,1.5832,1.5832,1.5832,1.5832,1.5832,1.5845,1.644,1.6707,1.674,1.7328,1.7582,1.7582,1.7582,1.7582,1.7582,1.7582,1.7582,1.7582,1.7582,1.7582,1.7582,0.8038,0.8038,0.8038,0.8038,0.8038,0.8038,0.8038,0.8038,0.8038,0.8038,0.8038,0.8038,0.8038,0.8038,0.8038,0.8038,1.2376,1.3258,0.8951,1.0457,1.2571,1.4996,1.2257,1.2073,1.5,1.5419,1.5635,1.5635,1.573,1.5832,1.5832,1.5832,1.5832,1.5832,1.5832,1.5832,1.5832,1.5832,1.5832,1.5832,1.5832,1.5832,1.5832,1.5832,1.5858,1.5979,1.6513,1.674,1.6867,1.7402,1.7408,1.7188,1.7188,1.7001,1.6774,1.672,1.652,1.6299,1.6246,1.6039,1.5832,1.5832,1.5832,1.5832,1.5832,1.5832,1.5832,1.5832,1.5832,1.5832,1.5832,1.5832,1.5832,1.5832,1.5832,1.5832,1.5832,1.5832,1.5832,1.5832,1.5832,1.5832,1.5832,1.5832,1.5832,1.5832,1.5832,1.5832,1.5832,1.5832,1.5832,1.5832,1.5832,1.5832,1.5832,1.5832,1.5832,1.5832,1.5832,1.5832,1.5845,1.644,1.6707,1.674,1.7328,1.7582,1.7582,1.7582,1.7582,1.7582,1.7582,1.7582,1.7582,1.7582,1.7582,1.7582,0.8038,0.8038,0.8038,0.8038,0.8038,0.8038,0.8038,0.8038,0.8038,0.8038,0.8038,0.8038,0.8038,0.8038,0.8038,0.8038,0.9,1.0956,1.3955,1.0858,0.9103,0.9702,1.0941,1.0964,0.9731,1.2693,1.4268,1.4268,1.5337,1.5832,1.5832,1.5832,1.5832,1.5832,1.5832,1.5832,1.5832,1.5832,1.5832,1.5832,1.5832,1.5832,1.5832,1.5832,1.6112,1.6533,1.666,1.7001,1.7408,1.7542,1.7542,1.7488,1.7488,1.7442,1.7301,1.684,1.666,1.6506,1.6052,1.5879,1.5832,1.5832,1.5832,1.5832,1.5832,1.5832,1.5832,1.5832,1.5832,1.5832,1.5832,1.5832,1.5832,1.5832,1.5832,1.5832,1.5832,1.5832,1.5832,1.5832,1.5832,1.5832,1.5832,1.5832,1.5832,1.5832,1.5832,1.5832,1.5832,1.5832,1.5832,1.5832,1.5832,1.5832,1.5832,1.5832,1.5832,1.5832,1.5832,1.5832,1.5845,1.644,1.6707,1.674,1.7328,1.7582,1.7582,1.7582,1.7582,1.7582,1.7582,1.7582,1.7582,1.7582,1.7582,1.7582,0.8038,0.8038,0.8038,0.8038,0.8038,0.8038,0.8038,0.8038,0.8038,0.8038,0.8038,0.8038,0.8038,0.8038,0.8038,0.8038,0.7987,0.9155,1.1893,1.1898,1.0635,0.8146,1.0151,1.0676,0.9263,1.1099,1.2328,1.2915,1.359,1.4274,1.4854,1.4854,1.5242,1.5832,1.5832,1.5832,1.5832,1.5832,1.5832,1.5832,1.5832,1.5832,1.5832,1.5832,1.6019,1.6306,1.6446,1.6874,1.7402,1.7535,1.7582,1.7582,1.7582,1.7582,1.7522,1.7215,1.6927,1.664,1.6333,1.6039,1.5832,1.5832,1.5832,1.5832,1.5832,1.5832,1.5832,1.5832,1.5832,1.5832,1.5832,1.5832,1.5832,1.5832,1.5832,1.5832,1.5832,1.5832,1.5832,1.5832,1.5832,1.5832,1.5832,1.5832,1.5832,1.5832,1.5832,1.5832,1.5832,1.5832,1.5832,1.5832,1.5832,1.5832,1.5832,1.5832,1.5832,1.5832,1.5832,1.5832,1.5845,1.6293,1.6573,1.6734,1.7181,1.7455,1.7582,1.7582,1.7582,1.7582,1.7582,1.7582,1.7582,1.7582,1.7582,1.7582,0.8035,0.8038,0.8038,0.8038,0.8038,0.8038,0.8038,0.8038,0.8038,0.8038,0.8038,0.8038,0.8038,0.8038,0.8038,0.8038,0.7997,0.7984,0.8021,1.2038,1.2974,0.945,0.9888,1.0177,1.0203,1.0413,1.0998,1.1945,1.1945,1.2431,1.3584,1.3584,1.4076,1.5146,1.5343,1.5439,1.5534,1.573,1.5832,1.5832,1.5832,1.5832,1.5832,1.5832,1.5865,1.5939,1.6186,1.662,1.7121,1.7408,1.7508,1.7515,1.7569,1.7582,1.7562,1.7462,1.7088,1.6687,1.658,1.6199,1.5832,1.5832,1.5832,1.5832,1.5832,1.5832,1.5832,1.5832,1.5832,1.5832,1.5832,1.5832,1.5832,1.5832,1.5832,1.5832,1.5832,1.5832,1.5832,1.5832,1.5832,1.5832,1.5832,1.5832,1.5832,1.5832,1.5832,1.5832,1.5832,1.5832,1.5832,1.5832,1.5832,1.5832,1.5832,1.5832,1.5832,1.5832,1.5832,1.5832,1.5838,1.6139,1.64,1.6647,1.6947,1.7241,1.7508,1.7508,1.7542,1.7582,1.7582,1.7582,1.7582,1.7582,1.7582,1.7582,0.8014,0.8038,0.8038,0.8038,0.8038,0.8038,0.8038,0.8038,0.8038,0.8038,0.8038,0.8038,0.8038,0.8038,0.8038,0.8038,0.8031,0.8011,0.7967,0.8619,1.0766,1.4545,1.0663,0.8322,0.8361,1.1246,1.2464,1.1945,1.1945,1.1945,1.2139,1.2139,1.2237,1.2431,1.3686,1.4166,1.4262,1.5337,1.5832,1.5832,1.5832,1.5832,1.5832,1.5832,1.5985,1.6219,1.6259,1.6486,1.6814,1.7108,1.7208,1.7248,1.7502,1.7582,1.7482,1.6974,1.6767,1.6593,1.6086,1.5892,1.5832,1.5832,1.5832,1.5832,1.5832,1.5832,1.5832,1.5832,1.5832,1.5832,1.5832,1.5832,1.5832,1.5832,1.5832,1.5832,1.5832,1.5832,1.5832,1.5832,1.5832,1.5832,1.5832,1.5832,1.5832,1.5832,1.5832,1.5832,1.5832,1.5832,1.5832,1.5832,1.5832,1.5832,1.5832,1.5832,1.5832,1.5832,1.5832,1.5832,1.5838,1.6139,1.6293,1.6346,1.664,1.6934,1.7208,1.7208,1.7355,1.7582,1.7582,1.7582,1.7582,1.7582,1.7582,1.7582,0.7986,0.8014,0.8041,0.8024,0.8038,0.8038,0.8038,0.8038,0.8038,0.8038,0.8038,0.8038,0.8038,0.8038,0.8038,0.8038,0.8038,0.8028,0.8004,0.8024,0.9046,1.1363,0.9244,0.8011,0.7957,0.9521,1.1067,1.2655,1.2181,1.2237,1.3006,1.3006,1.3006,1.3006,1.368,1.3488,1.2909,1.4172,1.4752,1.4752,1.5534,1.5832,1.5832,1.5832,1.5912,1.6046,1.6213,1.6359,1.6506,1.68,1.7014,1.7141,1.7108,1.7208,1.7255,1.6827,1.6587,1.6406,1.6146,1.5952,1.5832,1.5832,1.5832,1.5832,1.5832,1.5832,1.5832,1.5832,1.5832,1.5832,1.5832,1.5832,1.5832,1.5832,1.5832,1.5832,1.5832,1.5832,1.5832,1.5832,1.5832,1.5832,1.5832,1.5832,1.5832,1.5832,1.5832,1.5832,1.5832,1.5832,1.5832,1.5832,1.5832,1.5832,1.5832,1.5832,1.5832,1.5832,1.5832,1.5832,1.5832,1.5965,1.6112,1.6279,1.6413,1.6633,1.6901,1.6901,1.6974,1.7108,1.7275,1.7442,1.7582,1.7582,1.7582,1.7582]},{"header":{"parameterUnit":"m.s-1","parameterCategory":1,"la1":30.6,"la2":28.766,"lo1":-90.7593,"lo2":-88.6598,"dy":0.0162,"dx":0.0183,"nx":116,"ny":114,"refTime":"2024-07-01T00:00:00:Z","depth":0,"parameterNumber":3,"parameterNumberName":"V-component_of_WINDS"},"data":[0.0,0.0,0.0,0.0,0.0,0.0,0.0,0.0,0.0,0.0,0.0,0.0,0.0,0.0,0.0,0.0,0.0,0.0,0.0,0.0,0.0,0.0,0.0,0.0,0.0,0.0,0.0,0.0,0.0,0.0,0.0,0.0,0.0,0.0,0.0,0.0,0.0,0.0,0.0,0.0,0.0,0.0,0.0,0.0,0.0,0.0,0.0,0.0,0.0,0.0,0.0,0.0,0.0,0.0,0.0,0.0,0.0,0.0,0.0,0.0,0.0,0.0,0.0,0.0,0.0,0.0,0.0,0.0,0.0,0.0,0.0,0.0,0.0,0.0,0.0,0.0,0.0,0.0,0.0,0.0,0.0,0.0,0.0,0.0,0.0,0.0,0.0,0.0,0.0,0.0,0.0,0.0,0.0,0.0,0.0,0.0,0.0,0.0,0.0,0.0,0.0,0.0,0.0,0.0,0.0,0.0,0.0,0.0,0.0,0.0,0.0,0.0,0.0,0.0,0.0,0.0,0.0,0.0,0.0,0.0,0.0,0.0,0.0,0.0,0.0,0.0,0.0,0.0,0.0,0.0,0.0,0.0,0.0,0.0,0.0,0.0,0.0,0.0,0.0,0.0,0.0,0.0,0.0,0.0,0.0,0.0,0.0,0.0,0.0,0.0,0.0,0.0,0.0,0.0,0.0,0.0,0.0,0.0,0.0,0.0,0.0,0.0,0.0,0.0,0.0,0.0,0.0,0.0,0.0,0.0,0.0,0.0,0.0,0.0,0.0,0.0,0.0,0.0,0.0,0.0,0.0,0.0,0.0,0.0,0.0,0.0,0.0,0.0,0.0,0.0,0.0,0.0,0.0,0.0,0.0,0.0,0.0,0.0,0.0,0.0,0.0,0.0,0.0,0.0,0.0,0.0,0.0,0.0,0.0,0.0,0.0,0.0,0.0,0.0,0.0,0.0,0.0,0.0,0.0,0.0,0.0,0.0,0.0,0.0,0.0,0.0,0.0,0.0,0.0,0.0,0.0,0.0,0.0,0.0,0.0,0.0,0.0,0.0,0.0,0.0,0.0,0.0,0.0,0.0,0.0,0.0,0.0,0.0,0.0,0.0,0.0,0.0,0.0,0.0,0.0,0.0,0.0,0.0,0.0,0.0,0.0,0.0,0.0,0.0,0.0,0.0,0.0,0.0,0.0,0.0,0.0,0.0,0.0,0.0,0.0,0.0,0.0,0.0,0.0,0.0,0.0,0.0,0.0,0.0,0.0,0.0,0.0,0.0,0.0,0.0,0.0,0.0,0.0,0.0,0.0,0.0,0.0,0.0,0.0,0.0,0.0,0.0,0.0,0.0,0.0,0.0,0.0,0.0,0.0,0.0,0.0,0.0,0.0,0.0,0.0,0.0,0.0,0.0,0.0,0.0,0.0,0.0,0.0,0.0,0.0,0.0,0.0,0.0,0.0,0.0,0.0,0.0,0.0,0.0,0.0,0.0,0.0,0.0,0.0,0.0,0.0,0.0,0.0,0.0,0.0,0.0,0.0,0.0,0.0,0.0,0.0,0.0,0.0,0.0,0.0,0.0,0.0,0.0,0.0,0.0,0.0,0.0,0.0,0.0,0.0,0.0,0.0,0.0,0.0,0.0,0.0,0.0,0.0,0.0,0.0,0.0,0.0,0.0,0.0,0.0,0.0,0.0,0.0,0.0,0.0,0.0,0.0,0.0,0.0,0.0,0.0,0.0,0.0,0.0,0.0,0.0,0.0,0.0,0.0,0.0,0.0,0.0,0.0,0.0,0.0,0.0,0.0,0.0,0.0,0.0,0.0,0.0,0.0,0.0,0.0,0.0,0.0,0.0,0.0,0.0,0.0,0.0,0.0,0.0,0.0,0.0,0.0,0.0,0.0,0.0,0.0,0.0,0.0,0.0,0.0,0.0,0.0,0.0,0.0,0.0,0.0,0.0,0.0,0.0,0.0,0.0,0.0,0.0,0.0,0.0,0.0,0.0,0.0,0.0,0.0,0.0,0.0,0.0,0.0,0.0,0.0,0.0,0.0,0.0,0.0,0.0,0.0,0.0,0.0,0.0,0.0,0.0,0.0,0.0,0.0,0.0,0.0,0.0,0.0,0.0,0.0,0.0,0.0,0.0,0.0,0.0,0.0,0.0,0.0,0.0,0.0,0.0,0.0,0.0,0.0,0.0,0.0,0.0,0.0,0.0,0.0,0.0,0.0,0.0,0.0,0.0,0.0,0.0,0.0,0.0,0.0,0.0,0.0,0.0,0.0,0.0,0.0,0.0,0.0,0.0,0.0,0.0,0.0,0.0,0.0,0.0,0.0,0.0,0.0,0.0,0.0,0.0,0.0,0.0,0.0,0.0,0.0,0.0,0.0,0.0,0.0,0.0,0.0,0.0,0.0,0.0,0.0,0.0,0.0,0.0,0.0,0.0,0.0,0.0,0.0,0.0,0.0,0.0,0.0,0.0,0.0,0.0,0.0,0.0,0.0,0.0,0.0,0.0,0.0,0.0,0.0,0.0,0.0,0.0,0.0,0.0,0.0,0.0,0.0,0.0,0.0,0.0,0.0,0.0,0.0,0.0,0.0,0.0,0.0,0.0,0.0,0.0,0.0,0.0,0.0,0.0,0.0,0.0,0.0,0.0,0.0,0.0,0.0,0.0,0.0,0.0,0.0,0.0,0.0,0.0,0.0,0.0,0.0,0.0,0.0,0.0,0.0,0.0,0.0,0.0,0.0,0.0,0.0,0.0,0.0,0.0,0.0,0.0,0.0,0.0,0.0,0.0,0.0,0.0,0.0,0.0,0.0,0.0,0.0,0.0,0.0,0.0,0.0,0.0,0.0,0.0,0.0,0.0,0.0,0.0,0.0,0.0,0.0,0.0,0.0,0.0,0.0,0.0,0.0,0.0,0.0,0.0,0.0,0.0,0.0,0.0,0.0,0.0,0.0,0.0,0.0,0.0,0.0,0.0,0.0,0.0,0.0,0.0,0.0,0.0,0.0,0.0,0.0,0.0,0.0,0.0,0.0,0.0,0.0,0.0,0.0,0.0,0.0,0.0,0.0,0.0,0.0,0.0,0.0,0.0,0.0,0.0,0.0,0.0,0.0,0.0,0.0,0.0,0.0,0.0,0.0,0.0,0.0,0.0,0.0,0.0,0.0,0.0,0.0,0.0,0.0,0.0,0.0,0.0,0.0,0.0,0.0,0.0,0.0,0.0,0.0,0.0,0.0,0.0,0.0,0.0,0.0,0.0,0.0,0.0,0.0,0.0,0.0,0.0,0.0,0.0,0.0,0.0,0.0,0.0,0.0,0.0,0.0,0.0,0.0,0.0,0.0,0.0,0.0,0.0,0.0,0.0,0.0,0.0,0.0,0.0,0.0,0.0,0.0,0.0,0.0,0.0,0.0,0.0,0.0,0.0,0.0,0.0,0.0,0.0,0.0,0.0,0.0,0.0,0.0,0.0,0.0,0.0,0.0,0.0,0.0,0.0,0.0,0.0,0.0,0.0,0.0,0.0,0.0,0.0,0.0,0.0,0.0,0.0,0.0,0.0,0.0,0.0,0.0,0.0,0.0,0.0,0.0,0.0,0.0,0.0,0.0,0.0,0.0,0.0,0.0,0.0,0.0,0.0,0.0,0.0,0.0,0.0,0.0,0.0,0.0,0.0,0.0,0.0,0.0,0.0,0.0,0.0,0.0,0.0,0.0,0.0,0.0,0.0,0.0,0.0,0.0,0.0,0.0,0.0,0.0,0.0,0.0,0.0,0.0,0.0,0.0,0.0,0.0,0.0,0.0,0.0,0.0,0.0,0.0,0.0,0.0,0.0,0.0,0.0,0.0,0.0,0.0,0.0,0.0,0.0,0.0,0.0,0.0,0.0,0.0,0.0,0.0,0.0,0.0,0.0,0.0,0.0,0.0,0.0,0.0,0.0,0.0,0.0,0.0,0.0,0.0,0.0,0.0,0.0,0.0,0.0,0.0,0.0,0.0,0.0,0.0,0.0,0.0,0.0,0.0,0.0,0.0,0.0,0.0,0.0,0.0,0.0,0.0,0.0,0.0,0.0,0.0,0.0,0.0,0.0,0.0,0.0,0.0,0.0,0.0,0.0,0.0,0.0,0.0,0.0,0.0,0.0,0.0,0.0,0.0,0.0,0.0,0.0,0.0,0.0,0.0,0.0,0.0,0.0,0.0,0.0,0.0,0.0,0.0,0.0,0.0,0.0,0.0,0.0,0.0,0.0,0.0,0.0,0.0,0.0,0.0,0.0,0.0,0.0,0.0,0.0,0.0,0.0,0.0,0.0,0.0,0.0,0.0,0.0,0.0,0.0,0.0,0.0,0.0,0.0,0.0,0.0,0.0,0.0,0.0,0.0,0.0,0.0,0.0,0.0,0.0,0.0,0.0,0.0,0.0,0.0,0.0,0.0,0.0,0.0,0.0,0.0,0.0,0.0,0.0,0.0,0.0,0.0,0.0,0.0,0.0,0.0,0.0,0.0,0.0,0.0,0.0,0.0,0.0,0.0,0.0,0.0,0.0,0.0,0.0,0.0,0.0,0.0,0.0,0.0,0.0,0.0,0.0,0.0,0.0,0.0,0.0,0.0,0.0,0.0,0.0,0.0,0.0,0.0,0.0,0.0,0.0,0.0,0.0,0.0,0.0,0.0,0.0,0.0,0.0,0.0,0.0,0.0,0.0,0.0,0.0,0.0,0.0,0.0,0.0,0.0,0.0,0.0,0.0,0.0,0.0,0.0,0.0,0.0,0.0,0.0,0.0,0.0,0.0,0.0,0.0,0.0,0.0,0.0,0.0,0.0,0.0,0.0,0.0,0.0,0.0,0.0,0.0,0.0,0.0,0.0,0.0,0.0,0.0,0.0,0.0,0.0,0.0,0.0,0.0,0.0,0.0,0.0,0.0,0.0,0.0,0.0,0.0,0.0,0.0,0.0,0.0,0.0,0.0,0.0,0.0,0.0,0.0,0.0,0.0,0.0,0.0,0.0,0.0,0.0,0.0,0.0,0.0,0.0,0.0,0.0,0.0,0.0,0.0,0.0,0.0,0.0,0.0,0.0,0.0,0.0,0.0,0.0,0.0,0.0,0.0,0.0,0.0,0.0,0.0,0.0,0.0,0.0,0.0,0.0,0.0,0.0,0.0,0.0,0.0,0.0,0.0,0.0,0.0,0.0,0.0,0.0,0.0,0.0,0.0,0.0,0.0,0.0,0.0,0.0,0.0,0.0,0.0,0.0,0.0,0.0,0.0,0.0,0.0,0.0,0.0,0.0,0.0,0.0,0.0,0.0,0.0,0.0,0.0,0.0,0.0,0.0,0.0,0.0,0.0,0.0,0.0,0.0,0.0,0.0,0.0,0.0,0.0,0.0,0.0,0.0,0.0,0.0,0.0,0.0,0.0,0.0,0.0,0.0,0.0,0.0,0.0,0.0,0.0,0.0,0.0,0.0,0.0,0.0,0.0,0.0,0.0,0.0,0.0,0.0,0.0,0.0,0.0,0.0,0.0,0.0,0.0,0.0,0.0,0.0,0.0,0.0,0.0,0.0,0.0,0.0,0.0,0.0,0.0,0.0,0.0,0.0,0.0,0.0,0.0,0.0,0.0,0.0,0.0,0.0,0.0,0.0,0.0,0.0,0.0,0.0,0.0,0.0,0.0,0.0,0.0,0.0,0.0,0.0,0.0,0.0,0.0,0.0,0.0,0.0,0.0,0.0,0.0,0.0,0.0,0.0,0.0,0.0,0.0,0.0,0.0,0.0,0.0,0.0,0.0,0.0,0.0,0.0,0.0,0.0,0.0,0.0,0.0,0.0,0.0,0.0,0.0,0.0,0.0,0.0,0.0,0.0,0.0,0.0,0.0,0.0,0.0,0.0,0.0,0.0,0.0,0.0,0.0,0.0,0.0,0.0,0.0,0.0,0.0,0.0,0.0,0.0,0.0,0.0,0.0,0.0,0.0,0.0,0.0,0.0,0.0,0.0,0.0,0.0,0.0,0.0,0.0,0.0,0.0,0.0,0.0,0.0,0.0,0.0,0.0,0.0,0.0,0.0,0.0,0.0,0.0,0.0,0.0,0.0,-1.6492,-1.503,0.0,0.0,0.0,0.0,0.0,0.0,0.0,0.0,0.0,0.0,0.0,0.0,0.0,0.0,0.0,0.0,0.0,0.0,0.0,0.0,0.0,0.0,0.0,-0.9279,-0.9515,-0.9999,-1.0333,-1.0443,-1.0339,0.0,0.0,0.0,0.0,0.0,-0.9905,-1.0189,-1.0415,-1.0613,-1.1672,-1.2378,-1.2715,-1.1848,-1.1168,-1.0623,0.0,0.0,0.0,0.0,0.0,0.0,0.0,0.0,0.0,0.0,0.0,0.0,0.0,0.0,0.0,0.0,0.0,0.0,0.0,0.0,0.0,0.0,0.0,0.0,0.0,0.0,0.0,0.0,0.0,0.0,0.0,0.0,0.0,0.0,0.0,0.0,0.0,0.0,0.0,0.0,0.0,0.0,0.0,0.0,0.0,0.0,0.0,0.0,0.0,0.0,0.0,0.0,0.0,0.0,0.0,0.0,0.0,0.0,0.0,0.0,0.0,0.0,0.0,0.0,0.0,0.0,0.0,0.0,0.0,0.0,-2.101,-1.9185,0.0,0.0,0.0,0.0,0.0,0.0,0.0,0.0,0.0,0.0,0.0,0.0,0.0,0.0,0.0,0.0,0.0,0.0,0.0,0.0,0.0,-0.8898,-0.9546,-0.975,-1.0156,-1.0943,-1.1346,-1.1531,-1.1429,0.0,0.0,0.0,0.0,-1.0802,-1.0398,-1.1092,-1.1761,-1.2426,-1.4001,-1.54,-1.6548,-1.6053,0.0,0.0,-1.2858,0.0,0.0,0.0,0.0,0.0,0.0,0.0,0.0,0.0,0.0,0.0,0.0,0.0,0.0,0.0,0.0,0.0,0.0,0.0,0.0,0.0,0.0,0.0,0.0,0.0,0.0,0.0,0.0,0.0,0.0,0.0,0.0,0.0,0.0,0.0,0.0,0.0,0.0,0.0,0.0,0.0,0.0,0.0,0.0,0.0,0.0,0.0,0.0,0.0,0.0,0.0,0.0,0.0,0.0,0.0,0.0,0.0,0.0,0.0,0.0,0.0,0.0,0.0,-2.8332,-2.7337,-2.7342,-2.7334,-2.8094,-2.9271,-2.6308,-2.4418,-2.3334,-2.1124,0.0,0.0,0.0,0.0,0.0,0.0,0.0,0.0,0.0,0.0,0.0,0.0,0.0,0.0,0.0,0.0,0.0,0.0,0.0,-1.0131,-1.1464,-1.234,-1.354,-1.5315,-1.4939,-1.4417,-1.3952,0.0,0.0,0.0,-1.167,-1.1895,-1.2411,-1.3413,-1.4257,-1.4919,-1.6884,-1.8827,-2.0682,0.0,0.0,0.0,-1.6239,-1.4682,0.0,0.0,0.0,0.0,0.0,0.0,0.0,0.0,0.0,0.0,0.0,0.0,0.0,0.0,0.0,0.0,0.0,0.0,0.0,0.0,0.0,0.0,0.0,0.0,0.0,0.0,0.0,0.0,0.0,0.0,0.0,0.0,0.0,0.0,0.0,0.0,0.0,0.0,0.0,0.0,0.0,0.0,-1.5048,-1.5327,0.0,0.0,0.0,0.0,0.0,0.0,0.0,0.0,0.0,0.0,0.0,0.0,0.0,-2.015,-2.4669,-2.5942,-2.7145,-2.8507,-3.0649,-3.0912,-2.9638,-3.1594,-3.2631,-3.2826,-3.2348,0.0,-2.6084,-2.3998,0.0,0.0,0.0,0.0,0.0,0.0,0.0,0.0,0.0,0.0,0.0,0.0,0.0,0.0,0.0,0.0,0.0,0.0,0.0,0.0,0.0,-1.392,-1.5027,-1.656,-1.6406,-1.5931,0.0,0.0,0.0,-1.326,-1.3392,-1.3605,-1.3925,-1.5155,-1.685,-1.9,-2.0492,0.0,0.0,0.0,0.0,0.0,0.0,0.0,0.0,0.0,0.0,0.0,0.0,0.0,0.0,0.0,0.0,0.0,0.0,0.0,0.0,0.0,0.0,0.0,0.0,0.0,0.0,0.0,0.0,0.0,0.0,0.0,0.0,0.0,0.0,0.0,0.0,0.0,0.0,0.0,0.0,0.0,0.0,0.0,0.0,0.0,0.0,0.0,0.0,-1.5342,-1.6954,-1.7049,-1.7182,-1.6868,0.0,0.0,0.0,0.0,0.0,0.0,0.0,0.0,0.0,-2.0137,-2.0677,-2.3351,-2.8285,-2.8335,-2.8574,-2.9038,-2.9738,-3.113,-3.3108,-3.4154,-3.4622,-3.4622,-3.4622,-3.3272,-3.0939,-2.824,-2.5882,-2.383,0.0,0.0,0.0,0.0,-2.202,-2.2297,0.0,0.0,0.0,0.0,0.0,0.0,0.0,0.0,0.0,0.0,0.0,0.0,-1.4558,-1.5479,-1.6537,-1.7946,0.0,0.0,0.0,0.0,0.0,-1.4766,-1.4767,-1.4963,-1.5342,-1.738,-1.9958,0.0,0.0,0.0,0.0,0.0,0.0,0.0,0.0,0.0,0.0,0.0,0.0,0.0,0.0,0.0,0.0,0.0,0.0,0.0,0.0,0.0,0.0,0.0,0.0,0.0,0.0,0.0,0.0,0.0,0.0,0.0,0.0,0.0,0.0,0.0,0.0,0.0,0.0,0.0,0.0,0.0,0.0,0.0,0.0,0.0,0.0,0.0,0.0,0.0,0.0,-1.7798,-1.9164,-1.9055,-1.9901,-1.9888,0.0,0.0,0.0,0.0,0.0,0.0,-2.4489,-2.4446,-2.468,-2.5322,-2.4745,-2.6138,-2.9754,-2.9792,-2.9792,-2.9779,-2.9214,-3.0818,-3.4333,-3.4942,-3.5354,-3.557,-3.557,-3.5487,-3.5011,-3.1808,-2.9171,-2.7085,-2.5908,-2.4814,-2.4092,-2.4933,-2.5071,-2.5071,0.0,0.0,0.0,0.0,0.0,0.0,0.0,0.0,0.0,0.0,0.0,-1.4346,0.0,0.0,0.0,0.0,0.0,0.0,0.0,0.0,0.0,-1.5868,-1.5159,-1.542,-1.677,-2.0599,0.0,0.0,0.0,0.0,0.0,0.0,0.0,0.0,0.0,0.0,0.0,0.0,0.0,0.0,0.0,0.0,0.0,0.0,0.0,0.0,0.0,0.0,0.0,0.0,0.0,0.0,0.0,0.0,0.0,0.0,0.0,0.0,0.0,0.0,0.0,0.0,0.0,0.0,0.0,0.0,0.0,0.0,0.0,0.0,0.0,0.0,0.0,0.0,0.0,0.0,0.0,0.0,0.0,-2.1571,-2.3869,0.0,0.0,0.0,0.0,-2.1336,-2.5023,-2.6985,-2.6116,-2.8514,-2.9449,-2.8497,-2.8072,-2.8473,-2.9779,-2.9792,-2.9792,-2.9804,-3.0771,-3.1165,-3.122,-3.3365,-3.4882,-3.5856,-3.5856,-3.6424,-3.6992,-3.3665,-3.1304,-2.9707,-2.83,-2.7181,-2.637,-2.642,-2.6691,-2.713,0.0,0.0,0.0,-0.8891,-0.8891,-0.9106,-0.9709,-1.0031,-1.066,-1.2013,-1.4088,0.0,0.0,0.0,0.0,0.0,0.0,0.0,0.0,0.0,-1.9035,-1.8923,-1.8427,-1.9277,-2.174,-2.3883,0.0,0.0,0.0,0.0,0.0,0.0,0.0,0.0,0.0,0.0,0.0,0.0,0.0,0.0,0.0,0.0,0.0,0.0,0.0,0.0,0.0,0.0,0.0,0.0,0.0,0.0,0.0,0.0,0.0,0.0,0.0,0.0,0.0,0.0,0.0,0.0,0.0,0.0,0.0,0.0,0.0,0.0,0.0,0.0,0.0,0.0,0.0,0.0,0.0,0.0,0.0,0.0,0.0,-2.4892,-2.6203,0.0,-2.5523,-2.6232,-2.687,-2.7074,-2.9421,-3.1209,-3.2125,-3.1582,-3.1469,-3.184,-3.0103,-2.939,-2.9792,-3.1198,-3.1901,-3.1901,-3.1562,-3.1911,-3.2896,-3.371,-3.4692,-3.5885,-3.5885,-3.6456,-3.733,-3.6104,-3.4937,-3.373,-3.2194,-3.0998,-3.0069,-2.9022,-2.8725,-2.89,-0.8957,-0.8936,0.0,-0.9022,-0.9001,-0.9291,-1.0219,-1.0574,-1.1535,-1.3742,-1.5681,-1.761,0.0,0.0,0.0,0.0,0.0,0.0,0.0,0.0,-2.0662,-2.0925,-2.1073,-2.2429,-2.5169,0.0,0.0,0.0,0.0,0.0,0.0,0.0,0.0,0.0,0.0,0.0,0.0,0.0,0.0,0.0,0.0,0.0,-1.8101,0.0,0.0,0.0,0.0,0.0,0.0,0.0,0.0,0.0,0.0,0.0,0.0,0.0,0.0,0.0,0.0,0.0,0.0,0.0,0.0,0.0,0.0,0.0,0.0,0.0,0.0,0.0,0.0,0.0,0.0,0.0,0.0,0.0,0.0,0.0,-2.6608,-2.763,-2.8855,-2.9334,-2.8458,-2.9427,-3.0483,-3.1495,-3.2966,-3.4325,-3.5409,-3.4211,-3.3708,-3.4221,-3.232,-3.0997,-3.0331,-3.2164,-3.3081,-3.3068,-3.2315,-3.2561,-3.36,-3.36,-3.4312,-3.5521,-3.5521,-3.6268,-3.7541,-3.7541,-3.7399,-3.6924,-3.4716,-3.3302,-3.2328,-3.0838,-3.0331,-3.0331,-0.9068,-0.9011,-0.9001,-0.9247,-0.9189,-0.9439,-1.0394,-1.1139,-1.2766,-1.5991,-1.7239,0.0,0.0,0.0,0.0,0.0,0.0,0.0,0.0,-2.2181,-2.1621,-2.169,-2.2897,-2.4625,0.0,0.0,0.0,0.0,0.0,0.0,0.0,0.0,0.0,0.0,0.0,0.0,0.0,0.0,0.0,0.0,0.0,0.0,-2.1799,0.0,0.0,0.0,0.0,0.0,0.0,0.0,0.0,0.0,0.0,0.0,0.0,0.0,0.0,0.0,0.0,0.0,0.0,0.0,0.0,0.0,0.0,0.0,0.0,0.0,0.0,0.0,0.0,0.0,0.0,0.0,0.0,0.0,-2.5577,-2.8008,-2.9684,-2.9729,-3.2003,-3.3051,-3.1779,-3.341,-3.4457,-3.4292,-3.5654,-3.6222,-3.5579,-3.6372,-3.6462,-3.5594,-3.481,-3.3493,-3.1599,-3.2685,-3.3253,-3.3192,-3.3192,-3.3192,-3.3131,-3.3131,-3.3777,-3.4716,-3.4716,-3.5896,-3.7857,-3.7857,-3.8486,-3.9058,-3.5741,-3.3927,-3.2961,-3.186,-3.1468,-3.1386,-0.9208,-0.9208,-0.9208,-0.9293,-0.9274,-0.9755,-1.1283,-1.169,-1.3004,-1.6333,0.0,0.0,0.0,0.0,0.0,0.0,0.0,0.0,-2.2873,0.0,-2.2229,-2.3636,-2.6333,0.0,0.0,0.0,0.0,0.0,0.0,0.0,0.0,0.0,0.0,0.0,0.0,0.0,0.0,0.0,0.0,0.0,0.0,0.0,-2.3749,0.0,0.0,0.0,0.0,0.0,0.0,0.0,0.0,0.0,0.0,0.0,0.0,0.0,0.0,0.0,0.0,0.0,0.0,0.0,0.0,0.0,0.0,0.0,0.0,0.0,0.0,0.0,0.0,0.0,0.0,0.0,0.0,-2.7686,-2.8368,-3.0342,-3.2063,-3.3021,-3.4218,-3.4816,-3.4457,-3.534,-3.5908,-3.5863,-3.6402,-3.6641,-3.6462,-3.7285,-3.7494,-3.6911,-3.6969,-3.6382,-3.4913,-3.5757,-3.59,-3.5423,-3.5038,-3.4619,-3.4274,-3.4274,-3.4842,-3.5831,-3.5831,-3.6825,-3.8428,-3.8428,-3.8806,-3.9175,-3.7083,-3.6162,-3.5658,-3.3394,-3.2089,-3.1386,-0.9358,-0.934,-0.934,-0.9439,-0.9708,-1.0356,-1.1767,-1.2261,-1.379,-1.7422,0.0,0.0,0.0,0.0,0.0,0.0,0.0,0.0,-2.3387,-2.3431,-2.4374,0.0,0.0,0.0,0.0,0.0,0.0,0.0,0.0,0.0,0.0,0.0,0.0,0.0,0.0,0.0,0.0,0.0,0.0,0.0,0.0,0.0,-2.6547,-2.3924,-2.2907,-2.27,-2.115,-2.0034,-1.9266,-1.9099,0.0,0.0,0.0,0.0,0.0,0.0,0.0,0.0,0.0,0.0,0.0,0.0,0.0,0.0,0.0,0.0,0.0,0.0,0.0,0.0,0.0,0.0,0.0,0.0,-2.8837,-3.0617,-3.1526,-3.2617,-3.3724,-3.4786,-3.5504,-3.5923,-3.5923,-3.6492,-3.6881,-3.6881,-3.724,-3.7434,-3.736,-3.8182,-3.8796,-3.9065,-3.8604,-3.8106,-3.7784,-3.7723,-3.7234,-3.6378,-3.6114,-3.5483,-3.4726,-3.4726,-3.506,-3.5644,-3.6144,-3.7189,-3.8507,-3.8996,-3.9598,-4.0054,0.0,0.0,0.0,0.0,-3.2657,-3.2102,-0.95,-0.9421,-0.9412,-0.9649,-1.0275,-1.1021,-1.1957,-1.2784,-1.4731,-1.8772,0.0,0.0,0.0,0.0,0.0,0.0,0.0,0.0,0.0,0.0,0.0,0.0,0.0,0.0,0.0,0.0,0.0,0.0,0.0,0.0,0.0,0.0,0.0,0.0,0.0,0.0,0.0,0.0,0.0,0.0,0.0,0.0,-2.9758,-2.7146,-2.6512,-2.6816,-2.4836,-2.3402,-2.2299,-2.1798,0.0,0.0,0.0,0.0,0.0,0.0,0.0,0.0,0.0,0.0,0.0,0.0,0.0,0.0,0.0,0.0,0.0,0.0,0.0,0.0,0.0,0.0,0.0,0.0,-3.1565,-3.3196,-3.4543,-3.4756,-3.5011,-3.5549,-3.6193,-3.6596,-3.6596,-3.715,-3.7524,-3.7524,-3.8212,-3.8571,-3.8407,0.0,0.0,0.0,0.0,-3.9261,-4.0086,-3.9067,-3.8007,-3.6989,-3.6817,-3.6188,-3.507,-3.4901,-3.4901,-3.4992,-3.6165,-3.7214,-3.8311,-3.9401,-4.0524,-4.1189,-3.904,-3.7542,-3.6339,-3.4373,-3.3589,-3.3503,-0.9649,-0.9633,-0.9633,-0.9691,-1.0335,-1.115,-1.1966,-1.2784,-1.4731,-1.8772,-1.9305,0.0,0.0,0.0,0.0,0.0,0.0,0.0,0.0,0.0,0.0,0.0,0.0,0.0,0.0,0.0,0.0,0.0,0.0,0.0,0.0,0.0,0.0,0.0,0.0,0.0,0.0,0.0,0.0,0.0,0.0,0.0,-3.2673,-3.0466,-2.9702,-2.9623,-2.8096,-2.7079,-2.6359,-2.5656,-2.4576,-2.3316,-2.1951,0.0,0.0,0.0,0.0,0.0,0.0,0.0,0.0,0.0,0.0,0.0,0.0,0.0,0.0,0.0,0.0,0.0,0.0,0.0,0.0,-3.1678,-3.3612,-3.5195,-3.6013,-3.6522,-3.6701,-3.6342,-3.6851,-3.724,-3.724,-3.7823,-3.8197,-3.8197,-3.9484,-4.0262,-4.0217,-4.104,-4.1639,-4.1893,-4.123,-4.0914,-4.1092,-4.0911,-4.0465,-3.9796,-3.8865,0.0,-3.7429,-3.6472,-3.6044,-3.6137,-3.7261,-3.8108,-3.8865,-3.9961,-4.0841,-4.1354,-4.0859,-4.0085,-3.8931,-3.7621,-3.6547,-3.5665,-0.9698,-0.9698,-0.9827,-1.0223,-1.0975,-1.1764,-1.2582,-1.338,-1.505,-1.828,-1.8702,0.0,0.0,0.0,0.0,0.0,0.0,0.0,0.0,0.0,0.0,0.0,0.0,0.0,0.0,0.0,0.0,0.0,0.0,0.0,0.0,0.0,0.0,0.0,0.0,0.0,0.0,0.0,0.0,0.0,0.0,0.0,-3.6042,-3.3243,-3.2128,-3.1951,-3.0553,-2.9409,-2.8487,-2.8155,-2.7114,-2.5796,-2.451,-2.3417,-2.2208,0.0,0.0,0.0,0.0,0.0,0.0,0.0,0.0,0.0,0.0,0.0,0.0,0.0,0.0,-2.7966,-3.0163,0.0,-3.3036,-3.4696,-3.5804,-3.6567,-3.6896,-3.7494,-3.7659,-3.703,-3.7509,-3.7898,-3.7898,-3.8811,-3.9394,-3.9394,-4.0427,-4.1055,-4.1055,-4.1459,-4.1848,-4.2177,-4.1983,-4.2028,-4.2357,-4.2357,-4.1927,-4.1112,-3.9942,-3.8972,-3.8017,-3.6883,-3.6709,-3.7335,-3.8469,-3.9518,-4.035,-4.1468,-4.2139,-4.2357,-4.2357,-4.1288,-3.9715,-3.8543,-3.7463,-3.6352,-0.99,-0.9937,-1.0131,-1.0783,-1.1691,-1.2564,-1.3206,-1.3985,-1.538,-1.7784,-1.8096,-1.9032,-2.1545,-2.1803,-2.1931,0.0,0.0,0.0,0.0,0.0,0.0,0.0,0.0,0.0,0.0,0.0,0.0,0.0,0.0,0.0,0.0,0.0,0.0,0.0,0.0,0.0,0.0,0.0,0.0,0.0,0.0,0.0,-3.8856,-3.5745,-3.4412,-3.4087,-3.2528,-3.104,-2.9835,-2.9689,-2.8716,-2.7416,-2.6372,-2.5587,-2.4614,-2.2291,-2.1531,0.0,0.0,0.0,0.0,0.0,0.0,0.0,0.0,0.0,-2.6643,-2.922,-3.0372,-3.1569,-3.3679,-3.4607,-3.5564,-3.715,-3.7524,-3.7599,-3.7599,-3.8167,-3.8392,-3.7853,-3.8272,-3.8646,-3.8766,-3.9768,-4.0442,-4.0576,-4.1205,-4.1564,-4.1564,-4.1698,-4.2013,-4.2536,-4.2551,-4.2806,-4.3329,-4.3329,-4.282,-4.1932,-4.0746,-3.9697,-3.8725,-3.7586,-3.7599,-3.8559,-3.9711,-4.0916,-4.2029,-4.29,-4.3329,-4.3329,-4.3329,-4.2169,-4.0329,-3.9236,-3.831,-3.7461,-1.0618,-1.0765,-1.0783,-1.0875,-1.215,-1.3206,-1.328,-1.3985,-1.538,-1.7784,-1.8096,-1.9032,-2.1545,-2.1803,-2.239,-2.3804,0.0,0.0,0.0,0.0,0.0,0.0,0.0,0.0,0.0,0.0,0.0,0.0,0.0,0.0,0.0,0.0,0.0,0.0,0.0,0.0,0.0,0.0,0.0,0.0,0.0,0.0,-3.9783,-3.8082,-3.7023,-3.6148,-3.3994,-3.235,-3.109,-3.0422,-2.9312,-2.8163,-2.8099,-2.763,-2.678,-2.5378,0.0,-2.3941,-2.3997,-2.4597,-2.5749,-2.8203,-2.753,-2.7515,0.0,0.0,-3.1345,-3.3395,-3.4831,-3.5804,-3.6088,-3.6656,-3.715,-3.7375,-3.7898,-3.8287,-3.8287,-3.8871,-3.9275,-3.9215,-3.926,-3.9529,-4.0113,-4.0307,-4.0651,-4.122,-4.1878,-4.2252,-4.2252,-4.2806,-4.315,-4.3225,-4.3225,-4.3254,-4.3329,-4.3329,-4.325,-4.3076,-4.1932,-4.1337,-4.1155,-4.0059,-3.9549,-3.9798,-4.0916,-4.2029,-4.3155,-4.325,-4.3329,-4.3329,-4.3329,-4.316,-4.2773,-4.1647,-4.1122,-4.0786,-1.0746,-1.1278,-1.1746,-1.2205,-1.2858,-1.3464,-1.393,-1.4279,-1.5031,-1.6518,-1.7124,-1.7972,-1.9473,-2.006,-2.1013,-2.2648,-2.3969,0.0,0.0,0.0,0.0,0.0,0.0,0.0,0.0,0.0,0.0,0.0,0.0,0.0,0.0,0.0,0.0,0.0,0.0,0.0,0.0,0.0,0.0,0.0,0.0,0.0,-3.9952,-3.8807,-3.7399,-3.5859,-3.4049,-3.2504,0.0,0.0,-2.9826,-2.9237,-2.847,-2.7769,-2.6997,-2.5704,-2.5695,0.0,-2.8726,0.0,0.0,0.0,-3.1879,-3.244,-3.4598,-3.4819,-3.4897,-3.5979,-3.7407,-3.8366,-3.7714,-3.8258,-3.8682,0.0,-3.8811,-3.899,-3.899,-3.923,-3.9275,-3.8871,-3.917,-3.9679,-4.0337,-4.0741,-4.125,-4.1908,-4.2566,-4.2925,-4.2925,-4.318,-4.3329,-4.3329,-4.3329,-4.3329,-4.3329,-4.3329,-4.3524,-4.3898,-4.2748,-4.2435,-4.271,-4.1541,-4.1379,-4.2108,-4.3233,-4.4027,-4.4451,-4.4062,-4.3898,-4.3868,-4.3479,-4.3329,-4.325,-4.2805,-4.2193,-4.1461,-1.1022,-1.1709,-1.2425,-1.3445,-1.3629,-1.382,-1.4396,-1.4488,-1.4793,-1.5582,-1.6395,-1.7293,-1.8317,-1.8941,-1.9984,-2.1656,-2.307,-2.5236,0.0,0.0,0.0,0.0,0.0,0.0,0.0,0.0,0.0,0.0,0.0,0.0,0.0,0.0,0.0,0.0,0.0,0.0,0.0,0.0,0.0,0.0,0.0,0.0,-4.013,-3.9016,-3.7197,-3.501,-3.3363,-3.1698,0.0,0.0,-2.9161,-2.9019,-2.8277,-2.7831,-2.7545,-2.7062,-2.7824,-2.9355,-3.1702,0.0,0.0,-3.4183,-3.5515,-3.6562,-3.6689,-3.7359,-3.806,-3.8361,-3.936,-3.9945,-3.8933,-3.9229,-3.9653,-3.9516,-3.9583,-3.9691,-3.9768,-3.9538,-3.923,-3.8736,-3.8945,-3.9469,-4.0322,-4.0995,-4.1654,-4.2312,-4.297,-4.3329,-4.3329,-4.3329,-4.3419,-4.3599,-4.3599,-4.3688,-4.3868,-4.3868,-4.4122,-4.4586,-4.3769,-4.3583,-4.4049,-4.311,-4.3212,-4.4135,-4.4941,-4.5289,-4.5259,-4.4781,-4.4586,-4.4526,-4.3868,-4.3599,-4.3584,-4.3404,-4.2805,-4.2111,-1.1746,-1.2076,-1.2609,-1.4187,-1.4451,-1.4469,-1.4488,-1.4488,-1.4793,-1.5582,-1.6395,-1.7495,-1.9087,-1.9305,-1.9984,-2.1656,-2.2556,-2.441,-2.7622,-3.0118,0.0,0.0,0.0,0.0,0.0,0.0,0.0,0.0,0.0,0.0,0.0,0.0,0.0,0.0,0.0,0.0,0.0,0.0,0.0,0.0,0.0,0.0,-4.0411,-3.8899,-3.6615,-3.3986,-3.1964,0.0,0.0,0.0,-2.6793,-2.6911,-2.7603,-2.8313,0.0,-3.0775,-3.1795,0.0,0.0,0.0,-3.4979,-3.6428,-3.7882,-3.9044,-3.969,-4.0411,-4.0862,-4.091,-4.0863,-4.0626,-3.98,-3.9617,-3.9632,-3.9699,-4.0041,-4.0477,-4.0646,-3.992,-3.9409,-3.9394,-3.8811,-3.8945,0.0,-4.0995,-4.1654,-4.2312,-4.297,-4.3329,-4.3329,-4.3329,-4.3629,-4.4272,-4.4287,-4.4586,-4.5229,-4.5229,-4.5244,-4.5274,-4.5259,-4.5191,-4.5206,-4.5206,-4.5206,-4.5289,-4.5289,-4.5289,-4.5289,-4.5274,-4.5274,-4.52,-4.4541,-4.4287,-4.4212,-4.3569,-4.325,-4.325,-1.1893,-1.2527,-1.3243,-1.4316,-1.4488,-1.4488,-1.4488,-1.4488,-1.4793,-1.5582,-1.6867,0.0,0.0,0.0,0.0,0.0,-2.2538,-2.4153,-2.6833,-2.9751,0.0,0.0,0.0,0.0,0.0,0.0,0.0,0.0,0.0,0.0,0.0,0.0,0.0,0.0,0.0,0.0,0.0,0.0,0.0,0.0,0.0,0.0,-4.0459,-3.9256,-3.6254,-3.2451,0.0,0.0,0.0,0.0,0.0,0.0,-2.6268,0.0,0.0,-3.0387,0.0,0.0,0.0,0.0,-3.7388,-3.9162,-4.0367,-4.1157,-4.1305,-4.1924,-4.2219,-4.1116,-4.1831,-4.1979,-4.0086,-4.0176,-4.032,-3.9738,-4.0132,-4.039,-3.9895,-4.0362,-4.0232,-3.8901,-3.932,0.0,0.0,0.0,0.0,-4.2359,-4.2566,-4.306,-4.3943,-4.3988,-4.4287,-4.4945,-4.496,-4.5065,-4.5289,-4.5289,-4.5529,-4.5978,-4.6411,-4.6636,-4.6636,-4.6636,-4.6636,-4.6636,-4.6636,-4.6636,-4.6591,-4.6157,-4.5978,-4.5918,-4.5229,-4.496,-4.4885,-4.4227,-4.3988,-4.3928,-1.237,-1.2949,-1.3555,-1.4371,-1.4488,0.0,0.0,0.0,0.0,0.0,0.0,0.0,0.0,0.0,0.0,0.0,0.0,-2.3474,-2.5603,0.0,0.0,0.0,0.0,0.0,0.0,0.0,0.0,0.0,0.0,0.0,0.0,0.0,0.0,0.0,0.0,0.0,0.0,0.0,0.0,0.0,0.0,0.0,-3.8904,-3.7362,-3.4415,0.0,0.0,0.0,0.0,0.0,0.0,0.0,0.0,0.0,0.0,0.0,0.0,-3.4472,0.0,-3.9051,-3.9615,-4.1402,-4.2459,-4.2958,-4.2589,-4.2954,-4.2866,-4.1334,-4.1627,-4.1573,-3.9495,-3.9463,-3.983,-3.9799,-4.0525,-4.1055,-4.1168,-4.1897,-4.1899,-4.0647,-4.0741,-4.0679,0.0,0.0,0.0,-4.1953,-4.2671,-4.3434,-4.4272,-4.4541,-4.496,-4.5648,-4.5663,-4.5768,-4.6007,-4.6007,-4.6232,-4.6681,-4.71,-4.7309,-4.7309,-4.7309,-4.7309,-4.7309,-4.7309,-4.7309,-4.7279,-4.686,-4.6681,-4.6606,-4.5933,-4.5663,-4.5589,-4.49,-4.4511,-4.4212,-1.3151,-1.3335,-1.3611,0.0,0.0,0.0,0.0,0.0,0.0,0.0,0.0,0.0,0.0,0.0,0.0,0.0,0.0,0.0,0.0,0.0,0.0,0.0,0.0,0.0,0.0,-3.2522,0.0,0.0,0.0,0.0,0.0,0.0,0.0,0.0,0.0,0.0,0.0,0.0,0.0,0.0,0.0,0.0,-3.5844,-3.3458,0.0,0.0,0.0,0.0,0.0,0.0,0.0,0.0,0.0,0.0,0.0,0.0,0.0,-3.8142,-3.8954,-4.0223,-4.166,-4.3115,-4.3995,-4.4333,-4.3589,-4.3369,-4.2895,-4.139,-4.0493,-3.948,0.0,0.0,-3.8196,-3.9737,-4.1079,-4.2526,-4.4122,-4.4302,-4.4292,0.0,0.0,0.0,0.0,0.0,0.0,-4.1746,0.0,-4.4302,-4.4407,-4.5005,-4.5663,-4.6352,-4.6367,-4.6681,-4.7294,-4.7309,-4.7309,-4.7309,-4.7309,-4.7309,-4.7309,-4.7309,-4.7309,-4.7309,-4.7309,-4.7309,-4.7309,-4.7309,-4.7309,-4.7249,-4.6621,-4.6367,-4.6292,-4.5603,-4.4945,-4.4317,0.0,0.0,0.0,0.0,0.0,0.0,0.0,0.0,0.0,0.0,0.0,0.0,0.0,0.0,0.0,0.0,0.0,0.0,0.0,0.0,0.0,0.0,0.0,0.0,0.0,0.0,0.0,0.0,0.0,0.0,0.0,0.0,0.0,0.0,0.0,0.0,0.0,0.0,0.0,0.0,0.0,0.0,-3.3421,0.0,0.0,0.0,0.0,0.0,0.0,0.0,0.0,0.0,0.0,0.0,-3.4675,0.0,0.0,-3.9123,-4.095,-4.2134,-4.3081,-4.4045,-4.3995,-4.3656,-4.347,-4.2557,-4.1339,-3.9868,-3.8971,-3.7824,-3.5732,0.0,0.0,-3.8249,-4.0811,0.0,-4.3379,-4.4744,0.0,0.0,0.0,-4.5037,-4.4671,-4.5366,0.0,0.0,-4.4434,-4.4242,-4.5738,-4.5978,-4.6367,-4.704,-4.7055,-4.713,-4.7309,-4.7309,-4.7309,-4.7309,-4.7309,-4.7309,-4.7309,-4.7309,-4.7309,-4.7309,-4.7309,-4.7309,-4.7309,-4.7309,-4.7309,-4.7294,-4.7115,-4.7055,-4.698,-4.6307,-4.5963,-4.5648,0.0,0.0,0.0,0.0,0.0,0.0,0.0,0.0,0.0,0.0,0.0,0.0,0.0,0.0,0.0,0.0,0.0,0.0,0.0,0.0,0.0,0.0,0.0,0.0,0.0,0.0,0.0,0.0,0.0,0.0,0.0,0.0,0.0,0.0,0.0,0.0,0.0,0.0,0.0,0.0,0.0,0.0,0.0,0.0,0.0,0.0,0.0,0.0,0.0,0.0,0.0,-3.2341,-3.3339,-3.4945,-3.6755,-3.8278,0.0,-4.0781,-4.2354,-4.3335,-4.4045,-4.4468,-4.3995,-4.3081,-4.1762,-4.0578,-3.8971,-3.6146,-3.5504,0.0,-3.2493,0.0,0.0,0.0,0.0,0.0,-4.4134,-4.6356,-4.7604,0.0,-4.7417,0.0,-4.731,-4.7642,-4.7732,0.0,-4.6592,-4.6217,-4.6939,-4.7274,-4.7371,-4.7294,-4.7309,-4.7309,-4.7309,-4.7309,-4.7309,-4.7309,-4.7309,-4.7309,-4.7309,-4.7309,-4.7309,-4.7309,-4.7309,-4.7309,-4.7309,-4.7309,-4.7309,-4.7309,-4.7309,-4.7309,-4.7249,-4.689,-4.6576,-4.6217,0.0,0.0,0.0,0.0,0.0,0.0,0.0,0.0,0.0,0.0,0.0,0.0,0.0,0.0,0.0,0.0,0.0,0.0,0.0,0.0,0.0,0.0,0.0,0.0,0.0,0.0,0.0,0.0,0.0,0.0,0.0,0.0,0.0,0.0,0.0,0.0,0.0,0.0,0.0,0.0,0.0,0.0,0.0,0.0,0.0,0.0,0.0,0.0,0.0,0.0,-3.3537,-3.4618,-3.669,-3.8255,-3.958,-4.1068,-4.1948,-4.2608,-4.3369,-4.4062,-4.4553,-4.4451,-4.3842,-4.2489,-3.9529,-3.8125,-3.6231,-3.1935,0.0,-3.1072,-2.9096,-3.163,-3.4404,-3.5453,0.0,-4.3758,-4.5602,-4.8223,-4.9982,-5.0084,-5.0109,-5.0102,-5.0102,-4.9524,-4.8946,-4.8576,-4.9377,-4.9301,-4.7796,-4.8286,-4.8225,-4.7309,-4.7309,-4.7309,-4.7309,-4.7309,-4.7309,-4.7309,-4.7309,-4.7309,-4.7309,-4.7309,-4.7309,-4.7309,-4.7309,-4.7309,-4.7309,-4.7309,-4.7309,-4.7309,-4.7309,-4.7309,-4.7309,-4.7309,-4.695,-4.6441,0.0,0.0,0.0,0.0,0.0,0.0,0.0,-1.6958,-1.8133,0.0,0.0,0.0,0.0,0.0,0.0,0.0,0.0,0.0,0.0,0.0,0.0,0.0,0.0,0.0,0.0,0.0,0.0,0.0,0.0,0.0,0.0,0.0,0.0,0.0,0.0,0.0,0.0,0.0,0.0,0.0,0.0,0.0,0.0,0.0,0.0,0.0,0.0,0.0,0.0,0.0,-3.6597,-3.8864,-3.9882,-4.0483,-4.1119,-4.2608,-4.3115,-4.3386,-4.4164,-4.4468,-4.4418,-4.3775,-4.3047,-4.1711,-3.8768,-3.6535,0.0,0.0,0.0,-2.8298,-2.7283,-2.9651,0.0,-3.5199,0.0,0.0,0.0,0.0,-4.9424,0.0,0.0,0.0,0.0,0.0,0.0,0.0,-5.2686,-5.1214,-4.7598,-4.7478,-4.7452,-4.7309,-4.7309,-4.7309,-4.7309,-4.7309,-4.7309,-4.7309,-4.7309,-4.7309,-4.7309,-4.7309,-4.7309,-4.7309,-4.7309,-4.7309,-4.7309,-4.7309,-4.7309,-4.7309,-4.7309,-4.7309,-4.7309,-4.7309,-4.7234,-4.7055,0.0,0.0,0.0,0.0,0.0,0.0,0.0,-1.795,-1.9179,-2.0443,-2.0609,-2.0427,-1.9968,-1.9546,0.0,0.0,0.0,0.0,0.0,0.0,0.0,0.0,0.0,0.0,0.0,0.0,0.0,0.0,0.0,0.0,0.0,0.0,0.0,0.0,0.0,0.0,0.0,0.0,0.0,0.0,0.0,0.0,0.0,0.0,0.0,0.0,0.0,0.0,0.0,0.0,-3.539,-3.9146,-4.1271,-4.1834,-4.2003,-4.38,-4.387,-4.3627,-4.4776,-4.4869,-4.4401,-4.3606,-4.2574,-4.0747,-3.6992,0.0,0.0,0.0,0.0,-2.5744,-2.4628,0.0,0.0,0.0,0.0,0.0,0.0,0.0,0.0,0.0,0.0,0.0,0.0,0.0,0.0,-5.2714,-5.2627,-5.1776,-4.9773,-4.8692,-4.8072,-4.8072,-4.7609,-4.7309,-4.7309,-4.7309,-4.7309,-4.7309,-4.7309,-4.7309,-4.7309,-4.7309,-4.7309,-4.7309,-4.7309,-4.7309,-4.7309,-4.7309,-4.7309,-4.7309,-4.7309,-4.7309,-4.7309,-4.7309,-4.7309,-4.7249,0.0,0.0,0.0,0.0,0.0,0.0,0.0,-1.8775,-1.995,-2.1804,-2.2061,-2.173,-2.0868,-2.0042,-2.0079,0.0,0.0,0.0,0.0,0.0,0.0,0.0,0.0,0.0,0.0,0.0,0.0,0.0,0.0,0.0,0.0,0.0,0.0,0.0,0.0,0.0,0.0,0.0,0.0,0.0,0.0,0.0,0.0,0.0,0.0,0.0,0.0,0.0,0.0,0.0,-3.2866,-3.6741,-4.0131,-4.156,-4.2352,-4.4009,-4.4173,-4.3955,-4.4801,-4.4915,-4.4538,-4.3457,-4.2185,-3.9986,-3.5318,-3.2544,0.0,0.0,-2.4269,-2.3714,-2.2733,0.0,0.0,0.0,0.0,0.0,0.0,0.0,0.0,0.0,0.0,0.0,0.0,0.0,0.0,-5.2312,-5.2241,-5.2082,-5.1614,-4.9993,-4.9069,-4.8825,-4.8072,-4.7538,-4.7309,-4.7309,-4.7309,-4.7309,-4.7309,-4.7309,-4.7309,-4.7309,-4.7309,-4.7309,-4.7309,-4.7309,-4.7309,-4.7309,-4.7309,-4.7309,-4.7309,-4.7309,-4.7309,-4.7309,-4.7309,-4.7309,0.0,0.0,0.0,0.0,0.0,0.0,0.0,-1.8775,-2.0152,-2.2575,-2.2905,-2.2575,-2.1767,-2.0904,-2.0448,0.0,0.0,0.0,0.0,0.0,0.0,0.0,0.0,0.0,0.0,0.0,0.0,0.0,0.0,0.0,0.0,0.0,0.0,0.0,0.0,0.0,0.0,0.0,0.0,0.0,0.0,0.0,0.0,0.0,0.0,0.0,0.0,0.0,0.0,0.0,0.0,-3.1455,-3.4694,-3.8492,-4.1816,-4.2159,0.0,0.0,-4.3868,-4.4504,-4.4923,-4.2904,-4.1796,-3.9851,-3.4675,0.0,0.0,-2.5302,-2.3427,-2.2682,-2.319,0.0,0.0,0.0,0.0,0.0,0.0,0.0,0.0,0.0,0.0,0.0,0.0,0.0,0.0,-5.3348,-5.3348,-5.2487,-5.0627,-5.032,-4.9773,-4.8825,-4.8743,-4.821,-4.7309,-4.7309,-4.7309,-4.7309,-4.7309,-4.7309,-4.7309,-4.7309,-4.7309,-4.7309,-4.7309,-4.7309,-4.7309,-4.7309,-4.7309,-4.7309,-4.7309,-4.7309,-4.7309,-4.7309,-4.7309,-4.7309,0.0,0.0,0.0,0.0,0.0,0.0,-1.7821,-1.8775,-2.0189,-2.2685,-2.2997,-2.307,-2.3217,-2.2061,-2.1119,0.0,0.0,0.0,0.0,0.0,0.0,0.0,0.0,0.0,0.0,0.0,0.0,0.0,0.0,0.0,0.0,0.0,0.0,0.0,0.0,0.0,0.0,0.0,0.0,0.0,0.0,0.0,0.0,0.0,0.0,0.0,0.0,0.0,0.0,0.0,0.0,0.0,-3.0411,-3.3567,0.0,0.0,-4.1902,-4.2758,-4.46,-4.4956,-4.4474,-4.3219,-4.1733,-3.9276,-3.4489,0.0,-2.8484,-2.52,-2.3325,-2.2395,-2.2682,-2.3342,-2.5,0.0,0.0,0.0,0.0,0.0,0.0,0.0,0.0,0.0,0.0,0.0,-5.3501,-5.3501,-5.3501,-5.3127,-5.2345,-5.1631,-5.0855,-4.9773,-4.915,-4.8293,-4.7309,-4.7309,-4.7309,-4.7309,-4.7309,-4.7309,-4.7309,-4.7309,-4.7309,-4.7309,-4.7309,-4.7309,-4.7309,-4.7309,-4.7309,-4.7309,-4.7309,-4.7309,-4.7309,-4.7309,-4.7309,-4.7309,0.0,0.0,0.0,0.0,0.0,-1.5967,-1.7821,-1.8574,-1.984,-2.2318,-2.2648,-2.2868,-2.3419,-2.2244,-2.1277,-2.0886,-2.0891,0.0,0.0,0.0,0.0,0.0,0.0,0.0,0.0,0.0,0.0,0.0,0.0,0.0,0.0,0.0,0.0,0.0,0.0,0.0,0.0,0.0,0.0,0.0,0.0,0.0,0.0,0.0,0.0,0.0,0.0,0.0,0.0,0.0,0.0,0.0,0.0,0.0,0.0,0.0,-4.0005,-4.1274,-4.3911,-4.4544,-4.4205,-4.3005,-4.118,-3.8567,0.0,0.0,-2.7841,-2.5082,-2.3325,-2.231,-2.231,-2.2902,-2.4222,0.0,-2.7891,-3.0362,-3.569,0.0,0.0,0.0,0.0,0.0,0.0,0.0,-5.3501,-5.3501,-5.3501,-5.3501,-5.3501,-5.2784,-5.1938,-5.0855,-4.9836,-4.8759,-4.7764,-4.7452,-4.7309,-4.7309,-4.7309,-4.7309,-4.7309,-4.7309,-4.7309,-4.7309,-4.7309,-4.7309,-4.7309,-4.7309,-4.7309,-4.7309,-4.7309,-4.7309,-4.7309,-4.7309,-4.7309,-4.7309,0.0,0.0,0.0,0.0,0.0,0.0,-1.7729,-1.8115,-1.8996,-2.149,-2.1821,-2.1821,-2.1821,-2.1051,-2.064,-2.0966,-2.1066,0.0,0.0,0.0,0.0,0.0,0.0,0.0,0.0,0.0,0.0,0.0,0.0,0.0,0.0,0.0,0.0,0.0,0.0,0.0,0.0,0.0,0.0,0.0,0.0,0.0,0.0,0.0,0.0,0.0,0.0,0.0,0.0,0.0,0.0,0.0,0.0,0.0,0.0,0.0,-3.8125,-4.1085,-4.0963,-4.2935,-4.4407,-4.185,-3.9949,-3.7785,0.0,-3.0514,-2.7199,-2.4949,-2.3325,-2.231,-2.231,-2.2902,-2.3883,-2.5389,-2.8146,-3.1376,-3.5115,0.0,0.0,0.0,0.0,0.0,0.0,0.0,-5.3501,-5.3501,-5.3501,0.0,-5.3501,-5.3501,-5.3025,-5.1921,-5.093,-4.9852,-4.8825,-4.7764,-4.7309,-4.7309,-4.7309,-4.7309,-4.7309,-4.7309,-4.7309,-4.7309,-4.7309,-4.7309,-4.7309,-4.7309,-4.7309,-4.7309,-4.7309,-4.7309,-4.7309,-4.7309,-4.7309,-4.7309,0.0,0.0,0.0,0.0,0.0,0.0,0.0,-1.6463,-1.7326,-1.9782,-2.0094,-2.0535,-2.1692,-2.1015,-2.064,-2.0966,-2.1047,0.0,0.0,0.0,0.0,0.0,0.0,0.0,0.0,0.0,0.0,0.0,0.0,0.0,0.0,0.0,0.0,0.0,0.0,0.0,0.0,0.0,0.0,0.0,0.0,0.0,0.0,0.0,0.0,0.0,0.0,0.0,0.0,0.0,0.0,0.0,0.0,0.0,0.0,-2.9418,0.0,0.0,-3.7473,-3.8852,-3.9512,-3.7351,-3.6168,-3.4588,-3.1155,-2.8653,-2.642,-2.4188,-2.2987,-2.231,-2.231,-2.2902,-2.4391,-2.7418,0.0,0.0,0.0,0.0,0.0,0.0,0.0,0.0,0.0,0.0,-5.3501,-5.3501,-5.3501,-5.3501,-5.3501,-5.3501,-5.3025,-5.1921,-5.1614,-5.0611,-4.8825,-4.8527,-4.7988,-4.7309,-4.7309,-4.7309,-4.7309,-4.7309,-4.7309,-4.7309,-4.7309,-4.7309,-4.7309,-4.7309,-4.7309,-4.7309,-4.7309,-4.7309,-4.7309,-4.7309,-4.7309,-4.7309,0.0,0.0,0.0,0.0,0.0,0.0,0.0,-1.5692,-1.6353,-1.8151,-1.8665,-1.9363,-2.0719,-2.0372,-2.0277,-2.0856,-2.096,0.0,0.0,0.0,0.0,0.0,0.0,0.0,0.0,0.0,0.0,0.0,0.0,0.0,0.0,0.0,0.0,0.0,0.0,0.0,0.0,0.0,0.0,0.0,0.0,0.0,-2.419,0.0,0.0,0.0,0.0,0.0,0.0,0.0,0.0,0.0,0.0,0.0,0.0,0.0,-2.887,-3.1671,0.0,-3.5779,-3.6211,-3.5031,-3.3789,-3.2202,-2.9742,-2.7471,-2.5389,-2.3731,-2.2818,-2.231,-2.231,-2.3122,-2.4661,-2.7283,0.0,0.0,0.0,0.0,0.0,0.0,0.0,0.0,0.0,-5.3162,-5.3501,-5.3501,-5.3501,-5.3501,-5.3501,-5.3501,-5.3179,-5.254,-5.2082,-5.1303,-4.9977,-4.9215,-4.8527,-4.7834,-4.7452,-4.7309,-4.7309,-4.7309,-4.7309,-4.7309,-4.7309,-4.7309,0.0,-4.7309,-4.7309,-4.7309,-4.7309,-4.7309,-4.7309,-4.7309,-4.7309,-4.7309,0.0,0.0,0.0,0.0,0.0,0.0,0.0,-1.56,-1.5894,-1.6707,-1.7458,-1.8262,-1.9106,-1.9198,-1.9619,-2.0629,0.0,0.0,0.0,0.0,0.0,0.0,0.0,0.0,0.0,0.0,0.0,0.0,-2.5439,-2.5841,-2.6521,0.0,0.0,0.0,0.0,0.0,0.0,0.0,0.0,0.0,-2.419,-2.419,0.0,0.0,0.0,0.0,0.0,0.0,0.0,0.0,0.0,0.0,0.0,0.0,0.0,0.0,0.0,0.0,0.0,-3.322,-3.4001,-3.3882,-3.2179,-3.026,-2.9297,-2.6646,0.0,-2.346,-2.2784,-2.2378,-2.2581,-2.368,-2.4932,-2.6048,0.0,0.0,0.0,0.0,0.0,0.0,0.0,0.0,-5.1319,-5.2672,-5.3501,-5.3501,-5.3501,-5.3501,-5.3501,-5.3501,-5.3501,-5.3501,-5.254,-5.1993,-5.1921,-4.9899,-4.8907,-4.8825,-4.7764,-4.7309,-4.7309,-4.7309,-4.7309,-4.7309,-4.7309,-4.7309,-4.7309,-4.7309,-4.7309,-4.7309,-4.7309,-4.7309,-4.7309,-4.7309,-4.7309,-4.7309,0.0,0.0,0.0,0.0,0.0,0.0,0.0,0.0,0.0,0.0,-1.6151,-1.6793,-1.8225,-1.839,-1.8775,0.0,0.0,0.0,0.0,0.0,0.0,0.0,0.0,0.0,0.0,0.0,0.0,-2.4483,-2.5713,-2.6098,-2.5695,-2.6943,0.0,0.0,0.0,0.0,0.0,0.0,0.0,0.0,-2.419,-2.419,0.0,0.0,0.0,0.0,-2.419,-2.419,0.0,0.0,0.0,0.0,0.0,0.0,0.0,0.0,-2.4612,-2.5124,-2.6739,0.0,-2.8937,-2.7183,-2.6743,-2.6426,0.0,-2.4228,0.0,0.0,0.0,-2.3004,-2.5253,-2.549,-2.6894,0.0,0.0,0.0,0.0,0.0,0.0,0.0,0.0,0.0,-5.2942,-5.3298,-5.3501,-5.3501,-5.3501,-5.3501,-5.3501,-5.3501,-5.3501,-5.3501,-5.3264,-5.2714,-5.1921,-5.0627,-4.9615,-4.8825,-4.7764,-4.7309,-4.7309,-4.7309,-4.7309,-4.7309,-4.7309,-4.7309,-4.7309,-4.7309,-4.7309,-4.7309,-4.7309,-4.7309,-4.7309,-4.7309,-4.7309,-4.7309,0.0,0.0,0.0,0.0,0.0,0.0,0.0,0.0,0.0,0.0,0.0,0.0,0.0,0.0,0.0,0.0,0.0,0.0,0.0,0.0,0.0,0.0,0.0,0.0,0.0,0.0,0.0,0.0,0.0,-2.6576,0.0,0.0,0.0,0.0,0.0,0.0,0.0,0.0,0.0,0.0,-2.419,0.0,0.0,0.0,0.0,0.0,-2.419,-2.419,0.0,-2.419,-2.419,-2.419,0.0,0.0,0.0,0.0,-2.419,-2.43,-2.4722,-2.6281,-2.7579,-2.6853,-2.636,-2.5905,-2.5335,0.0,0.0,0.0,0.0,0.0,-2.5321,0.0,0.0,0.0,0.0,0.0,0.0,0.0,0.0,0.0,0.0,-5.3501,0.0,-5.3501,-5.3501,-5.3501,-5.3501,-5.3501,-5.3501,-5.3501,-5.3501,-5.3501,-5.3501,-5.3195,-5.2627,-5.1631,-5.0779,-5.0211,-4.8677,-4.7988,-4.7988,-4.7538,-4.7309,-4.7309,-4.7309,-4.7309,-4.7309,-4.7309,-4.7309,-4.7309,-4.7309,-4.7309,-4.7309,-4.7309,-4.7309,-4.7309,0.0,0.0,0.0,0.0,0.0,0.0,0.0,0.0,0.0,0.0,0.0,0.0,0.0,0.0,0.0,0.0,0.0,0.0,0.0,0.0,0.0,0.0,0.0,0.0,0.0,0.0,0.0,0.0,0.0,0.0,0.0,0.0,0.0,0.0,0.0,0.0,0.0,0.0,0.0,0.0,-2.419,0.0,0.0,0.0,0.0,0.0,0.0,0.0,0.0,-2.419,-2.419,-2.419,-2.419,0.0,0.0,0.0,0.0,0.0,-2.4649,-2.6417,-2.8269,-2.8703,-2.7829,-2.6937,0.0,0.0,0.0,0.0,0.0,0.0,0.0,0.0,0.0,0.0,0.0,0.0,0.0,0.0,0.0,0.0,0.0,0.0,-5.3501,-5.3501,-5.3501,-5.3501,-5.3501,-5.3501,-5.3501,-5.3501,-5.3501,-5.3501,-5.3501,-5.3501,-5.3501,-5.247,-5.1921,-5.1921,-4.9993,-4.9054,-4.8988,-4.8157,-4.7694,-4.7538,-4.7538,-4.7452,-4.7309,-4.7309,-4.7309,-4.7309,-4.7309,-4.7309,-4.7309,-4.7309,-4.7309,-4.7309,0.0,0.0,0.0,0.0,0.0,0.0,0.0,0.0,0.0,0.0,0.0,0.0,0.0,0.0,0.0,0.0,0.0,0.0,0.0,0.0,0.0,0.0,0.0,0.0,0.0,0.0,0.0,0.0,0.0,0.0,-2.6833,-2.8297,-2.8132,0.0,0.0,0.0,0.0,0.0,0.0,-2.419,-2.419,0.0,0.0,0.0,0.0,0.0,0.0,0.0,0.0,-2.419,-2.419,-2.419,-2.419,0.0,0.0,0.0,0.0,0.0,-2.6686,-2.8717,-2.9492,-2.6387,-2.6702,-2.7549,0.0,0.0,0.0,0.0,0.0,0.0,0.0,0.0,0.0,0.0,0.0,0.0,0.0,0.0,0.0,0.0,0.0,-5.3501,-5.3501,-5.3501,-5.3501,-5.3501,-5.3501,-5.3501,-5.3501,-5.3501,-5.3501,-5.3501,-5.3501,-5.3501,-5.3501,-5.247,-5.1921,-5.1921,-5.0703,-5.0165,-5.0165,-5.0009,-4.9392,-4.8594,-4.8594,-4.8072,-4.7309,-4.7309,-4.7309,-4.7309,-4.7309,-4.7309,-4.7309,-4.7309,-4.7309,-4.7309,0.0,0.0,0.0,0.0,0.0,0.0,0.0,0.0,0.0,0.0,0.0,0.0,0.0,0.0,0.0,0.0,0.0,0.0,0.0,0.0,0.0,0.0,0.0,0.0,0.0,0.0,0.0,0.0,0.0,-2.7255,-2.7255,-2.7567,-2.709,-2.5897,0.0,0.0,0.0,0.0,0.0,-2.419,0.0,0.0,0.0,0.0,0.0,0.0,0.0,0.0,0.0,0.0,-2.419,-2.419,-2.419,0.0,0.0,0.0,0.0,0.0,-2.5548,-2.778,-2.9348,-2.7565,-2.9476,-3.1576,0.0,0.0,0.0,0.0,0.0,0.0,0.0,0.0,0.0,0.0,0.0,0.0,0.0,0.0,0.0,0.0,0.0,-5.3501,-5.3501,-5.3501,-5.3501,-5.3501,-5.3501,-5.3501,-5.3501,-5.3501,-5.3501,-5.3501,-5.3501,-5.3501,-5.3501,-5.3025,-5.2784,-5.2784,-5.1704,-5.1229,-5.1155,-5.0627,-5.0165,-4.9694,-4.9694,-4.9069,-4.8141,-4.8141,-4.7764,-4.7309,-4.7309,-4.7309,-4.7309,-4.7309,-4.7309,-4.7309,0.0,0.0,0.0,0.0,0.0,0.0,0.0,0.0,0.0,0.0,0.0,0.0,0.0,0.0,0.0,0.0,0.0,0.0,0.0,0.0,0.0,0.0,0.0,0.0,0.0,0.0,0.0,-2.5676,-2.709,-2.7787,-2.7769,-2.6778,-2.5988,0.0,0.0,0.0,0.0,0.0,0.0,-2.419,0.0,0.0,0.0,0.0,0.0,0.0,0.0,0.0,0.0,0.0,0.0,0.0,0.0,0.0,0.0,-2.419,-2.419,-2.4318,-2.4887,-2.6979,-2.9122,-2.969,0.0,0.0,0.0,0.0,0.0,0.0,0.0,0.0,0.0,0.0,0.0,0.0,0.0,0.0,0.0,-4.9069,-5.0574,-5.115,-5.257,-5.3501,-5.3501,-5.3501,-5.3501,-5.3501,-5.3501,-5.3501,-5.3501,-5.3501,-5.3501,-5.3501,-5.3501,-5.3501,-5.3501,-5.3501,-5.3501,-5.3501,-5.2644,-5.2312,-5.2241,-5.1484,-5.1021,-5.0779,-5.0779,-5.0149,-4.915,-4.8907,-4.8377,-4.7694,-4.7694,-4.7694,-4.7609,-4.7381,-4.7309,-4.7309,0.0,0.0,0.0,0.0,0.0,0.0,0.0,0.0,0.0,0.0,0.0,0.0,0.0,0.0,0.0,0.0,0.0,0.0,0.0,0.0,0.0,0.0,0.0,0.0,0.0,-2.4869,-2.5695,-2.6521,-2.7383,-2.7787,-2.7769,-2.6229,-2.5458,-2.5366,0.0,0.0,0.0,0.0,0.0,-2.419,-2.419,0.0,0.0,0.0,0.0,0.0,0.0,0.0,0.0,0.0,0.0,0.0,0.0,0.0,-2.419,-2.419,-2.419,-2.4685,-2.6924,-2.8264,-2.9525,-3.1788,0.0,0.0,0.0,0.0,0.0,0.0,0.0,0.0,0.0,0.0,0.0,0.0,0.0,0.0,-4.8629,0.0,-5.115,-5.1217,-5.257,-5.3501,-5.3501,-5.3501,-5.3501,-5.3501,-5.3501,-5.3501,-5.3501,-5.3501,-5.3501,-5.3501,-5.3501,-5.3501,-5.3501,-5.3501,-5.3501,-5.3501,-5.3433,-5.3348,-5.3348,-5.328,-5.2714,-5.176,-5.176,-5.1229,-5.0242,-4.9215,-4.8743,-4.8677,-4.8677,-4.8677,-4.8594,-4.7609,-4.7309,-4.7309,0.0,0.0,0.0,0.0,0.0,0.0,0.0,0.0,0.0,0.0,0.0,0.0,0.0,0.0,0.0,0.0,0.0,0.0,0.0,0.0,0.0,0.0,0.0,-2.2318,-2.3437,-2.5217,-2.63,-2.6612,-2.6906,-2.6796,-2.6303,-2.5697,0.0,0.0,0.0,0.0,0.0,0.0,0.0,0.0,-2.419,-2.419,0.0,0.0,0.0,0.0,0.0,0.0,0.0,0.0,-2.2593,-2.3033,-2.3364,-2.3804,-2.419,-2.419,-2.419,-2.4392,-2.5309,-2.7383,-2.9592,-3.1057,0.0,0.0,0.0,0.0,0.0,0.0,0.0,0.0,0.0,0.0,0.0,0.0,0.0,0.0,-4.8798,-4.9881,-5.0524,-5.0524,-5.1843,-5.2756,-5.2756,-5.3213,-5.3501,-5.3501,-5.3501,-5.3501,-5.3501,-5.3501,-5.3501,-5.3501,-5.3501,-5.3501,-5.3501,-5.3501,-5.3501,-5.3501,-5.3501,-5.3501,-5.3501,-5.3501,-5.3264,-5.287,-5.287,-5.2329,-5.1303,-5.0914,-5.0381,-4.9773,-4.9773,-4.9376,-4.8743,-4.8377,-4.821,-4.821,0.0,0.0,0.0,0.0,0.0,0.0,0.0,0.0,0.0,0.0,0.0,0.0,0.0,0.0,0.0,0.0,0.0,0.0,0.0,0.0,0.0,0.0,0.0,-2.2006,-2.3364,-2.4997,-2.597,-2.6227,-2.6227,-2.5933,-2.5403,0.0,0.0,0.0,0.0,0.0,0.0,0.0,0.0,0.0,-2.419,-2.419,0.0,0.0,0.0,0.0,0.0,0.0,0.0,0.0,-2.1932,-2.2666,-2.2923,-2.3547,-2.417,-2.4074,-2.4381,-2.4743,-2.4803,-2.7085,-2.9745,0.0,0.0,0.0,0.0,0.0,0.0,0.0,0.0,0.0,0.0,0.0,0.0,0.0,-4.6177,-4.7581,-4.8832,-4.9627,-5.0084,-5.0084,-5.12,-5.1961,-5.1961,-5.2672,-5.3129,-5.3129,-5.3365,-5.3501,-5.3501,-5.3501,-5.3501,-5.3501,-5.3501,-5.3501,-5.3501,-5.3501,-5.3501,-5.3501,-5.3501,-5.3501,-5.3501,-5.3501,-5.3501,-5.3501,-5.3501,-5.3093,-5.24,-5.2082,-5.1451,-5.0855,-5.055,-5.0165,-4.9758,-4.9456,-4.9311,-4.9311,0.0,0.0,0.0,0.0,0.0,0.0,0.0,0.0,0.0,0.0,0.0,0.0,0.0,0.0,0.0,0.0,0.0,0.0,0.0,0.0,0.0,0.0,0.0,-2.1657,-2.4098,-2.4153,-2.4557,-2.5403,-2.5403,-2.5384,-2.5384,-2.4557,0.0,0.0,0.0,0.0,0.0,0.0,0.0,0.0,0.0,-2.419,-2.4025,0.0,0.0,0.0,0.0,0.0,0.0,0.0,-2.107,-2.1914,-2.274,-2.3547,-2.4151,-2.3795,-2.4766,-2.5943,-2.6038,-2.7825,0.0,0.0,0.0,0.0,0.0,0.0,0.0,0.0,0.0,0.0,0.0,0.0,0.0,-4.5466,-4.6955,-4.8173,-4.89,-4.9627,-5.0084,-5.0084,-5.0744,-5.12,-5.12,-5.186,-5.2283,-5.2283,-5.3044,-5.3501,-5.3501,-5.3501,-5.3501,-5.3501,-5.3501,-5.3501,-5.3501,-5.3501,-5.3501,-5.3501,-5.3501,-5.3501,-5.3501,-5.3501,-5.3501,-5.3501,-5.3501,-5.3501,-5.3433,-5.2312,-5.1921,-5.1849,-5.0779,-5.1005,-5.176,-5.0779,-5.0397,-5.0397,0.0,0.0,0.0,0.0,0.0,0.0,0.0,0.0,0.0,0.0,0.0,0.0,0.0,0.0,0.0,0.0,0.0,0.0,0.0,0.0,0.0,0.0,0.0,0.0,0.0,0.0,-2.285,-2.5403,-2.4968,-2.469,0.0,0.0,0.0,-2.419,0.0,0.0,0.0,0.0,0.0,0.0,0.0,-2.419,-2.4025,0.0,0.0,0.0,0.0,0.0,0.0,0.0,0.0,0.0,-2.1896,0.0,-2.4866,-2.3958,-2.498,-2.615,-2.5117,-2.7906,0.0,0.0,0.0,0.0,0.0,0.0,0.0,0.0,0.0,0.0,0.0,0.0,0.0,-4.6312,-4.7293,-4.8173,-4.89,-4.9187,-4.9323,-4.9323,-4.9982,-5.0422,-5.0422,-5.1099,-5.1539,-5.1539,-5.2232,-5.2655,-5.2655,-5.3196,-5.3501,-5.3501,-5.3501,-5.3501,-5.3501,-5.3501,-5.3501,-5.3501,-5.3501,-5.3501,-5.3501,-5.3501,-5.3501,-5.3501,-5.3501,-5.3501,-5.3501,-5.3179,-5.3025,-5.3025,-5.2731,-5.2329,-5.1832,-5.1541,-5.1467,-5.1467,0.0,0.0,0.0,0.0,0.0,0.0,0.0,0.0,0.0,0.0,0.0,0.0,0.0,0.0,0.0,0.0,0.0,0.0,0.0,0.0,0.0,0.0,0.0,0.0,0.0,-2.0984,-2.2404,0.0,0.0,0.0,0.0,0.0,0.0,-2.419,0.0,0.0,0.0,0.0,0.0,0.0,0.0,-2.3914,-2.4025,0.0,0.0,0.0,0.0,0.0,0.0,0.0,0.0,0.0,-2.1125,0.0,0.0,-2.423,-2.5647,-2.7307,-2.742,0.0,0.0,0.0,0.0,0.0,0.0,0.0,0.0,0.0,0.0,0.0,0.0,0.0,0.0,-4.7124,-4.7868,-4.8494,-4.8951,-4.9001,-4.9001,-4.9001,-4.939,-4.9661,-4.9661,-5.0338,-5.076,-5.076,-5.1454,-5.186,-5.186,-5.2334,-5.2604,-5.2604,-5.2604,-5.2604,-5.2604,-5.2604,-5.2604,-5.2604,-5.2892,-5.3027,-5.3044,-5.3348,-5.3501,-5.3501,-5.3501,-5.3501,-5.3501,-5.3501,-5.3501,-5.3501,-5.3501,-5.311,-5.2557,-5.2557,-5.2557,-5.2557,0.0,0.0,-1.0948,-1.1095,0.0,0.0,0.0,0.0,0.0,0.0,0.0,-1.4488,0.0,0.0,0.0,-1.4488,0.0,0.0,0.0,0.0,0.0,0.0,0.0,0.0,0.0,0.0,0.0,0.0,0.0,0.0,0.0,0.0,-2.3437,-2.419,0.0,-2.3749,0.0,0.0,0.0,0.0,-2.2905,-2.3327,-2.3804,-2.2263,0.0,0.0,0.0,0.0,0.0,0.0,0.0,0.0,-2.0613,-2.175,-2.3326,-2.4375,-2.6375,-2.8791,0.0,0.0,0.0,0.0,0.0,0.0,0.0,0.0,0.0,0.0,0.0,0.0,0.0,-4.7462,-4.7225,-4.7902,-4.8578,-4.9001,-4.9001,-4.9001,-4.9001,-4.9001,-4.9001,-4.9001,-4.9001,-4.961,-4.9999,-4.9999,-5.0676,-5.1116,-5.1116,-5.1183,-5.1217,-5.1217,-5.1217,-5.1217,-5.1217,-5.1217,-5.1217,-5.1217,-5.1894,-5.2198,-5.2232,-5.3112,-5.3501,-5.3501,-5.3501,-5.3501,-5.3501,-5.3501,-5.3501,-5.3501,-5.3501,-5.3501,-5.3501,-5.3501,-5.3501,-5.3501,0.0,0.0,-1.1297,-1.2564,0.0,0.0,0.0,0.0,0.0,-1.4488,-1.4488,-1.4488,-1.4488,-1.4488,0.0,-1.4488,-1.4488,0.0,0.0,0.0,0.0,0.0,0.0,0.0,0.0,0.0,0.0,0.0,0.0,0.0,0.0,0.0,0.0,-2.419,0.0,-2.3749,0.0,0.0,0.0,0.0,-2.2061,-2.2152,-2.2189,-2.118,-2.0794,0.0,0.0,0.0,0.0,0.0,0.0,0.0,-2.151,-2.263,-2.382,-2.3195,-2.5328,-2.8184,0.0,0.0,0.0,0.0,0.0,0.0,0.0,0.0,0.0,0.0,0.0,0.0,0.0,-4.8629,-4.8578,-4.8748,-4.89,-4.9001,-4.9001,-4.9001,-4.9001,-4.9001,-4.9001,-4.9001,-4.9001,-4.9137,-4.9238,-4.9238,-4.9915,-5.0338,-5.0338,-5.0896,-5.1217,-5.1217,-5.1217,-5.1217,-5.1217,-5.1217,-5.1217,-5.1217,-5.1369,-5.1454,-5.1505,-5.2875,-5.3501,-5.3501,-5.3501,-5.3501,-5.3501,-5.3501,-5.3501,-5.3501,-5.3501,-5.3501,-5.3501,-5.3501,-5.3501,-5.3501,0.0,0.0,0.0,0.0,0.0,0.0,0.0,0.0,-1.4387,-1.4488,-1.4488,-1.4488,-1.4488,-1.4488,0.0,0.0,-1.4488,-1.4488,0.0,0.0,0.0,0.0,0.0,0.0,0.0,0.0,0.0,0.0,0.0,0.0,0.0,0.0,0.0,-2.474,0.0,-2.34,0.0,0.0,0.0,-2.118,-2.118,-2.1418,-2.1711,-2.0831,-2.0503,-2.0393,-1.9583,0.0,0.0,0.0,0.0,0.0,0.0,0.0,-2.3162,-2.3722,-2.5463,-2.783,0.0,0.0,0.0,0.0,0.0,0.0,0.0,0.0,0.0,0.0,0.0,0.0,-4.8873,-4.8974,-4.9001,-4.9001,-4.9001,-4.9001,-4.9001,-4.9001,-4.9001,-4.9001,-4.9001,-4.9001,-4.9001,-4.9001,-4.9001,-4.9001,-4.9357,-4.956,-4.956,-4.9949,-5.0168,-5.0168,-5.0168,-5.0168,-5.0168,-5.0168,-5.0168,-5.0168,-5.0507,-5.0862,-5.1251,-5.2401,-5.2926,-5.2959,-5.3331,-5.3501,-5.3501,-5.3501,-5.3501,-5.3501,-5.3501,-5.3501,-5.3501,-5.3501,-5.3501,-5.3501,0.0,0.0,0.0,0.0,0.0,0.0,0.0,0.0,0.0,-1.4476,-1.4488,-1.4488,-1.4488,-1.4488,-1.4488,0.0,0.0,0.0,-1.4488,0.0,0.0,0.0,0.0,0.0,0.0,0.0,0.0,0.0,0.0,0.0,0.0,0.0,0.0,-2.5146,0.0,0.0,0.0,0.0,0.0,-2.0283,-2.0283,-2.0721,-2.1288,-2.0574,-2.0283,-2.0225,-1.9528,-1.9381,-1.962,-2.0464,0.0,0.0,0.0,0.0,-2.2188,-2.419,-2.5438,-2.7145,0.0,0.0,0.0,0.0,0.0,0.0,0.0,0.0,0.0,0.0,0.0,-4.7954,-4.8648,-4.8787,-4.8849,-4.8984,-4.9001,-4.9001,-4.9001,-4.9001,-4.9001,-4.9001,-4.9001,-4.9001,-4.9001,-4.9001,-4.9001,-4.9001,-4.9001,-4.9001,-4.9001,-4.9001,-4.9001,-4.9001,-4.9001,-4.9001,-4.9001,-4.9001,-4.9001,-4.9018,-4.961,-5.0236,-5.0862,-5.1589,-5.1995,-5.2147,-5.2959,-5.3298,-5.3315,-5.345,-5.3501,-5.3501,-5.3501,-5.3501,-5.3501,-5.3501,-5.3501,-5.3501,0.0,0.0,0.0,0.0,0.0,0.0,0.0,0.0,0.0,0.0,0.0,-1.4488,-1.4488,-1.4488,-1.4488,-1.4488,-1.4488,-1.4488,0.0,0.0,0.0,0.0,0.0,0.0,0.0,0.0,0.0,0.0,0.0,0.0,0.0,0.0,0.0,0.0,0.0,0.0,0.0,0.0,0.0,-1.9455,-1.9455,-1.9528,-1.9635,-1.9491,-1.9455,-1.9436,-1.9326,-1.9748,-2.0466,-2.1327,-2.2097,0.0,0.0,0.0,-2.1858,-2.2188,-2.3327,0.0,0.0,0.0,0.0,0.0,0.0,0.0,0.0,0.0,0.0,0.0,-4.716,-4.7342,-4.8545,-4.8377,-4.8274,-4.89,-4.9001,-4.9001,-4.9001,-4.9001,-4.9001,-4.9001,-4.9001,-4.9001,-4.9001,-4.9001,-4.9001,-4.9001,-4.9001,-4.9001,-4.9001,-4.9001,-4.9001,-4.9001,-4.9001,-4.9001,-4.9001,-4.9001,-4.9001,-4.9001,-4.9103,-4.9204,-4.9323,-5.005,-5.0744,-5.1403,-5.2147,-5.2469,-5.252,-5.3213,-5.3501,-5.3501,-5.3501,-5.3501,-5.3501,-5.3501,-5.3501,-5.3501,0.0,0.0,0.0,0.0,0.0,0.0,0.0,0.0,0.0,0.0,0.0,-1.4488,-1.4488,-1.4488,-1.4488,-1.4488,-1.4488,0.0,0.0,0.0,0.0,0.0,0.0,0.0,0.0,0.0,0.0,0.0,0.0,0.0,0.0,-2.2795,-2.43,0.0,0.0,0.0,0.0,0.0,0.0,-1.9932,-1.9473,-2.0134,0.0,0.0,-2.0152,-2.1198,0.0,0.0,-2.0023,-2.1345,-2.2024,-2.2409,-2.2868,0.0,0.0,0.0,0.0,0.0,0.0,0.0,0.0,0.0,0.0,0.0,0.0,0.0,0.0,0.0,-4.6866,-4.6777,-4.7415,-4.7675,-4.7779,-4.7759,-4.7767,-4.7902,-4.8342,-4.8392,-4.8545,-4.8951,-4.9001,-4.9001,-4.9001,-4.9001,-4.9001,-4.9001,-4.9001,-4.9001,-4.9001,-4.9001,-4.9001,-4.9001,-4.9001,-4.9001,-4.9001,-4.9001,-4.9001,-4.9001,-4.9001,-4.9001,-4.9018,-4.934,-4.9881,-5.0625,-5.1369,-5.1691,-5.1725,-5.208,-5.2452,-5.2841,-5.2841,-5.3112,-5.3501,-5.3501,-5.3501,-5.3501,0.0,0.0,0.0,0.0,0.0,0.0,0.0,0.0,0.0,0.0,0.0,-1.4488,-1.4488,0.0,0.0,0.0,-1.4488,0.0,0.0,0.0,0.0,0.0,0.0,0.0,0.0,0.0,0.0,0.0,0.0,0.0,-2.3309,-2.3511,-2.608,0.0,-2.7346,0.0,0.0,0.0,0.0,0.0,-2.0482,-2.1345,-2.2905,-2.184,-2.2483,-2.3657,0.0,0.0,0.0,0.0,0.0,0.0,0.0,0.0,0.0,0.0,0.0,0.0,0.0,0.0,0.0,0.0,0.0,0.0,0.0,0.0,0.0,0.0,-4.6477,-4.6447,-4.6134,-4.6775,-4.7338,-4.705,-4.7043,-4.7231,-4.7733,-4.7977,-4.8309,-4.8882,-4.8967,-4.9052,-4.9239,-4.9107,-4.9001,-4.9001,-4.9001,-4.9001,-4.9001,-4.9001,-4.9001,-4.9001,-4.9001,-4.9001,-4.9001,-4.9001,-4.9001,-4.9001,-4.9001,-4.9001,-4.9001,-4.9001,-4.9306,-4.9847,-5.0608,-5.093,-5.0947,-5.1133,-5.164,-5.23,-5.23,-5.279,-5.3501,-5.3501,-5.3501,-5.3501,0.0,0.0,0.0,0.0,0.0,0.0,0.0,0.0,0.0,0.0,0.0,-1.4488,-1.4488,-1.4488,-1.4488,-1.4488,-1.4488,0.0,0.0,0.0,0.0,0.0,0.0,0.0,0.0,0.0,0.0,0.0,0.0,0.0,-2.4153,-2.4925,-2.7442,-3.1219,-2.876,-2.6429,-2.4263,0.0,0.0,0.0,-2.2813,-2.2868,-2.3327,-2.6245,-2.6961,-2.63,0.0,0.0,0.0,0.0,0.0,0.0,0.0,0.0,-2.0525,0.0,0.0,0.0,0.0,0.0,0.0,0.0,0.0,0.0,0.0,0.0,0.0,0.0,-4.5748,-4.6549,-4.4834,-4.5684,-4.6861,-4.7551,-4.7654,-4.7689,-4.7724,-4.8277,-4.8714,-4.891,-4.883,-4.9124,-4.985,-4.9359,-4.9001,-4.9001,-4.9001,-4.9001,-4.9001,-4.9001,-4.9001,-4.9001,-4.9001,-4.9001,-4.9001,-4.9001,-4.9001,-4.9001,-4.9001,-4.9001,-4.9001,-4.9001,-4.9018,-4.9103,-4.983,-5.0152,-5.0202,-5.093,-5.164,-5.23,-5.23,-5.279,-5.3501,-5.3501,-5.3501,-5.3501,0.0,0.0,0.0,0.0,0.0,0.0,0.0,0.0,0.0,0.0,0.0,0.0,0.0,-1.4488,-1.4488,-1.4488,-1.4488,0.0,0.0,0.0,0.0,0.0,0.0,0.0,0.0,0.0,0.0,0.0,0.0,-1.7568,-2.184,-2.2685,-2.4116,-2.6062,-2.7255,-2.7603,-2.709,-2.4226,0.0,0.0,0.0,-2.5016,0.0,-2.6979,-2.8268,-2.9725,0.0,0.0,0.0,0.0,0.0,0.0,-2.1575,-2.1211,-2.0826,-1.9541,0.0,0.0,0.0,0.0,0.0,0.0,0.0,0.0,0.0,0.0,-4.4145,-4.3346,-4.4865,-4.589,-4.4491,-4.5793,-4.7086,-4.6885,-4.6871,-4.7064,-4.7573,-4.7844,-4.8176,-4.873,-4.8766,-4.8837,-4.917,-4.8578,-4.818,-4.818,-4.7843,-4.78,-4.8291,-4.8308,-4.8528,-4.8984,-4.9001,-4.9001,-4.9001,-4.9001,-4.9001,-4.9001,-4.9001,-4.9001,-4.9001,-4.9001,-4.9001,-4.9018,-4.9272,-4.939,-4.9407,-4.9695,-5.0219,-5.093,-5.142,-5.2063,-5.279,-5.3315,-5.3501,-5.3501,0.0,0.0,0.0,-1.4488,0.0,-1.4095,-1.4095,-1.4095,0.0,0.0,0.0,0.0,0.0,0.0,-1.4488,-1.4488,0.0,0.0,0.0,0.0,0.0,0.0,0.0,0.0,0.0,0.0,0.0,0.0,0.0,0.0,0.0,0.0,-2.1951,-2.3088,-2.4942,0.0,0.0,0.0,0.0,-2.5052,0.0,0.0,-2.9085,0.0,-3.137,0.0,0.0,0.0,0.0,0.0,0.0,0.0,0.0,-2.1387,-2.043,-1.8995,0.0,0.0,0.0,0.0,0.0,0.0,0.0,0.0,0.0,0.0,-4.1949,-4.2229,-4.383,-4.4976,-4.4174,-4.5437,-4.6536,-4.6391,-4.6347,-4.6673,-4.7458,-4.7714,-4.8046,-4.858,-4.8639,-4.8728,-4.8994,-4.8207,-4.7709,-4.7709,-4.7124,-4.7005,-4.7513,-4.7547,-4.7767,-4.8257,-4.8511,-4.8646,-4.8646,-4.8883,-4.9001,-4.9001,-4.9001,-4.9001,-4.9001,-4.9001,-4.9001,-4.9001,-4.9001,-4.9001,-4.9001,-4.9001,-4.9424,-5.0135,-5.0642,-5.1285,-5.2029,-5.2807,-5.3112,-5.3145,-1.4352,-1.4488,-1.4488,-1.4488,-1.3838,-1.3335,-1.3335,-1.3335,-1.3335,0.0,0.0,0.0,0.0,0.0,0.0,0.0,0.0,0.0,0.0,0.0,0.0,0.0,0.0,0.0,0.0,0.0,0.0,0.0,0.0,0.0,0.0,0.0,-2.1273,0.0,-2.2061,-2.3052,-2.5274,0.0,-2.5786,-2.6778,0.0,-2.8975,-2.9751,0.0,0.0,0.0,-3.6083,-3.5312,0.0,-3.0802,0.0,0.0,0.0,-2.191,-1.9235,-1.877,0.0,0.0,0.0,0.0,0.0,0.0,0.0,0.0,0.0,0.0,-3.904,-4.0854,-4.2549,-4.3761,-4.3833,-4.4502,-4.5296,-4.6031,-4.6275,-4.6611,-4.7306,-4.7901,-4.8349,-4.8555,-4.8496,-4.8784,-4.9559,-4.8446,-4.764,-4.764,-4.7073,-4.6735,-4.6752,-4.6786,-4.6786,-4.6786,-4.7496,-4.7885,-4.7885,-4.8595,-4.8951,-4.8968,-4.8968,-4.8984,-4.9001,-4.9001,-4.9001,-4.9001,-4.9001,-4.9001,-4.9001,-4.9001,-4.9424,-5.005,-5.0084,-5.0541,-5.1268,-5.1995,-5.2266,-5.2384,-1.4451,-1.4488,-1.4488,-1.4488,-1.4316,-1.4169,-1.4169,-1.4169,-1.4371,0.0,0.0,0.0,0.0,0.0,0.0,0.0,0.0,0.0,0.0,0.0,-1.4488,-1.4488,-1.4488,0.0,0.0,0.0,0.0,0.0,0.0,0.0,0.0,0.0,0.0,0.0,-1.9822,-2.0684,-2.1859,-2.1859,0.0,0.0,-2.6686,-2.8833,0.0,0.0,0.0,0.0,0.0,-3.7101,-3.5724,0.0,-3.2456,-2.9692,0.0,0.0,0.0,-1.9645,-2.1103,0.0,-2.2071,0.0,0.0,0.0,0.0,0.0,0.0,0.0,0.0,-3.6666,-3.871,-4.0536,-4.1866,-4.3235,-4.4382,-4.5001,-4.5638,-4.6309,-4.7085,-4.7311,-4.7526,-4.7723,-4.8084,-4.8275,-4.806,-4.7257,-4.6776,-4.6776,-4.5797,-4.5432,-4.5974,-4.6498,-4.6786,-4.6786,-4.7005,-4.7107,-4.7107,-4.731,-4.7682,-4.8223,-4.8223,-4.8494,-4.9001,-4.9001,-4.9001,-4.9001,-4.9001,-4.9001,-4.9001,-4.9001,-4.912,-4.9357,-4.9881,-5.0219,-5.049,-5.1234,-5.1522,-5.1623,-1.4426,-1.4488,-1.4616,-1.4934,-1.5007,-1.5117,-1.546,-1.5496,-1.5661,0.0,0.0,0.0,0.0,0.0,0.0,0.0,0.0,0.0,0.0,-1.4701,-1.4488,-1.4488,-1.4488,-1.4664,0.0,0.0,0.0,0.0,0.0,0.0,0.0,0.0,0.0,0.0,0.0,-1.861,-1.9968,-1.9274,0.0,0.0,-2.7457,0.0,0.0,-3.5055,-3.7217,0.0,0.0,0.0,-3.8416,-3.7744,-3.5148,0.0,0.0,-2.4292,-2.2504,-2.0569,0.0,0.0,0.0,0.0,0.0,0.0,0.0,0.0,-2.9347,-3.0742,0.0,0.0,-3.6853,-3.8445,-4.0397,-4.1343,-4.2193,-4.3501,-4.4103,-4.4911,-4.6397,-4.6617,-4.6558,-4.644,-4.6952,-4.7197,-4.6964,-4.632,-4.6029,-4.6348,-4.5267,-4.4773,-4.5213,-4.5635,-4.5872,-4.5872,-4.6177,-4.6346,-4.6346,-4.665,-4.7022,-4.7445,-4.7445,-4.7834,-4.8545,-4.8545,-4.8714,-4.9001,-4.9001,-4.9001,-4.9001,-4.9001,-4.9001,-4.9035,-4.9475,-4.9644,-4.9729,-5.0473,-5.0744,-5.0862,0.0,-1.4573,-1.4866,-1.5581,-1.5861,-1.6196,-1.6931,-1.711,-1.7202,0.0,0.0,0.0,0.0,0.0,0.0,0.0,0.0,0.0,0.0,-1.5086,-1.4579,-1.4488,-1.4488,-1.4829,-1.5545,0.0,0.0,0.0,0.0,0.0,0.0,0.0,0.0,0.0,-1.5564,-1.6848,-1.8941,-1.7668,0.0,-2.4498,-2.8962,-3.1586,0.0,0.0,-3.9772,-4.0341,-4.1791,-4.1901,-4.124,-4.0322,-3.7272,0.0,0.0,-2.7486,-2.6552,-2.2117,-2.3337,0.0,0.0,0.0,0.0,0.0,-2.7427,0.0,-3.0919,-3.0907,-3.1072,0.0,-3.5563,-3.6457,-3.8792,-3.8955,-3.9331,-4.1302,-4.1937,-4.2968,-4.5352,-4.5718,-4.5533,-4.498,-4.5415,-4.584,-4.5948,-4.5365,-4.5282,-4.597,-4.5042,-4.4485,-4.4587,-4.4587,-4.4587,-4.4587,-4.5229,-4.5585,-4.5585,-4.6227,-4.6583,-4.6667,-4.6667,-4.7056,-4.78,-4.7885,-4.8274,-4.8883,-4.8968,-4.9001,-4.9001,-4.9001,-4.9001,-4.9001,-4.9001,-4.9001,-4.9086,-4.9729,-4.9965,-5.0067,-1.4481,-1.5016,-1.5524,-1.5679,-1.6766,-1.7687,-1.7833,-1.8419,-1.9069,0.0,0.0,0.0,0.0,0.0,0.0,0.0,0.0,0.0,0.0,-1.5912,-1.5178,-1.4524,-1.4488,-1.4561,-1.4738,-1.4738,0.0,0.0,0.0,0.0,0.0,0.0,0.0,0.0,-1.4738,-1.5716,-1.7408,-1.8181,0.0,-2.3797,-2.5774,0.0,-3.4697,-3.6376,-3.9001,-4.1864,-4.2194,-4.2616,-4.28,-4.1368,-3.883,-3.5729,0.0,-3.1207,-3.0143,-2.6894,-2.7566,-2.9047,-2.7429,-2.8081,-2.8936,-2.7767,0.0,0.0,-2.7391,-2.8062,-2.9292,0.0,-3.0009,-3.1404,-3.4422,-3.6007,-3.6985,-3.7404,-3.9643,-4.204,-4.401,-4.4637,-4.4611,-4.3757,-4.4586,-4.491,-4.3992,-4.3742,-4.3746,-4.3903,-4.3732,-4.3927,-4.4553,-4.4587,-4.4587,-4.4587,-4.4722,-4.479,-4.479,-4.4942,-4.5314,-4.5923,-4.5923,-4.6295,-4.7022,-4.7648,-4.8003,-4.8173,-4.8748,-4.9001,-4.9001,-4.9001,-4.9001,-4.9001,-4.9001,-4.9001,-4.9018,-4.9171,-4.9221,-4.9323,-1.4573,-1.5469,-1.6429,-1.6838,-1.7903,-1.899,-1.9813,-2.0287,-2.0836,0.0,0.0,0.0,0.0,0.0,0.0,0.0,0.0,0.0,0.0,0.0,-1.5509,-1.5123,-1.4719,-1.4873,-1.568,-1.4909,0.0,0.0,0.0,0.0,0.0,0.0,0.0,0.0,0.0,0.0,0.0,0.0,-2.0625,-2.3526,-2.658,0.0,-3.5484,-3.7238,-3.9961,-4.2858,-4.2595,-4.2921,-4.3112,-4.0726,-3.909,0.0,-3.3743,-3.3166,-3.3117,0.0,-3.0109,-3.1483,-2.9372,-2.9891,-3.0832,-3.0033,0.0,0.0,0.0,-2.8242,-2.85,-2.991,-2.9567,-2.9965,-3.322,-3.4156,-3.4724,-3.5532,-3.8046,-3.9995,-4.0239,-4.2231,-4.3318,-4.2201,-4.3152,-4.3584,-4.2845,-4.2987,-4.3032,-4.2842,-4.2838,-4.3031,-4.342,-4.3792,-4.3995,-4.3995,-4.4384,-4.4587,-4.4587,-4.4587,-4.4773,-4.5145,-4.5145,-4.5534,-4.6261,-4.6633,-4.7208,-4.7936,-4.8308,-4.8663,-4.9001,-4.9001,-4.9001,-4.9001,-4.9001,-4.9001,-4.9001,-4.9001,-4.9001,-4.9052,-1.4654,-1.5808,-1.7102,-1.776,-1.894,-2.0232,-2.1587,-2.2063,0.0,0.0,0.0,0.0,0.0,0.0,0.0,0.0,0.0,0.0,0.0,0.0,-1.639,-1.639,-1.5416,-1.5514,-1.6872,-1.5422,-1.5158,0.0,0.0,0.0,0.0,0.0,0.0,0.0,0.0,0.0,0.0,0.0,0.0,-2.4577,0.0,-3.1898,-3.4883,-3.7936,-4.0655,-4.2821,-4.285,-4.3124,-4.3075,-4.0322,-3.9462,-3.8833,-3.4709,-3.4889,0.0,0.0,0.0,-3.3807,0.0,0.0,-3.3051,0.0,0.0,-3.1111,0.0,0.0,0.0,-3.1169,-3.0136,0.0,0.0,0.0,0.0,-3.3615,0.0,0.0,0.0,-3.8815,0.0,-4.0018,-4.1291,-4.2065,-4.1712,-4.1859,-4.2083,-4.2227,-4.1817,-4.1817,-4.2447,-4.2915,-4.3267,-4.342,-4.4028,-4.4418,-4.4587,-4.4587,-4.4587,-4.4587,-4.4587,-4.4891,-4.55,-4.5652,-4.6363,-4.7496,-4.7648,-4.8122,-4.8798,-4.8798,-4.8883,-4.9001,-4.9001,-4.9001,-4.9001,-4.9001,-4.9001,-4.9001,-1.4656,-1.5799,-1.6929,-1.7016,-1.9522,-2.1588,-2.1769,-2.3013,0.0,0.0,0.0,0.0,0.0,0.0,0.0,0.0,0.0,0.0,-2.4613,0.0,0.0,-1.8901,-1.7212,-1.6476,-1.689,-1.5801,-1.5049,0.0,0.0,0.0,0.0,0.0,-1.5553,-1.666,-1.7196,0.0,0.0,0.0,-2.3749,0.0,-2.9497,-3.0196,0.0,-3.5967,-3.881,-4.0579,-4.264,-4.3444,-4.3332,0.0,-4.161,-4.0708,0.0,-3.7813,-3.8465,-3.5172,0.0,0.0,0.0,0.0,0.0,0.0,-3.5056,-3.5426,-2.9545,0.0,-3.0442,-2.8705,0.0,0.0,0.0,0.0,0.0,0.0,0.0,0.0,-3.1559,-3.4128,-3.6255,-3.638,-3.8808,-4.0303,-3.9758,-3.91,-3.9684,-4.195,-4.007,-4.0087,-4.2955,-4.2653,-4.2726,-4.3403,-4.3504,-4.3876,-4.457,-4.4587,-4.4587,-4.4587,-4.4587,-4.4621,-4.4722,-4.5399,-4.5788,-4.5991,-4.6633,-4.7344,-4.8037,-4.8037,-4.8426,-4.9001,-4.9001,-4.9001,-4.9001,-4.9001,-4.9001,-4.9001,-1.4565,-1.6171,-1.7603,-1.7599,-1.9508,-2.1368,-2.2354,-2.4655,0.0,0.0,0.0,0.0,0.0,0.0,0.0,0.0,0.0,-2.5676,0.0,0.0,0.0,-2.0023,-1.8794,-1.8191,-1.8298,-1.6813,-1.5901,-1.5612,-1.4544,0.0,0.0,0.0,-1.625,-1.8073,-1.8819,0.0,-2.4537,0.0,-2.4992,0.0,0.0,0.0,0.0,-3.6501,-3.9842,-4.1705,-4.3008,-4.3497,-4.3222,-4.1479,-4.0881,0.0,0.0,0.0,0.0,-3.7559,0.0,0.0,0.0,0.0,0.0,0.0,0.0,0.0,-3.14,-3.01,-2.9696,-2.9874,0.0,0.0,0.0,0.0,0.0,0.0,-3.054,0.0,0.0,0.0,-3.3599,-3.4939,0.0,-3.7199,-3.8345,-3.7438,-3.7835,-4.0359,-3.8716,-3.8651,-4.1064,-4.1825,-4.2193,-4.2117,-4.2963,-4.3572,-4.391,-4.435,-4.4587,-4.4587,-4.4587,-4.4587,-4.4587,-4.4908,-4.5297,-4.572,-4.6024,-4.6583,-4.7293,-4.7733,-4.8105,-4.8409,-4.8832,-4.9001,-4.9001,-4.9001,-4.9001,-4.9001,-1.5109,0.0,0.0,-1.776,-1.9271,-2.115,-2.3033,-2.5515,-2.6867,0.0,0.0,0.0,-2.9874,-2.9806,0.0,0.0,-3.0301,-2.8705,0.0,0.0,-2.2923,-2.252,-2.0818,-2.0012,-2.0299,-1.8234,-1.7014,-1.6753,-1.5208,0.0,0.0,0.0,0.0,-1.9037,0.0,-2.3059,-2.6885,0.0,-2.7232,-2.9402,-3.1071,-3.2354,-3.3741,-3.8007,-4.0899,-4.2788,-4.3304,-4.341,-4.2993,-4.117,-4.0607,-4.0474,-3.9644,-3.9169,-3.9004,0.0,0.0,0.0,-3.7833,0.0,-3.9061,-3.6442,-3.5314,-3.422,-3.1865,-3.0198,-2.9539,-3.0812,-3.0735,0.0,0.0,0.0,0.0,0.0,0.0,-2.931,0.0,-2.898,0.0,0.0,0.0,0.0,-3.6638,-3.5486,-3.5758,-3.8545,-3.6976,-3.7009,-3.9576,-4.0839,-4.1363,-4.1204,-4.2439,-4.3217,-4.342,-4.4198,-4.4587,-4.4587,-4.4587,-4.4587,-4.4587,-4.4587,-4.4874,-4.5399,-4.5399,-4.5821,-4.6532,-4.709,-4.7547,-4.797,-4.8494,-4.8832,-4.9001,-4.9001,-4.9001,-4.9001,-1.6678,-1.6888,0.0,0.0,0.0,-2.1332,-2.3786,-2.4917,-2.6023,-2.752,0.0,0.0,0.0,0.0,0.0,0.0,0.0,-3.2761,-3.3476,0.0,-2.6778,-2.753,-2.3555,-2.1825,-2.285,-2.0027,-1.8253,-1.7651,-1.6431,-1.5833,0.0,0.0,0.0,0.0,0.0,-2.4238,-2.7783,-2.8221,-3.131,-3.5962,-3.5727,-3.7794,-4.0944,0.0,-4.1083,-4.2788,-4.3304,-4.3178,-4.2662,-4.2351,-4.1883,-4.1324,-4.051,-4.0444,-4.0575,-4.0327,0.0,0.0,-4.1016,-4.1552,-4.0972,-3.5841,-3.5113,-3.4333,-2.9223,-2.9655,-3.0935,-3.034,-3.2255,-3.3849,0.0,0.0,0.0,0.0,0.0,0.0,0.0,0.0,0.0,0.0,0.0,0.0,0.0,-3.2629,-3.3125,-3.6907,-3.4668,-3.5101,-3.9562,-3.9801,-4.0199,-4.1153,-4.1931,-4.2675,-4.3403,-4.4198,-4.4587,-4.4587,-4.4587,-4.4587,-4.4587,-4.4587,-4.4587,-4.4621,-4.4621,-4.5043,-4.5737,-4.5771,-4.6616,-4.7919,-4.7953,-4.8392,-4.9001,-4.9001,-4.9001,-4.9001,0.0,0.0,0.0,0.0,0.0,-2.135,-2.3823,-2.5795,-2.7574,0.0,-3.0331,0.0,0.0,-3.4823,-3.5404,0.0,0.0,-3.4688,-3.3844,-3.0779,0.0,-2.9384,-2.6475,-2.4772,-2.4593,-2.2226,-2.0469,-1.9431,-1.7892,-1.7264,0.0,0.0,0.0,0.0,0.0,-2.4984,0.0,0.0,0.0,0.0,0.0,-3.9067,-4.2206,0.0,-4.2158,-4.2732,-4.2902,-4.3087,-4.3178,-4.2705,-4.2341,-4.1993,-4.1922,-4.1451,-4.1069,-4.1482,-4.1407,-4.1204,-4.1119,-4.1699,-4.1482,-3.8125,-3.6687,-3.5214,-3.181,-3.1601,-3.1671,-3.013,-3.2441,-3.4248,-3.2672,0.0,0.0,0.0,0.0,0.0,0.0,0.0,0.0,0.0,0.0,0.0,0.0,0.0,-3.2025,-3.5452,-3.4375,-3.5444,-3.9818,-4.0193,-4.0533,-4.0968,-4.1342,-4.1931,-4.2658,-4.3436,-4.4062,-4.4587,-4.4587,-4.4587,-4.4587,-4.4587,-4.4587,-4.4587,-4.4587,-4.4722,-4.4993,-4.55,-4.5991,-4.6549,-4.753,-4.8071,-4.8342,-4.8832,-4.9001,-4.9001,-1.9297,0.0,0.0,0.0,0.0,-2.246,-2.4339,-2.7166,0.0,0.0,-3.2718,0.0,-3.6914,0.0,-3.7592,0.0,-3.8303,-3.7055,-3.4835,-3.322,0.0,-3.1091,-2.9292,-2.8062,-2.7552,-2.5244,-2.3379,-2.1967,-2.0105,-1.9149,0.0,0.0,0.0,0.0,0.0,0.0,-2.9119,0.0,-3.3105,0.0,0.0,-4.0625,0.0,-4.2711,-4.2577,-4.2422,-4.2846,-4.3087,-4.3178,-4.2826,-4.2613,-4.2414,-4.2397,-4.1895,-4.1452,-4.1959,-4.176,-4.1325,-4.1229,-4.165,-4.1542,-3.9108,-3.7772,-3.625,-3.3105,-3.3117,-3.325,-3.1278,-3.3166,-3.4939,-3.4256,0.0,0.0,0.0,0.0,0.0,0.0,-2.5219,0.0,0.0,0.0,0.0,0.0,0.0,-2.999,-3.3623,-3.3304,-3.4761,0.0,-3.9789,-4.0253,-4.0487,-4.0932,-4.1424,-4.1897,-4.2912,-4.3673,-4.4181,-4.4451,-4.4587,-4.4587,-4.4587,-4.4587,-4.4587,-4.4587,-4.4587,-4.4621,-4.5111,-4.5466,-4.5821,-4.7056,-4.7682,-4.8003,-4.8731,-4.9001,-4.9001,-2.1552,0.0,0.0,0.0,-2.2645,0.0,0.0,0.0,-3.1668,0.0,-3.4862,-3.7027,-3.8649,-3.8833,-3.9436,-4.0983,-4.1079,-3.9808,-3.6743,-3.645,0.0,0.0,-3.2045,-3.1549,-3.1513,-2.8864,-2.6685,-2.5139,-2.2864,-2.1353,0.0,0.0,0.0,0.0,-2.2868,0.0,-2.913,-3.1972,-3.5471,-3.9335,-4.1458,-4.2467,-4.2693,-4.275,-4.2382,-4.1979,-4.3069,-4.3142,-4.275,-4.2711,-4.2711,-4.2616,-4.1979,-4.181,-4.181,-4.181,-4.181,-4.176,-4.1492,-4.1596,-4.1209,-3.8869,-3.8384,-3.7423,-3.3282,-3.4322,-3.5614,-3.3754,-3.4621,-3.6146,-3.7618,-3.5089,0.0,0.0,0.0,0.0,0.0,0.0,0.0,0.0,0.0,0.0,0.0,0.0,-2.7264,-3.1484,-3.15,0.0,0.0,-3.8496,-3.9434,-3.9759,-4.0692,-4.1205,-4.1256,-4.2608,-4.3352,-4.342,-4.4181,-4.4536,-4.4587,-4.4587,-4.4587,-4.4587,-4.4587,-4.4587,-4.4587,-4.4587,-4.4993,-4.572,-4.6447,-4.7225,-4.8003,-4.8731,-4.9001,-4.9001,-2.2615,-2.3473,-2.4135,0.0,-2.3676,-2.4184,0.0,0.0,0.0,0.0,-3.6526,-3.8715,-4.0324,-4.0492,-4.0634,-4.1046,-4.1101,0.0,0.0,0.0,0.0,-3.7165,-3.5183,-3.3807,-3.3201,-2.9926,-2.784,-2.7076,-2.3956,0.0,-2.1683,0.0,0.0,0.0,0.0,0.0,-2.8253,-3.0501,-3.4743,-4.0131,-4.1677,-4.2467,-4.275,-4.3142,-4.2958,-4.2519,-4.2808,-4.305,-4.325,-4.2826,-4.2711,-4.2616,-4.1979,-4.181,-4.181,-4.181,-4.181,-4.18,-4.173,-4.1735,-4.1658,-4.1024,-3.9554,-3.8075,-3.7381,-3.7757,-3.7774,-3.6197,-3.7899,-3.8948,-3.6653,-3.5757,0.0,0.0,0.0,0.0,0.0,0.0,0.0,-2.6833,0.0,0.0,0.0,-2.6355,-2.8127,-3.0465,-3.0564,-3.2783,-3.7994,-3.768,-3.8418,-4.0899,-4.0951,-4.1288,-4.1842,-4.1818,-4.2337,-4.342,-4.3623,-4.4012,-4.4587,-4.4587,-4.4587,-4.4587,-4.4587,-4.4587,-4.4587,-4.4587,-4.4688,-4.4942,-4.5686,-4.6786,-4.8003,-4.8731,-4.9001,-4.9001,-2.3911,0.0,0.0,-2.6974,0.0,0.0,-2.9132,-3.0728,0.0,-3.5249,-3.8003,0.0,-4.052,-4.1528,-4.2158,-4.2161,-4.2161,0.0,-4.0653,0.0,0.0,-3.8762,-3.7698,-3.678,-3.5954,-3.2912,0.0,-2.8851,0.0,0.0,-2.2078,0.0,0.0,0.0,0.0,-2.4289,0.0,-3.1342,-3.5687,-3.9949,-4.1622,-4.2591,0.0,-4.3375,-4.3286,-4.305,-4.305,-4.325,-4.341,-4.2902,-4.2711,-4.2616,-4.1979,-4.1621,-4.1402,-4.1402,-4.1241,-4.1122,-4.1358,-4.1241,-4.1168,-4.1682,-4.0778,-3.9669,-3.9328,-3.9608,-3.9618,-3.8592,-3.9276,-3.9855,-3.9185,-3.7217,-3.4559,0.0,0.0,0.0,0.0,0.0,0.0,0.0,-2.6667,0.0,-2.4355,-2.575,-2.742,-2.9035,-2.9806,-3.1916,-3.5826,-3.7047,-3.8473,-4.0293,-4.0699,-4.1128,-4.1596,-4.1307,-4.1627,-4.2455,-4.3115,-4.3656,-4.4079,-4.4418,-4.4587,-4.4587,-4.4587,-4.4587,-4.4587,-4.4587,-4.4587,-4.4654,-4.5415,-4.6616,-4.797,-4.8376,-4.8731,-4.9001,-2.5444,0.0,0.0,0.0,0.0,0.0,0.0,-3.3469,0.0,-3.6588,0.0,-4.1159,-4.0448,-4.2242,-4.3497,-4.3497,-4.3497,-4.2598,-4.0506,-4.168,-4.1479,-3.9276,-3.9845,-3.979,-3.8891,-3.634,-3.3468,-3.0356,-2.7222,-2.4408,0.0,0.0,0.0,0.0,0.0,0.0,0.0,-3.3248,-3.7381,-3.9532,-4.1638,-4.2873,-4.3497,-4.3497,-4.3497,-4.3497,-4.3497,-4.3497,-4.341,-4.2976,-4.275,-4.2616,-4.2062,-4.149,-4.1041,-4.1041,-4.0625,-4.0286,-4.078,-4.0577,-4.0417,-4.1446,-4.175,-4.1498,-4.0273,-4.0691,-4.122,-4.087,-4.002,-4.012,-4.2708,-3.8891,-3.4092,0.0,0.0,0.0,0.0,0.0,0.0,0.0,0.0,0.0,-2.4685,-2.5144,-2.6135,-2.753,-2.8833,-3.0467,-3.2504,-3.615,-3.8417,-3.8995,-4.0197,-4.0891,-4.0903,-4.1016,-4.1102,-4.1221,-4.2506,-4.3234,-4.3436,-4.4113,-4.4485,-4.4587,-4.4587,-4.4587,-4.4587,-4.4587,-4.4587,-4.4654,-4.5415,-4.6549,-4.7784,-4.7885,-4.8376,-4.9001,-2.7321,0.0,0.0,0.0,0.0,-3.4222,-3.6157,-3.7221,-3.8204,-3.9137,-4.1496,-4.3025,-4.2871,-4.3243,-4.3497,-4.3497,-4.3497,0.0,0.0,0.0,0.0,-4.1717,-4.1809,-4.1185,-3.9717,-3.6615,-3.377,-3.1182,-2.7443,-2.41,0.0,0.0,0.0,0.0,0.0,0.0,-2.931,-3.4111,0.0,-4.0311,-4.2408,-4.3369,-4.3497,-4.3497,-4.3497,-4.3497,-4.3497,-4.3497,-4.3497,-4.341,-4.3069,-4.2655,-4.2577,-4.2121,-4.1621,-4.1621,-4.1223,-4.078,-4.0856,-4.081,-4.0827,-4.0995,-4.1446,-4.1866,-4.2081,-4.2278,-4.2522,-4.2865,-4.2803,-4.2433,-4.1662,-3.9074,-3.6376,-3.4275,0.0,0.0,0.0,0.0,0.0,0.0,0.0,-2.8686,-2.641,-2.6319,-2.6521,-2.6796,-2.6447,-2.8099,-3.2375,-3.3323,-3.5321,-3.8887,-4.0073,-4.0727,-4.0903,-4.0504,-4.0595,-4.1204,-4.1457,-4.2236,-4.342,-4.3555,-4.3978,-4.4587,-4.4587,-4.4587,-4.4587,-4.4587,-4.4587,-4.4654,-4.5415,-4.6227,-4.7073,-4.7699,-4.8376,-4.9001,0.0,0.0,0.0,0.0,0.0,0.0,0.0,-4.0142,-4.0873,-4.0013,-4.1271,-4.2094,-4.1693,-4.2768,-4.3497,-4.3497,-4.3497,-4.3497,-4.3497,-4.3497,-4.3314,-4.2928,-4.2525,-4.1937,-4.1148,-3.8377,-3.5532,-3.2632,-2.8964,-2.5434,0.0,0.0,0.0,0.0,0.0,-2.6509,0.0,0.0,-3.7789,-3.9895,-4.2006,-4.313,-4.3497,-4.3497,-4.3497,-4.3497,-4.3497,-4.3497,-4.3497,-4.3497,-4.3339,-4.3124,-4.3124,-4.2714,-4.2262,-4.2262,-4.1853,-4.1358,-4.1358,-4.1358,-4.1358,-4.1358,-4.181,-4.2342,-4.2616,-4.2902,-4.3178,-4.3444,-4.3497,-4.3002,-4.1405,-3.9478,-3.7716,-3.6505,-3.4578,-3.3642,0.0,0.0,-3.1292,0.0,0.0,0.0,0.0,-2.6355,-2.6264,0.0,0.0,-2.7402,-3.0577,-3.232,-3.4942,-3.8736,-3.9858,-4.0851,-4.1835,-4.0984,-4.0668,-4.1045,-4.1138,-4.1779,-4.2844,-4.325,-4.3842,-4.4587,-4.4587,-4.4587,-4.4587,-4.4587,-4.4587,-4.4621,-4.4976,-4.5568,-4.6312,-4.7056,-4.78,-4.8494,0.0,-3.4614,0.0,0.0,-3.8025,-3.9416,-4.0081,-4.2043,-4.2823,-4.0901,-4.1209,-4.1371,-4.0721,-4.2351,-4.3497,-4.3497,-4.3497,-4.3497,-4.3497,-4.3497,-4.3497,-4.3497,-4.2892,-4.247,-4.2304,-4.0267,-3.7533,-3.4064,-3.0917,-2.7373,-2.3531,-2.273,-2.2074,-2.1754,0.0,0.0,-3.1701,-3.553,-3.8189,-4.0033,-4.1837,-4.2928,-4.3497,-4.3497,-4.3497,-4.3497,-4.3497,-4.3497,-4.3497,-4.3497,-4.3497,-4.3497,-4.3497,-4.3214,-4.2864,-4.2864,-4.2462,-4.1979,-4.1979,-4.1979,-4.1979,-4.1979,-4.2422,-4.2864,-4.2864,-4.3214,-4.3497,-4.3497,-4.3497,-4.3002,-4.1405,-4.0341,-3.9294,-3.7955,-3.6119,-3.5055,-3.5687,0.0,0.0,0.0,0.0,0.0,-2.6193,-2.6172,-2.5823,0.0,0.0,-2.7034,-2.9145,-3.1659,-3.4632,-3.8131,-3.9351,-4.0634,-4.1977,-4.1419,-4.1041,-4.092,-4.1064,-4.1562,-4.2303,-4.2912,-4.369,-4.4587,-4.4587,-4.4587,-4.4587,-4.4587,-4.4587,-4.4587,-4.4587,-4.5043,-4.5788,-4.6532,-4.7276,-4.802,0.0,0.0,0.0,0.0,0.0,-4.0878,-4.099,-4.2441,-4.3424,-4.3188,-4.3224,-4.3243,-4.3169,-4.3369,-4.3497,-4.3497,-4.3497,-4.3497,-4.3497,-4.3497,-4.3497,-4.3497,-4.3424,-4.3039,-4.2323,-4.1368,-3.8927,-3.488,-3.2857,-2.9304,-2.4408,-2.4637,-2.5501,-2.6882,-2.9071,-3.1984,-3.5398,-3.7229,-3.9519,-4.2106,-4.302,-4.3424,-4.3497,-4.3497,-4.3497,-4.3497,-4.3497,-4.3497,-4.3497,-4.3497,-4.3497,-4.3497,-4.3497,-4.3463,-4.341,-4.341,-4.305,-4.2616,-4.2616,-4.2616,-4.2616,-4.2616,-4.3014,-4.341,-4.341,-4.3444,-4.3497,-4.3497,-4.3497,-4.3002,-4.1405,-4.2176,-4.2066,-3.9074,-3.8395,-3.8267,-3.834,0.0,-3.3623,-3.3476,0.0,0.0,-2.775,-2.6319,0.0,0.0,-2.474,-2.608,-2.9879,-3.0375,-3.2456,-3.6669,-3.831,-3.9279,-3.9704,-4.106,-4.1446,-4.0903,-4.0943,-4.1435,-4.2286,-4.2371,-4.32,-4.4587,-4.4587,-4.4587,-4.4587,-4.4587,-4.4587,-4.4587,-4.4587,-4.5043,-4.5788,-4.6532,-4.7276,-4.802,0.0,0.0,-3.9067,-4.0203,-4.0368,-4.0864,-4.2315,-4.3096,-4.3497,-4.3497,-4.3497,-4.3497,-4.3497,-4.3497,-4.3497,-4.3497,-4.3497,-4.3497,-4.3497,-4.3497,-4.3497,-4.3497,-4.3497,-4.3332,-4.302,-4.2231,-4.0561,-3.7936,-3.5217,-3.2247,-2.9089,-2.8264,-2.8997,-3.1112,-3.2859,-3.5072,-3.7674,-3.9725,-4.1254,-4.2378,-4.3167,-4.3497,-4.3497,-4.3497,-4.3497,-4.3497,-4.3497,-4.3497,-4.3497,-4.3497,-4.3497,-4.3497,-4.3497,-4.3497,-4.3497,-4.3497,-4.3339,-4.3178,-4.3178,-4.3178,-4.3178,-4.3178,-4.3339,-4.3497,-4.3497,-4.3497,-4.3497,-4.3497,-4.3497,-4.3296,-4.2653,-4.2286,-4.1809,-4.1001,-3.9662,-3.8872,-3.935,-3.7037,0.0,-3.4596,0.0,-3.0283,0.0,-2.7053,-2.6319,-2.6796,-2.5199,-2.5529,-2.8594,-2.9677,-3.185,-3.5515,-3.8186,-3.9831,-4.0402,-4.169,-4.2203,-4.1979,-4.1268,-4.135,-4.2174,-4.2277,-4.3132,-4.4587,-4.4587,-4.4814,-4.5089,-4.4776,-4.4814,-4.5089,-4.472,-4.4756,-4.5162,-4.6346,-4.6989,-4.7411,-4.142,-4.0544,-4.0377,-4.2297,-4.1716,-4.1517,-4.3224,-4.3497,-4.3497,-4.3497,-4.3497,-4.3497,-4.3497,-4.3497,-4.3497,-4.3497,-4.3497,-4.3497,-4.3497,-4.3497,-4.3497,-4.3497,-4.3497,-4.3497,-4.3497,-4.2928,-4.1864,-4.0249,-3.7698,-3.5352,-3.3234,-3.2045,-3.2661,-3.4848,-3.6352,-3.8039,-3.9882,-4.1589,-4.2433,-4.269,-4.3259,-4.3497,-4.3497,-4.3497,-4.3497,-4.3497,-4.3497,-4.3497,-4.3497,-4.3497,-4.3497,-4.3497,-4.3497,-4.3497,-4.3497,-4.3497,-4.3497,-4.3497,-4.3497,-4.3497,-4.3497,-4.3497,-4.3497,-4.3497,-4.3497,-4.3497,-4.3497,-4.3497,-4.3497,-4.3497,-4.3497,-4.2561,-4.1772,-4.1625,-4.0359,-3.9276,-3.8891,-3.7367,0.0,-3.4798,-3.2522,-3.0595,-2.9475,-2.7897,0.0,-2.8429,-2.6924,-2.7016,-2.9439,-2.9971,-3.2008,-3.5944,-3.8579,-4.0286,-4.1111,-4.2304,-4.2864,-4.2711,-4.1853,-4.1733,-4.237,-4.2906,-4.3802,-4.4852,-4.4852,-4.5232,-4.5681,-4.4906,-4.5035,-4.5681,-4.5089,-4.4944,-4.5297,-4.6529,-4.7202,-4.758,-4.2132,-4.226,-4.2514,-4.3351,-4.3461,-4.3461,-4.3497,-4.3497,-4.3497,-4.3497,-4.3497,-4.3497,-4.3497,-4.3497,-4.3497,-4.3497,-4.3497,-4.3497,-4.3497,-4.3497,-4.3497,-4.3497,-4.3497,-4.3497,-4.3497,-4.3479,-4.269,-4.1093,-4.0249,-3.8436,-3.5768,-3.575,-3.6554,-3.808,-3.9315,-4.0744,-4.2268,-4.2286,-4.2763,-4.3479,-4.3497,-4.3497,-4.3497,-4.3497,-4.3497,-4.3497,-4.3497,-4.3497,-4.3497,-4.3497,-4.3497,-4.3497,-4.3497,-4.3497,-4.3497,-4.3497,-4.3497,-4.3497,-4.3497,-4.3497,-4.3497,-4.3497,-4.3497,-4.3497,-4.3497,-4.3497,-4.3497,-4.3497,-4.3497,-4.3497,-4.3497,-4.3461,-4.269,-4.0304,-4.0579,-3.9974,-3.678,-3.6321,-3.5679,-3.4009,-3.1678,-3.021,-3.0191,-2.8723,0.0,-3.0044,-3.0136,-3.1182,-3.3605,-3.1476,-3.2797,-3.8487,-3.946,-4.0286,-4.1111,-4.269,-4.3214,-4.2711,-4.2711,-4.2754,-4.2953,-4.4491,-4.526,-4.5511,-4.5511,-4.5815,-4.6288,-4.5089,-4.532,-4.6336,-4.5732,-4.5865,-4.6489,-4.7303,-4.8081,-4.8891,-4.3078,-4.3114,-4.3188,-4.3461,-4.3497,-4.3497,-4.3497,-4.3497,-4.3497,-4.3497,-4.3497,-4.3497,-4.3497,-4.3497,-4.3497,-4.3497,-4.3497,-4.3497,-4.3497,-4.3497,-4.3497,-4.3497,-4.3497,-4.3497,-4.3497,-4.3497,-4.324,-4.2745,-4.1387,-3.9997,-3.8583,-3.8583,-3.9443,-4.0998,-4.1372,-4.2121,-4.3112,-4.3112,-4.3259,-4.3497,-4.3497,-4.3497,-4.3497,-4.3497,-4.3497,-4.3497,-4.3497,-4.3497,-4.3497,-4.3497,-4.3497,-4.3497,-4.3497,-4.3497,-4.3497,-4.3497,-4.3497,-4.3497,-4.3497,-4.3497,-4.3497,-4.3497,-4.3497,-4.3497,-4.3497,-4.3497,-4.3497,-4.3497,-4.3497,-4.3497,-4.3497,-4.3497,-4.2892,-4.102,-4.0946,-4.0175,-3.7477,-3.6652,-3.5881,-3.4761,-3.2981,-3.1843,-3.1843,-3.087,-3.0467,-3.098,-3.0503,-3.1017,-3.2889,-3.3862,-3.5183,-3.7019,-3.9974,-4.1405,-4.1111,-4.269,-4.341,-4.325,-4.2864,-4.3082,-4.3713,-4.4253,-4.5052,-4.6094,-4.6094,-4.6478,-4.6999,-4.6161,-4.6336,-4.6999,-4.6383,-4.624,-4.6472,-4.7285,-4.813,-4.8891,-4.3516,-4.3497,-4.3497,-4.3497,-4.3497,-4.3497,-4.3497,-4.3497,-4.3497,-4.3497,-4.3497,-4.3497,-4.3497,-4.3497,-4.3497,-4.3497,-4.3497,-4.3497,-4.3497,-4.3497,-4.3497,-4.3497,-4.3497,-4.3497,-4.3497,-4.3497,-4.3497,-4.3497,-4.2488,-4.1735,-4.124,-4.124,-4.1791,-4.2745,-4.2745,-4.302,-4.3497,-4.3497,-4.3497,-4.3497,-4.3497,-4.3497,-4.3497,-4.3497,-4.3497,-4.3497,-4.3497,-4.3497,-4.3497,-4.3497,-4.3497,-4.3497,-4.3497,-4.3497,-4.3497,-4.3497,-4.3497,-4.3497,-4.3497,-4.3497,-4.3497,-4.3497,-4.3497,-4.3497,-4.3497,-4.3497,-4.3497,-4.3497,-4.3497,-4.3497,-4.3497,-4.324,-4.2616,-4.1313,-4.0855,-3.9808,-3.7386,-3.6615,-3.5862,-3.4706,-3.366,-3.3054,-3.3054,-3.3164,-3.3238,-3.3238,-3.3605,-3.4183,-3.4962,-3.5538,-3.6523,-3.8046,-4.0836,-4.2194,-4.2011,-4.3002,-4.3497,-4.3497,-4.3178,-4.3505,-4.4438,-4.4695,-4.5513,-4.6774,-4.6774,-4.7132,-4.7656,-4.6756,-4.6937,-4.7656,-4.7044,-4.6892,-4.7186,-4.7662,-4.8407,-4.9198,-4.3605,-4.3516,-4.3497,-4.3516,-4.3516,-4.3516,-4.3516,-4.3516,-4.3516,-4.3497,-4.3497,-4.3497,-4.3497,-4.3497,-4.3497,-4.3497,-4.3497,-4.3497,-4.3497,-4.3497,-4.3497,-4.3497,-4.3497,-4.3497,-4.3497,-4.3497,-4.3497,-4.3497,-4.3497,-4.3497,-4.3497,-4.3497,-4.3497,-4.3497,-4.3497,-4.3497,-4.3497,-4.3497,-4.3497,-4.3497,-4.3497,-4.3497,-4.3497,-4.3497,-4.3497,-4.3497,-4.3497,-4.3497,-4.3497,-4.3497,-4.3497,-4.3497,-4.3497,-4.3497,-4.3497,-4.3497,-4.3497,-4.3497,-4.3497,-4.3497,-4.3497,-4.3497,-4.3497,-4.3497,-4.3497,-4.3497,-4.3497,-4.3497,-4.3497,-4.3497,-4.3497,-4.2837,-4.2047,-4.124,-4.0377,-3.8982,-3.6633,-3.6303,-3.5697,-3.4082,-3.399,-3.4064,-3.4064,-3.5514,-3.6431,-3.6376,-3.8505,-3.9561,-3.9029,-3.6723,-3.7173,-4.0991,-4.1922,-4.2745,-4.3479,-4.3497,-4.3497,-4.3497,-4.3552,-4.409,-4.5062,-4.5697,-4.6517,-4.747,-4.747,-4.7797,-4.821,-4.7026,-4.7219,-4.8249,-4.7656,-4.7797,-4.8306,-4.8306,-4.8838,-4.9701,-4.3915,-4.3679,-4.3587,-4.3826,-4.3897,-4.3897,-4.3897,-4.3897,-4.3789,-4.3516,-4.3497,-4.3497,-4.3497,-4.3497,-4.3497,-4.3497,-4.3497,-4.3497,-4.3497,-4.3497,-4.3497,-4.3497,-4.3497,-4.3497,-4.3497,-4.3497,-4.3497,-4.3497,-4.3497,-4.3497,-4.3497,-4.3497,-4.3497,-4.3497,-4.3497,-4.3497,-4.3497,-4.3497,-4.3497,-4.3497,-4.3497,-4.3497,-4.3497,-4.3497,-4.3497,-4.3497,-4.3497,-4.3497,-4.3497,-4.3497,-4.3497,-4.3497,-4.3497,-4.3497,-4.3497,-4.3497,-4.3497,-4.3497,-4.3497,-4.3497,-4.3497,-4.3497,-4.3497,-4.3497,-4.3497,-4.3497,-4.3497,-4.3497,-4.3497,-4.3497,-4.3497,-4.2837,-4.2047,-4.124,-3.9918,-3.8358,-3.6541,-3.6303,-3.5917,-3.4853,-3.5844,-3.6615,-3.6615,-3.7533,-3.7881,-3.7239,-3.8303,-3.8902,-3.8789,-3.9342,-4.0178,-4.127,-4.2573,-4.3296,-4.3497,-4.3497,-4.3497,-4.3497,-4.4121,-4.4857,-4.5698,-4.6451,-4.7276,-4.8075,-4.8075,-4.8172,-4.8267,-4.7977,-4.8035,-4.8306,-4.8132,-4.8172,-4.8306,-4.8306,-4.8838,-4.9701,-4.4085,-4.3826,-4.3789,-4.397,-4.4009,-4.406,-4.4248,-4.4129,-4.3934,-4.3752,-4.3605,-4.3497,-4.3497,-4.3497,-4.3497,-4.3497,-4.3497,-4.3497,-4.3497,-4.3497,-4.3497,-4.3497,-4.3497,-4.3497,-4.3497,-4.3497,-4.3497,-4.3497,-4.3497,-4.3497,-4.3497,-4.3497,-4.3497,-4.3497,-4.3497,-4.3497,-4.3497,-4.3497,-4.3497,-4.3497,-4.3497,-4.3497,-4.3497,-4.3497,-4.3497,-4.3497,-4.3497,-4.3497,-4.3497,-4.3497,-4.3497,-4.3497,-4.3497,-4.3497,-4.3497,-4.3497,-4.3497,-4.3497,-4.3497,-4.3497,-4.3497,-4.3497,-4.3497,-4.3497,-4.3497,-4.3497,-4.3497,-4.3497,-4.3497,-4.3497,-4.3497,-4.2543,-4.1497,-4.0689,-3.9515,-3.8138,-3.6523,-3.6615,-3.6798,-3.6707,-3.7496,-3.834,-3.9074,-3.9882,-4.001,-3.9203,-4.023,-4.061,-3.999,-4.1345,-4.2093,-4.1814,-4.29,-4.3497,-4.3497,-4.3497,-4.3497,-4.3497,-4.3938,-4.4764,-4.5902,-4.6361,-4.7205,-4.8306,-4.8306,-4.8306,-4.8306,-4.8306,-4.8306,-4.8306,-4.8306,-4.8306,-4.8306,-4.8306,-4.86,-4.9132,-4.4281,-4.4122,-4.4099,-4.417,-4.4191,-4.4282,-4.4626,-4.4341,-4.4054,-4.4005,-4.3716,-4.3497,-4.3497,-4.3497,-4.3497,-4.3497,-4.3497,-4.3497,-4.3497,-4.3497,-4.3497,-4.3497,-4.3497,-4.3497,-4.3497,-4.3497,-4.3497,-4.3497,-4.3497,-4.3497,-4.3497,-4.3497,-4.3497,-4.3497,-4.3497,-4.3497,-4.3497,-4.3497,-4.3497,-4.3497,-4.3497,-4.3497,-4.3497,-4.3497,-4.3497,-4.3497,-4.3497,-4.3497,-4.3497,-4.3497,-4.3497,-4.3497,-4.3497,-4.3497,-4.3497,-4.3497,-4.3497,-4.3497,-4.3497,-4.3497,-4.3497,-4.3497,-4.3497,-4.3497,-4.3497,-4.3497,-4.3497,-4.3497,-4.3497,-4.3497,-4.3497,-4.2176,-4.0855,-4.0029,-3.9111,-3.7991,-3.6505,-3.7092,-3.7918,-3.8615,-3.9019,-3.979,-4.1167,-4.1901,-4.2066,-4.1515,-4.2616,-4.2847,-4.1759,-4.2848,-4.3185,-4.2506,-4.313,-4.3497,-4.3497,-4.3497,-4.3497,-4.3497,-4.3608,-4.4452,-4.5902,-4.603,-4.6893,-4.8306,-4.8306,-4.8306,-4.8306,-4.8306,-4.8306,-4.8306,-4.8306,-4.8306,-4.8306,-4.8306,-4.8306,-4.8416,-4.4958,-4.4684,-4.461,-4.4884,-4.4915,-4.4953,-4.501,-4.4729,-4.4398,-4.4029,-4.3716,-4.3497,-4.3497,-4.3497,-4.3497,-4.3497,-4.3497,-4.3497,-4.3497,-4.3497,-4.3497,-4.3497,-4.3497,-4.3497,-4.3497,-4.3497,-4.3497,-4.3497,-4.3497,-4.3497,-4.3497,-4.3497,-4.3497,-4.3497,-4.3497,-4.3497,-4.3497,-4.3497,-4.3497,-4.3497,-4.3497,-4.3497,-4.3497,-4.3497,-4.3497,-4.3497,-4.3497,-4.3497,-4.3497,-4.3497,-4.3497,-4.3497,-4.3497,-4.3497,-4.3497,-4.3497,-4.3497,-4.3497,-4.3497,-4.3497,-4.3497,-4.3497,-4.3497,-4.3497,-4.3497,-4.3497,-4.3497,-4.3497,-4.3497,-4.3497,-4.3497,-4.2176,-4.0855,-4.0029,-3.8634,-3.7349,-3.6431,-3.7569,-3.856,-3.8689,-4.0506,-4.1846,-4.2084,-4.2231,-4.2525,-4.3075,-4.2727,-4.2674,-4.3137,-4.3371,-4.3424,-4.3314,-4.3424,-4.3497,-4.3497,-4.3497,-4.3497,-4.3497,-4.4195,-4.5002,-4.592,-4.6617,-4.7425,-4.8306,-4.8306,-4.8306,-4.8306,-4.8306,-4.8306,-4.8306,-4.8306,-4.8306,-4.8306,-4.8306,-4.8306,-4.8416,-4.5143,-4.4925,-4.4833,-4.5067,-4.5048,-4.5068,-4.5336,-4.5068,-4.4734,-4.4354,-4.4007,-4.3697,-4.3516,-4.3497,-4.3497,-4.3497,-4.3497,-4.3497,-4.3497,-4.3497,-4.3497,-4.3497,-4.3497,-4.3497,-4.3497,-4.3497,-4.3497,-4.3497,-4.3497,-4.3497,-4.3497,-4.3497,-4.3497,-4.3497,-4.3497,-4.3497,-4.3497,-4.3497,-4.3497,-4.3497,-4.3497,-4.3497,-4.3497,-4.3497,-4.3497,-4.3497,-4.3497,-4.3497,-4.3497,-4.3497,-4.3497,-4.3497,-4.3497,-4.3497,-4.3497,-4.3497,-4.3497,-4.3497,-4.3497,-4.3497,-4.3497,-4.3497,-4.3497,-4.3497,-4.3497,-4.3497,-4.3497,-4.3497,-4.3497,-4.3497,-4.3497,-4.2543,-4.1479,-4.0689,-3.9551,-3.8652,-3.8285,-3.8872,-3.9662,-4.0543,-4.1625,-4.247,-4.2892,-4.2947,-4.3094,-4.3461,-4.3149,-4.3112,-4.3461,-4.3497,-4.3497,-4.3497,-4.3497,-4.3497,-4.3497,-4.3497,-4.3497,-4.3497,-4.3883,-4.4709,-4.5902,-4.6287,-4.7131,-4.8306,-4.8306,-4.8306,-4.8306,-4.8306,-4.8306,-4.8306,-4.8306,-4.8306,-4.8306,-4.8306,-4.8306,-4.8361,-4.5278,-4.5143,-4.5105,-4.5201,-4.5143,-4.5182,-4.5528,-4.5316,-4.5012,-4.4755,-4.4369,-4.4044,-4.3771,-4.3752,-4.3716,-4.3624,-4.3624,-4.3587,-4.3497,-4.3497,-4.3497,-4.3497,-4.3497,-4.3497,-4.3497,-4.3497,-4.3497,-4.3497,-4.3497,-4.3497,-4.3497,-4.3497,-4.3497,-4.3497,-4.3497,-4.3497,-4.3497,-4.3497,-4.3497,-4.3497,-4.3497,-4.3497,-4.3497,-4.3497,-4.3497,-4.3497,-4.3497,-4.3497,-4.3497,-4.3497,-4.3497,-4.3497,-4.3497,-4.3497,-4.3497,-4.3497,-4.3497,-4.3497,-4.3497,-4.3497,-4.3497,-4.3497,-4.3497,-4.3497,-4.3497,-4.3497,-4.3497,-4.3497,-4.3497,-4.3497,-4.3497,-4.2837,-4.2047,-4.124,-4.0579,-4.0102,-3.9918,-4.0212,-4.091,-4.2158,-4.247,-4.2818,-4.3424,-4.3497,-4.3497,-4.3497,-4.3497,-4.3497,-4.3497,-4.3497,-4.3497,-4.3497,-4.3497,-4.3497,-4.3497,-4.3497,-4.3497,-4.3497,-4.3497,-4.4342,-4.5902,-4.5902,-4.6783,-4.8306,-4.8306,-4.8306,-4.8306,-4.8306,-4.8306,-4.8306,-4.8306,-4.8306,-4.8306,-4.8306,-4.8306,-4.8306,-4.5566,-4.5547,-4.5547,-4.5547,-4.5547,-4.5547,-4.5586,-4.5316,-4.5089,-4.5054,-4.4759,-4.4554,-4.4536,-4.4536,-4.4354,-4.4007,-4.397,-4.3807,-4.3516,-4.3497,-4.3497,-4.3497,-4.3497,-4.3497,-4.3497,-4.3497,-4.3497,-4.3497,-4.3497,-4.3497,-4.3497,-4.3497,-4.3497,-4.3497,-4.3497,-4.3497,-4.3497,-4.3497,-4.3497,-4.3497,-4.3497,-4.3497,-4.3497,-4.3497,-4.3497,-4.3497,-4.3497,-4.3497,-4.3497,-4.3497,-4.3497,-4.3497,-4.3497,-4.3497,-4.3497,-4.3497,-4.3497,-4.3497,-4.3497,-4.3497,-4.3497,-4.3497,-4.3497,-4.3497,-4.3497,-4.3497,-4.3497,-4.3497,-4.3497,-4.3497,-4.3497,-4.2837,-4.2047,-4.124,-4.1056,-4.0763,-3.9992,-4.1185,-4.2176,-4.2286,-4.2947,-4.3424,-4.3479,-4.3497,-4.3497,-4.3497,-4.3497,-4.3497,-4.3497,-4.3497,-4.3497,-4.3497,-4.3497,-4.3497,-4.3497,-4.3497,-4.3497,-4.3497,-4.3497,-4.4342,-4.5902,-4.5902,-4.6783,-4.8306,-4.8306,-4.8306,-4.8306,-4.8306,-4.8306,-4.8306,-4.8306,-4.8306,-4.8306,-4.8306,-4.8306,-4.8306,-4.5586,-4.5586,-4.5586,-4.5586,-4.5586,-4.5586,-4.5586,-4.549,-4.5336,-4.5143,-4.4987,-4.483,-4.4621,-4.4602,-4.4521,-4.4388,-4.4147,-4.3952,-4.3807,-4.3624,-4.3497,-4.3497,-4.3497,-4.3497,-4.3497,-4.3497,-4.3497,-4.3497,-4.3497,-4.3497,-4.3497,-4.3497,-4.3497,-4.3497,-4.3497,-4.3497,-4.3497,-4.3497,-4.3497,-4.3497,-4.3497,-4.3497,-4.3497,-4.3497,-4.3497,-4.3497,-4.3497,-4.3497,-4.3497,-4.3497,-4.3497,-4.3497,-4.3497,-4.3497,-4.3497,-4.3497,-4.3497,-4.3497,-4.3497,-4.3497,-4.3497,-4.3497,-4.3497,-4.3497,-4.3497,-4.3497,-4.3497,-4.3497,-4.3497,-4.3497,-4.3497,-4.324,-4.2928,-4.2635,-4.2176,-4.1919,-4.2103,-4.2231,-4.2488,-4.2983,-4.3296,-4.3497,-4.3497,-4.3497,-4.3497,-4.3497,-4.3497,-4.3497,-4.3497,-4.3497,-4.3497,-4.3497,-4.3497,-4.3497,-4.3497,-4.3497,-4.3497,-4.3497,-4.3497,-4.4066,-4.5168,-4.5663,-4.6507,-4.759,-4.8086,-4.8306,-4.8306,-4.8306,-4.8306,-4.8306,-4.8306,-4.8306,-4.8306,-4.8306,-4.8306,-4.8306,-4.5586,-4.5586,-4.5586,-4.5586,-4.5586,-4.5586,-4.5586,-4.5586,-4.5509,-4.5297,-4.5259,-4.5182,-4.4934,-4.4914,-4.4876,-4.478,-4.4486,-4.4246,-4.4023,-4.3697,-4.3497,-4.3497,-4.3497,-4.3497,-4.3497,-4.3497,-4.3497,-4.3497,-4.3497,-4.3497,-4.3497,-4.3497,-4.3497,-4.3497,-4.3497,-4.3497,-4.3497,-4.3497,-4.3497,-4.3497,-4.3497,-4.3497,-4.3497,-4.3497,-4.3497,-4.3516,-4.3791,-4.3883,-4.392,-4.4158,-4.425,-4.4195,-4.3956,-4.3699,-4.3497,-4.3497,-4.3497,-4.3497,-4.3497,-4.3497,-4.3497,-4.3497,-4.3497,-4.3497,-4.3497,-4.3497,-4.3497,-4.3497,-4.3497,-4.3497,-4.3497,-4.3497,-4.3497,-4.3497,-4.3039,-4.2873,-4.3406,-4.302,-4.2873,-4.3424,-4.3497,-4.3497,-4.3497,-4.3497,-4.3497,-4.3497,-4.3497,-4.3497,-4.3497,-4.3497,-4.3497,-4.3497,-4.3497,-4.3497,-4.3497,-4.3497,-4.3497,-4.3497,-4.3497,-4.392,-4.4745,-4.5535,-4.6342,-4.715,-4.7957,-4.8306,-4.8306,-4.8306,-4.8306,-4.8306,-4.8306,-4.8306,-4.8306,-4.8306,-4.8306,-4.8306,-4.5586,-4.5586,-4.5586,-4.5586,-4.5586,-4.5586,-4.5586,-4.5586,-4.5586,-4.5586,-4.5586,-4.5586,-4.5586,-4.5586,-4.547,-4.5143,-4.5105,-4.4782,-4.4036,-4.3679,-4.3497,-4.3497,-4.3497,-4.3497,-4.3497,-4.3497,-4.3497,-4.3497,-4.3497,-4.3497,-4.3497,-4.3497,-4.3497,-4.3497,-4.3497,-4.3497,-4.3497,-4.3497,-4.3497,-4.3497,-4.3497,-4.3497,-4.3497,-4.3497,-4.3497,-4.3608,-4.4415,-4.4709,-4.4837,-4.5626,-4.5902,-4.5755,-4.4966,-4.4158,-4.3516,-4.3497,-4.3497,-4.3497,-4.3497,-4.3497,-4.3497,-4.3497,-4.3497,-4.3497,-4.3497,-4.3497,-4.3497,-4.3497,-4.3497,-4.3497,-4.3497,-4.3497,-4.3497,-4.3497,-4.3497,-4.3497,-4.3497,-4.3497,-4.3497,-4.3497,-4.3497,-4.3497,-4.3497,-4.3497,-4.3497,-4.3497,-4.3497,-4.3497,-4.3497,-4.3497,-4.3497,-4.3497,-4.3497,-4.3497,-4.3497,-4.3497,-4.3497,-4.3497,-4.3497,-4.392,-4.4727,-4.5535,-4.6342,-4.715,-4.7957,-4.8306,-4.8306,-4.8306,-4.8306,-4.8306,-4.8306,-4.8306,-4.8306,-4.8306,-4.8306,-4.8306,-4.5586,-4.5586,-4.5586,-4.5586,-4.5586,-4.5586,-4.5586,-4.5586,-4.5586,-4.5586,-4.5586,-4.5586,-4.5586,-4.5586,-4.5547,-4.5451,-4.501,-4.4436,-4.3689,-4.3569,-4.3497,-4.3497,-4.3497,-4.3497,-4.3497,-4.3497,-4.3497,-4.3497,-4.3497,-4.3497,-4.3497,-4.3497,-4.3497,-4.3497,-4.3497,-4.3497,-4.3497,-4.3497,-4.3497,-4.3497,-4.3497,-4.3497,-4.3497,-4.3497,-4.3846,-4.4378,-4.4617,-4.5057,-4.5571,-4.581,-4.5902,-4.5865,-4.5626,-4.5369,-4.5057,-4.4507,-4.4342,-4.4213,-4.3644,-4.3497,-4.3497,-4.3497,-4.3497,-4.3497,-4.3497,-4.3497,-4.3497,-4.3497,-4.3497,-4.3497,-4.3497,-4.3497,-4.3497,-4.3497,-4.3497,-4.3497,-4.3497,-4.3497,-4.3497,-4.3497,-4.3497,-4.3497,-4.3497,-4.3497,-4.3497,-4.3497,-4.3497,-4.3497,-4.3497,-4.3497,-4.3497,-4.3497,-4.3497,-4.3497,-4.3497,-4.3497,-4.3497,-4.3497,-4.3497,-4.3626,-4.3901,-4.5278,-4.603,-4.6342,-4.7719,-4.8306,-4.8306,-4.8306,-4.8306,-4.8306,-4.8306,-4.8306,-4.8306,-4.8306,-4.8306,-4.8306,-4.5586,-4.5586,-4.5586,-4.5586,-4.5586,-4.5586,-4.5586,-4.5586,-4.5586,-4.5586,-4.5586,-4.5586,-4.5586,-4.5586,-4.5586,-4.5586,-4.4985,-4.4474,-4.4139,-4.3841,-4.3754,-4.3915,-4.3942,-4.3806,-4.3532,-4.3497,-4.3497,-4.3497,-4.3497,-4.3497,-4.3497,-4.3497,-4.3497,-4.3497,-4.3497,-4.3497,-4.3497,-4.3497,-4.3497,-4.3497,-4.3497,-4.3497,-4.3497,-4.3497,-4.3791,-4.4305,-4.4947,-4.5498,-4.5993,-4.6636,-4.6636,-4.6379,-4.6379,-4.6159,-4.5792,-4.5333,-4.4947,-4.4599,-4.4103,-4.3736,-4.3497,-4.3497,-4.3497,-4.3497,-4.3497,-4.3497,-4.3497,-4.3497,-4.3497,-4.3497,-4.3497,-4.3497,-4.3497,-4.3497,-4.3497,-4.3497,-4.3497,-4.3497,-4.3497,-4.3497,-4.3497,-4.3497,-4.3497,-4.3497,-4.3497,-4.3497,-4.3497,-4.3497,-4.3497,-4.3497,-4.3497,-4.3497,-4.3497,-4.3497,-4.3497,-4.3497,-4.3497,-4.3497,-4.3497,-4.3497,-4.3534,-4.5168,-4.5902,-4.5993,-4.7609,-4.8306,-4.8306,-4.8306,-4.8306,-4.8306,-4.8306,-4.8306,-4.8306,-4.8306,-4.8306,-4.8306,-4.5586,-4.5586,-4.5586,-4.5586,-4.5586,-4.5586,-4.5586,-4.5586,-4.5586,-4.5586,-4.5586,-4.5586,-4.5586,-4.5586,-4.5586,-4.5586,-4.5009,-4.4757,-4.4997,-4.441,-4.4204,-4.4494,-4.4576,-4.4282,-4.3564,-4.3542,-4.3548,-4.3548,-4.3513,-4.3497,-4.3497,-4.3497,-4.3497,-4.3497,-4.3497,-4.3497,-4.3497,-4.3497,-4.3497,-4.3497,-4.3497,-4.3497,-4.3497,-4.3497,-4.3571,-4.3901,-4.5369,-4.5993,-4.6342,-4.781,-4.7829,-4.7223,-4.7223,-4.6709,-4.6085,-4.5938,-4.5388,-4.4782,-4.4635,-4.4066,-4.3497,-4.3497,-4.3497,-4.3497,-4.3497,-4.3497,-4.3497,-4.3497,-4.3497,-4.3497,-4.3497,-4.3497,-4.3497,-4.3497,-4.3497,-4.3497,-4.3497,-4.3497,-4.3497,-4.3497,-4.3497,-4.3497,-4.3497,-4.3497,-4.3497,-4.3497,-4.3497,-4.3497,-4.3497,-4.3497,-4.3497,-4.3497,-4.3497,-4.3497,-4.3497,-4.3497,-4.3497,-4.3497,-4.3497,-4.3497,-4.3534,-4.5168,-4.5902,-4.5993,-4.7609,-4.8306,-4.8306,-4.8306,-4.8306,-4.8306,-4.8306,-4.8306,-4.8306,-4.8306,-4.8306,-4.8306,-4.5586,-4.5586,-4.5586,-4.5586,-4.5586,-4.5586,-4.5586,-4.5586,-4.5586,-4.5586,-4.5586,-4.5586,-4.5586,-4.5586,-4.5586,-4.5586,-4.5246,-4.4773,-4.4258,-4.4374,-4.4249,-4.3762,-4.4294,-4.4388,-4.3895,-4.3905,-4.3912,-4.3912,-4.3612,-4.3497,-4.3497,-4.3497,-4.3497,-4.3497,-4.3497,-4.3497,-4.3497,-4.3497,-4.3497,-4.3497,-4.3497,-4.3497,-4.3497,-4.3497,-4.4268,-4.5424,-4.5773,-4.6709,-4.7829,-4.8196,-4.8196,-4.8049,-4.8049,-4.7921,-4.7535,-4.6269,-4.5773,-4.5351,-4.4103,-4.3626,-4.3497,-4.3497,-4.3497,-4.3497,-4.3497,-4.3497,-4.3497,-4.3497,-4.3497,-4.3497,-4.3497,-4.3497,-4.3497,-4.3497,-4.3497,-4.3497,-4.3497,-4.3497,-4.3497,-4.3497,-4.3497,-4.3497,-4.3497,-4.3497,-4.3497,-4.3497,-4.3497,-4.3497,-4.3497,-4.3497,-4.3497,-4.3497,-4.3497,-4.3497,-4.3497,-4.3497,-4.3497,-4.3497,-4.3497,-4.3497,-4.3534,-4.5168,-4.5902,-4.5993,-4.7609,-4.8306,-4.8306,-4.8306,-4.8306,-4.8306,-4.8306,-4.8306,-4.8306,-4.8306,-4.8306,-4.8306,-4.5586,-4.5586,-4.5586,-4.5586,-4.5586,-4.5586,-4.5586,-4.5586,-4.5586,-4.5586,-4.5586,-4.5586,-4.5586,-4.5586,-4.5586,-4.5586,-4.5297,-4.4996,-4.4775,-4.4794,-4.4729,-4.4495,-4.4862,-4.49,-4.4535,-4.4516,-4.4455,-4.4308,-4.4106,-4.3931,-4.3758,-4.3758,-4.3646,-4.3497,-4.3497,-4.3497,-4.3497,-4.3497,-4.3497,-4.3497,-4.3497,-4.3497,-4.3497,-4.3497,-4.4011,-4.48,-4.5186,-4.6361,-4.781,-4.8177,-4.8306,-4.8306,-4.8306,-4.8306,-4.8141,-4.7297,-4.6507,-4.5718,-4.4874,-4.4066,-4.3497,-4.3497,-4.3497,-4.3497,-4.3497,-4.3497,-4.3497,-4.3497,-4.3497,-4.3497,-4.3497,-4.3497,-4.3497,-4.3497,-4.3497,-4.3497,-4.3497,-4.3497,-4.3497,-4.3497,-4.3497,-4.3497,-4.3497,-4.3497,-4.3497,-4.3497,-4.3497,-4.3497,-4.3497,-4.3497,-4.3497,-4.3497,-4.3497,-4.3497,-4.3497,-4.3497,-4.3497,-4.3497,-4.3497,-4.3497,-4.3534,-4.4764,-4.5535,-4.5975,-4.7205,-4.7957,-4.8306,-4.8306,-4.8306,-4.8306,-4.8306,-4.8306,-4.8306,-4.8306,-4.8306,-4.8306,-4.5566,-4.5586,-4.5586,-4.5586,-4.5586,-4.5586,-4.5586,-4.5586,-4.5586,-4.5586,-4.5586,-4.5586,-4.5586,-4.5586,-4.5586,-4.5586,-4.5355,-4.5278,-4.549,-4.5323,-4.5247,-4.5434,-4.554,-4.5437,-4.509,-4.5103,-4.4943,-4.458,-4.458,-4.4447,-4.4087,-4.4087,-4.3974,-4.3679,-4.3631,-4.3597,-4.3563,-4.3513,-4.3497,-4.3497,-4.3497,-4.3497,-4.3497,-4.3497,-4.3589,-4.3791,-4.447,-4.5663,-4.704,-4.7829,-4.8104,-4.8122,-4.8269,-4.8306,-4.8251,-4.7976,-4.6948,-4.5847,-4.5553,-4.4507,-4.3497,-4.3497,-4.3497,-4.3497,-4.3497,-4.3497,-4.3497,-4.3497,-4.3497,-4.3497,-4.3497,-4.3497,-4.3497,-4.3497,-4.3497,-4.3497,-4.3497,-4.3497,-4.3497,-4.3497,-4.3497,-4.3497,-4.3497,-4.3497,-4.3497,-4.3497,-4.3497,-4.3497,-4.3497,-4.3497,-4.3497,-4.3497,-4.3497,-4.3497,-4.3497,-4.3497,-4.3497,-4.3497,-4.3497,-4.3497,-4.3516,-4.4342,-4.5057,-4.5736,-4.6562,-4.737,-4.8104,-4.8104,-4.8196,-4.8306,-4.8306,-4.8306,-4.8306,-4.8306,-4.8306,-4.8306,-4.5451,-4.5586,-4.5586,-4.5586,-4.5586,-4.5586,-4.5586,-4.5586,-4.5586,-4.5586,-4.5586,-4.5586,-4.5586,-4.5586,-4.5586,-4.5586,-4.5547,-4.5432,-4.5182,-4.54,-4.528,-4.4766,-4.5285,-4.5455,-4.5111,-4.5103,-4.4944,-4.458,-4.458,-4.458,-4.4527,-4.4527,-4.4501,-4.4447,-4.4076,-4.3924,-4.3893,-4.3612,-4.3497,-4.3497,-4.3497,-4.3497,-4.3497,-4.3497,-4.392,-4.4562,-4.4672,-4.5296,-4.6195,-4.7003,-4.7278,-4.7388,-4.8086,-4.8306,-4.8031,-4.6636,-4.6067,-4.559,-4.4195,-4.3663,-4.3497,-4.3497,-4.3497,-4.3497,-4.3497,-4.3497,-4.3497,-4.3497,-4.3497,-4.3497,-4.3497,-4.3497,-4.3497,-4.3497,-4.3497,-4.3497,-4.3497,-4.3497,-4.3497,-4.3497,-4.3497,-4.3497,-4.3497,-4.3497,-4.3497,-4.3497,-4.3497,-4.3497,-4.3497,-4.3497,-4.3497,-4.3497,-4.3497,-4.3497,-4.3497,-4.3497,-4.3497,-4.3497,-4.3497,-4.3497,-4.3516,-4.4342,-4.4764,-4.4911,-4.5718,-4.6526,-4.7278,-4.7278,-4.7682,-4.8306,-4.8306,-4.8306,-4.8306,-4.8306,-4.8306,-4.8306,-4.4722,-4.4876,-4.503,-4.5509,-4.5586,-4.5586,-4.5586,-4.5586,-4.5586,-4.5586,-4.5586,-4.5586,-4.5586,-4.5586,-4.5586,-4.5586,-4.5586,-4.5528,-4.5393,-4.5509,-4.5476,-4.5155,-4.5436,-4.5432,-4.5124,-4.5279,-4.5228,-4.4871,-4.4678,-4.4501,-4.4261,-4.4261,-4.4261,-4.4261,-4.4058,-4.4117,-4.429,-4.3943,-4.3772,-4.3772,-4.3563,-4.3497,-4.3497,-4.3497,-4.3718,-4.4085,-4.4544,-4.4947,-4.5351,-4.6159,-4.6746,-4.7095,-4.7003,-4.7278,-4.7407,-4.6232,-4.5571,-4.5076,-4.436,-4.3828,-4.3497,-4.3497,-4.3497,-4.3497,-4.3497,-4.3497,-4.3497,-4.3497,-4.3497,-4.3497,-4.3497,-4.3497,-4.3497,-4.3497,-4.3497,-4.3497,-4.3497,-4.3497,-4.3497,-4.3497,-4.3497,-4.3497,-4.3497,-4.3497,-4.3497,-4.3497,-4.3497,-4.3497,-4.3497,-4.3497,-4.3497,-4.3497,-4.3497,-4.3497,-4.3497,-4.3497,-4.3497,-4.3497,-4.3497,-4.3497,-4.3497,-4.3864,-4.4268,-4.4727,-4.5094,-4.57,-4.6434,-4.6434,-4.6636,-4.7003,-4.7462,-4.7921,-4.8306,-4.8306,-4.8306,-4.8306]}]]